<?xml version='1.0' encoding='UTF-8'?><gpx version="1.1" creator="JPX - https://github.com/jenetics/jpx" xmlns="http://www.topografix.com/GPX/1/1"><trk><trkseg><trkpt lat="43.29429109630303" lon="10.729694891761149"><ele>254.0</ele><time>2026-04-12T08:53:14Z</time></trkpt><trkpt lat="43.29421695033907" lon="10.729744036890825"><ele>253.99999999999997</ele><time>2026-04-12T08:53:16Z</time></trkpt><trkpt lat="43.294118699425624" lon="10.729795340474752"><ele>253.99999999999997</ele><time>2026-04-12T08:53:18Z</time></trkpt><trkpt lat="43.29402750346423" lon="10.729834927599573"><ele>254.0</ele><time>2026-04-12T08:53:20Z</time></trkpt><trkpt lat="43.29390650597035" lon="10.729821882693603"><ele>254.0</ele><time>2026-04-12T08:53:22Z</time></trkpt><trkpt lat="43.293847708996005" lon="10.729906976209469"><ele>251.79999999999998</ele><time>2026-04-12T08:53:23Z</time></trkpt><trkpt lat="43.29372530238083" lon="10.729924407130948"><ele>249.59999999999997</ele><time>2026-04-12T08:53:25Z</time></trkpt><trkpt lat="43.293658523891565" lon="10.72993404198814"><ele>247.4</ele><time>2026-04-12T08:53:25.999Z</time></trkpt><trkpt lat="43.293589826312676" lon="10.729938917016772"><ele>245.2</ele><time>2026-04-12T08:53:26.999Z</time></trkpt><trkpt lat="43.29348362932354" lon="10.730004509085363"><ele>243.0</ele><time>2026-04-12T08:53:28.999Z</time></trkpt><trkpt lat="43.29341724767241" lon="10.730117053631172"><ele>243.0</ele><time>2026-04-12T08:53:30.999Z</time></trkpt><trkpt lat="43.293355253011455" lon="10.730218358722768"><ele>243.0</ele><time>2026-04-12T08:53:32.999Z</time></trkpt><trkpt lat="43.29331167792929" lon="10.730334216021221"><ele>243.0</ele><time>2026-04-12T08:53:34.999Z</time></trkpt><trkpt lat="43.29327040891724" lon="10.7304784241683"><ele>243.0</ele><time>2026-04-12T08:53:36.999Z</time></trkpt><trkpt lat="43.2932576830873" lon="10.730575498970305"><ele>243.0</ele><time>2026-04-12T08:53:37.999Z</time></trkpt><trkpt lat="43.29323215179466" lon="10.730668699059116"><ele>243.0</ele><time>2026-04-12T08:53:38.999Z</time></trkpt><trkpt lat="43.293206347170745" lon="10.730762636608967"><ele>242.8</ele><time>2026-04-12T08:53:39.999Z</time></trkpt><trkpt lat="43.29317653679136" lon="10.730854412478411"><ele>242.60000000000002</ele><time>2026-04-12T08:53:40.999Z</time></trkpt><trkpt lat="43.29310912880048" lon="10.730977451198028"><ele>242.39999999999998</ele><time>2026-04-12T08:53:42.999Z</time></trkpt><trkpt lat="43.29304451866004" lon="10.731086708877669"><ele>242.2</ele><time>2026-04-12T08:53:44.999Z</time></trkpt><trkpt lat="43.29300516734856" lon="10.73115709855824"><ele>242.0</ele><time>2026-04-12T08:53:45.999Z</time></trkpt><trkpt lat="43.29295856560368" lon="10.731284979129116"><ele>242.00000000000003</ele><time>2026-04-12T08:53:47.999Z</time></trkpt><trkpt lat="43.29293568629747" lon="10.731433831444756"><ele>242.0</ele><time>2026-04-12T08:53:49.999Z</time></trkpt><trkpt lat="43.29296616242818" lon="10.731589034693288"><ele>242.0</ele><time>2026-04-12T08:53:51.999Z</time></trkpt><trkpt lat="43.29300556895826" lon="10.731675534053455"><ele>242.0</ele><time>2026-04-12T08:53:52.999Z</time></trkpt><trkpt lat="43.29305367761165" lon="10.731750164057534"><ele>242.00000000000003</ele><time>2026-04-12T08:53:53.999Z</time></trkpt><trkpt lat="43.29309580478641" lon="10.731815383805891"><ele>242.0</ele><time>2026-04-12T08:53:54.999Z</time></trkpt><trkpt lat="43.293136397127796" lon="10.731884610191885"><ele>244.0</ele><time>2026-04-12T08:53:55.999Z</time></trkpt><trkpt lat="43.293157383138734" lon="10.73203472892492"><ele>246.0</ele><time>2026-04-12T08:53:57.999Z</time></trkpt><trkpt lat="43.293134002874154" lon="10.73214485200401"><ele>248.0</ele><time>2026-04-12T08:53:59.999Z</time></trkpt><trkpt lat="43.29312759719624" lon="10.73227524133887"><ele>250.0</ele><time>2026-04-12T08:54:01.999Z</time></trkpt><trkpt lat="43.293085773799724" lon="10.732433243117857"><ele>252.0</ele><time>2026-04-12T08:54:03.999Z</time></trkpt><trkpt lat="43.29307367793122" lon="10.732585138698616"><ele>254.5</ele><time>2026-04-12T08:54:05.999Z</time></trkpt><trkpt lat="43.29312512128707" lon="10.732720017856789"><ele>257.0</ele><time>2026-04-12T08:54:07.999Z</time></trkpt><trkpt lat="43.2931246392797" lon="10.732843498198202"><ele>259.5</ele><time>2026-04-12T08:54:09.999Z</time></trkpt><trkpt lat="43.29308856489439" lon="10.732918697691565"><ele>262.0</ele><time>2026-04-12T08:54:11.999Z</time></trkpt><trkpt lat="43.292983039957846" lon="10.732956179509841"><ele>264.5</ele><time>2026-04-12T08:54:13.998Z</time></trkpt><trkpt lat="43.292918598994625" lon="10.732951404256509"><ele>267.0</ele><time>2026-04-12T08:54:14.998Z</time></trkpt><trkpt lat="43.2928548949214" lon="10.732945875006179"><ele>267.42857142857144</ele><time>2026-04-12T08:54:15.998Z</time></trkpt><trkpt lat="43.29277977695229" lon="10.732945107699596"><ele>267.8571428571429</ele><time>2026-04-12T08:54:16.998Z</time></trkpt><trkpt lat="43.292696411975406" lon="10.732948695324197"><ele>268.2857142857143</ele><time>2026-04-12T08:54:17.998Z</time></trkpt><trkpt lat="43.29263345302535" lon="10.732961164639317"><ele>268.7142857142857</ele><time>2026-04-12T08:54:18.998Z</time></trkpt><trkpt lat="43.292570091559725" lon="10.732958446724442"><ele>269.1428571428571</ele><time>2026-04-12T08:54:19.998Z</time></trkpt><trkpt lat="43.29249978415575" lon="10.73293014599895"><ele>269.57142857142856</ele><time>2026-04-12T08:54:20.998Z</time></trkpt><trkpt lat="43.292428146730195" lon="10.73294052455367"><ele>270.0</ele><time>2026-04-12T08:54:21.998Z</time></trkpt><trkpt lat="43.29236472331894" lon="10.7329667948335"><ele>270.0</ele><time>2026-04-12T08:54:22.998Z</time></trkpt><trkpt lat="43.29231559629694" lon="10.73306631083529"><ele>270.0</ele><time>2026-04-12T08:54:23.998Z</time></trkpt><trkpt lat="43.29231218954201" lon="10.733167168165046"><ele>270.0</ele><time>2026-04-12T08:54:24.998Z</time></trkpt><trkpt lat="43.292300976457064" lon="10.73325988140188"><ele>270.0</ele><time>2026-04-12T08:54:25.998Z</time></trkpt><trkpt lat="43.29228267070882" lon="10.733362971617511"><ele>270.0</ele><time>2026-04-12T08:54:26.998Z</time></trkpt><trkpt lat="43.29229153946748" lon="10.733471014940674"><ele>270.0</ele><time>2026-04-12T08:54:28.998Z</time></trkpt><trkpt lat="43.2922607441154" lon="10.733622625451517"><ele>270.4</ele><time>2026-04-12T08:54:30.998Z</time></trkpt><trkpt lat="43.29226652142906" lon="10.73372712548635"><ele>270.8</ele><time>2026-04-12T08:54:31.998Z</time></trkpt><trkpt lat="43.29224214588877" lon="10.733865802531925"><ele>271.2</ele><time>2026-04-12T08:54:33.998Z</time></trkpt><trkpt lat="43.29220451007505" lon="10.734013905800921"><ele>271.6</ele><time>2026-04-12T08:54:35.998Z</time></trkpt><trkpt lat="43.29215444579463" lon="10.734174619287"><ele>272.0</ele><time>2026-04-12T08:54:37.998Z</time></trkpt><trkpt lat="43.29212535978939" lon="10.734262146968039"><ele>272.0</ele><time>2026-04-12T08:54:38.998Z</time></trkpt><trkpt lat="43.29210612185035" lon="10.734357214341497"><ele>272.0</ele><time>2026-04-12T08:54:39.998Z</time></trkpt><trkpt lat="43.29208830210201" lon="10.73446036993254"><ele>272.0</ele><time>2026-04-12T08:54:40.998Z</time></trkpt><trkpt lat="43.29205742951749" lon="10.734556933135778"><ele>272.0</ele><time>2026-04-12T08:54:41.998Z</time></trkpt><trkpt lat="43.29200421426348" lon="10.734696681171556"><ele>272.0</ele><time>2026-04-12T08:54:43.998Z</time></trkpt><trkpt lat="43.29189542098115" lon="10.734776710788852"><ele>274.33333333333337</ele><time>2026-04-12T08:54:45.998Z</time></trkpt><trkpt lat="43.291822003038085" lon="10.734885924464125"><ele>276.6666666666667</ele><time>2026-04-12T08:54:46.998Z</time></trkpt><trkpt lat="43.29179236550043" lon="10.734967454051866"><ele>279.0</ele><time>2026-04-12T08:54:47.998Z</time></trkpt><trkpt lat="43.2917316717593" lon="10.735019010303189"><ele>281.3333333333333</ele><time>2026-04-12T08:54:48.998Z</time></trkpt><trkpt lat="43.29165996794702" lon="10.734978583916925"><ele>283.66666666666663</ele><time>2026-04-12T08:54:50.998Z</time></trkpt><trkpt lat="43.29162055616723" lon="10.73488255133098"><ele>286.0</ele><time>2026-04-12T08:54:52.998Z</time></trkpt><trkpt lat="43.29163412553581" lon="10.734793456128896"><ele>286.0</ele><time>2026-04-12T08:54:55Z</time></trkpt><trkpt lat="43.291606657405005" lon="10.734639183190632"><ele>286.0</ele><time>2026-04-12T08:54:57Z</time></trkpt><trkpt lat="43.29158934328105" lon="10.734539059561275"><ele>286.0</ele><time>2026-04-12T08:54:58Z</time></trkpt><trkpt lat="43.29154306021091" lon="10.734466808067353"><ele>286.0</ele><time>2026-04-12T08:54:59Z</time></trkpt><trkpt lat="43.29150305216345" lon="10.73438095741302"><ele>286.0</ele><time>2026-04-12T08:55:00Z</time></trkpt><trkpt lat="43.29146321770059" lon="10.734306584508124"><ele>286.0</ele><time>2026-04-12T08:55:01Z</time></trkpt><trkpt lat="43.291376864354035" lon="10.73418754203904"><ele>286.3333333333333</ele><time>2026-04-12T08:55:03Z</time></trkpt><trkpt lat="43.29132961647935" lon="10.734120329444028"><ele>286.66666666666663</ele><time>2026-04-12T08:55:04Z</time></trkpt><trkpt lat="43.29119895749212" lon="10.73406283232414"><ele>287.0</ele><time>2026-04-12T08:55:06Z</time></trkpt><trkpt lat="43.29111678291922" lon="10.734054086343036"><ele>287.3333333333333</ele><time>2026-04-12T08:55:07Z</time></trkpt><trkpt lat="43.29104786531739" lon="10.734056996292944"><ele>287.6666666666667</ele><time>2026-04-12T08:55:08Z</time></trkpt><trkpt lat="43.29097929436811" lon="10.734057455407225"><ele>288.0</ele><time>2026-04-12T08:55:09Z</time></trkpt><trkpt lat="43.29085700320981" lon="10.734048693110337"><ele>288.0</ele><time>2026-04-12T08:55:11Z</time></trkpt><trkpt lat="43.29075662269919" lon="10.73400878338373"><ele>288.0</ele><time>2026-04-12T08:55:13Z</time></trkpt><trkpt lat="43.290688088105426" lon="10.733906306604839"><ele>288.0</ele><time>2026-04-12T08:55:15Z</time></trkpt><trkpt lat="43.290660220842476" lon="10.7337759490084"><ele>288.0</ele><time>2026-04-12T08:55:17Z</time></trkpt><trkpt lat="43.29064660144554" lon="10.73368853335893"><ele>288.0</ele><time>2026-04-12T08:55:18Z</time></trkpt><trkpt lat="43.29060441222375" lon="10.733544060944334"><ele>287.0</ele><time>2026-04-12T08:55:20Z</time></trkpt><trkpt lat="43.290552407542094" lon="10.733489237310677"><ele>286.0</ele><time>2026-04-12T08:55:21Z</time></trkpt><trkpt lat="43.29045367184814" lon="10.733424334929575"><ele>285.0</ele><time>2026-04-12T08:55:22Z</time></trkpt><trkpt lat="43.29035493913246" lon="10.733373515457764"><ele>284.0</ele><time>2026-04-12T08:55:23Z</time></trkpt><trkpt lat="43.29028338940752" lon="10.733332918926076"><ele>283.0</ele><time>2026-04-12T08:55:24Z</time></trkpt><trkpt lat="43.290213834301525" lon="10.733315072965036"><ele>282.0</ele><time>2026-04-12T08:55:25Z</time></trkpt><trkpt lat="43.29006031285189" lon="10.733336742726134"><ele>282.0</ele><time>2026-04-12T08:55:27Z</time></trkpt><trkpt lat="43.289994057772184" lon="10.73332083982411"><ele>282.0</ele><time>2026-04-12T08:55:28Z</time></trkpt><trkpt lat="43.289925796403374" lon="10.73331929131114"><ele>282.0</ele><time>2026-04-12T08:55:29Z</time></trkpt><trkpt lat="43.2898157125116" lon="10.733347562067891"><ele>282.0</ele><time>2026-04-12T08:55:30.999Z</time></trkpt><trkpt lat="43.28972049327228" lon="10.733433110544123"><ele>282.0</ele><time>2026-04-12T08:55:32.999Z</time></trkpt><trkpt lat="43.28968232841653" lon="10.73351305730027"><ele>282.0</ele><time>2026-04-12T08:55:33.999Z</time></trkpt><trkpt lat="43.28963344452689" lon="10.73363229881432"><ele>281.8333333333333</ele><time>2026-04-12T08:55:34.999Z</time></trkpt><trkpt lat="43.28959366435295" lon="10.733729773762276"><ele>281.6666666666667</ele><time>2026-04-12T08:55:35.999Z</time></trkpt><trkpt lat="43.28955143114884" lon="10.733799247116576"><ele>281.5</ele><time>2026-04-12T08:55:36.999Z</time></trkpt><trkpt lat="43.289460428724105" lon="10.733917226715164"><ele>281.33333333333337</ele><time>2026-04-12T08:55:38.999Z</time></trkpt><trkpt lat="43.289392735296126" lon="10.733948116814046"><ele>281.1666666666667</ele><time>2026-04-12T08:55:39.999Z</time></trkpt><trkpt lat="43.289337971510776" lon="10.734007937473262"><ele>281.0</ele><time>2026-04-12T08:55:40.999Z</time></trkpt><trkpt lat="43.28927517616331" lon="10.73407535826263"><ele>281.0</ele><time>2026-04-12T08:55:41.999Z</time></trkpt><trkpt lat="43.28921623611048" lon="10.734141907500106"><ele>281.0</ele><time>2026-04-12T08:55:42.999Z</time></trkpt><trkpt lat="43.28913953460561" lon="10.734251598705505"><ele>281.0</ele><time>2026-04-12T08:55:44.999Z</time></trkpt><trkpt lat="43.289083485895546" lon="10.734355452699315"><ele>281.0</ele><time>2026-04-12T08:55:46.999Z</time></trkpt><trkpt lat="43.28908910077608" lon="10.734493919980121"><ele>281.0</ele><time>2026-04-12T08:55:48.999Z</time></trkpt><trkpt lat="43.28911865401713" lon="10.73457538215533"><ele>281.0</ele><time>2026-04-12T08:55:49.999Z</time></trkpt><trkpt lat="43.289169900045465" lon="10.734693626893746"><ele>282.0</ele><time>2026-04-12T08:55:50.999Z</time></trkpt><trkpt lat="43.28920662783886" lon="10.734804200380653"><ele>283.0</ele><time>2026-04-12T08:55:51.999Z</time></trkpt><trkpt lat="43.28922187943164" lon="10.7349042984168"><ele>284.0</ele><time>2026-04-12T08:55:52.999Z</time></trkpt><trkpt lat="43.28921189905314" lon="10.735006868065634"><ele>285.0</ele><time>2026-04-12T08:55:53.999Z</time></trkpt><trkpt lat="43.28920077075513" lon="10.73510669162576"><ele>286.0</ele><time>2026-04-12T08:55:54.999Z</time></trkpt><trkpt lat="43.28918751114466" lon="10.735213485390798"><ele>287.0</ele><time>2026-04-12T08:55:55.999Z</time></trkpt><trkpt lat="43.289174805800506" lon="10.735316291825297"><ele>287.0</ele><time>2026-04-12T08:55:56.999Z</time></trkpt><trkpt lat="43.28918772973469" lon="10.735484212546618"><ele>287.0</ele><time>2026-04-12T08:55:58.999Z</time></trkpt><trkpt lat="43.2892161161725" lon="10.735563249267043"><ele>287.0</ele><time>2026-04-12T08:55:59.999Z</time></trkpt><trkpt lat="43.289262032928846" lon="10.735633821130032"><ele>287.0</ele><time>2026-04-12T08:56:00.999Z</time></trkpt><trkpt lat="43.289325595275216" lon="10.735699654909574"><ele>287.0</ele><time>2026-04-12T08:56:01.999Z</time></trkpt><trkpt lat="43.28939820709382" lon="10.735747957934874"><ele>287.0</ele><time>2026-04-12T08:56:02.999Z</time></trkpt><trkpt lat="43.28948066519159" lon="10.735783969759328"><ele>287.0</ele><time>2026-04-12T08:56:03.999Z</time></trkpt><trkpt lat="43.289561139133404" lon="10.735814632595105"><ele>287.0</ele><time>2026-04-12T08:56:04.999Z</time></trkpt><trkpt lat="43.289642529289175" lon="10.7358337096733"><ele>287.0</ele><time>2026-04-12T08:56:05.999Z</time></trkpt><trkpt lat="43.28971914255964" lon="10.735837793879288"><ele>287.0</ele><time>2026-04-12T08:56:06.999Z</time></trkpt><trkpt lat="43.2897876690548" lon="10.735867467280302"><ele>287.0</ele><time>2026-04-12T08:56:07.999Z</time></trkpt><trkpt lat="43.289876175791605" lon="10.735877543479592"><ele>287.0</ele><time>2026-04-12T08:56:08.999Z</time></trkpt><trkpt lat="43.28994964063671" lon="10.735909783236414"><ele>289.6666666666667</ele><time>2026-04-12T08:56:09.999Z</time></trkpt><trkpt lat="43.290017810215076" lon="10.735928585548494"><ele>292.33333333333337</ele><time>2026-04-12T08:56:10.999Z</time></trkpt><trkpt lat="43.29012307833857" lon="10.735940839909418"><ele>295.0</ele><time>2026-04-12T08:56:12.999Z</time></trkpt><trkpt lat="43.2901983039522" lon="10.73599383307112"><ele>297.6666666666667</ele><time>2026-04-12T08:56:14.999Z</time></trkpt><trkpt lat="43.29025101635282" lon="10.736126108490167"><ele>300.3333333333333</ele><time>2026-04-12T08:56:16.999Z</time></trkpt><trkpt lat="43.29028988650439" lon="10.736201175980623"><ele>303.0</ele><time>2026-04-12T08:56:17.999Z</time></trkpt><trkpt lat="43.29034526939692" lon="10.736344836685173"><ele>303.0</ele><time>2026-04-12T08:56:19.999Z</time></trkpt><trkpt lat="43.29036156269025" lon="10.736428408965981"><ele>303.0</ele><time>2026-04-12T08:56:20.999Z</time></trkpt><trkpt lat="43.290368514210044" lon="10.736518955712965"><ele>303.0</ele><time>2026-04-12T08:56:21.998Z</time></trkpt><trkpt lat="43.29037023729524" lon="10.736674811522184"><ele>303.0</ele><time>2026-04-12T08:56:23.998Z</time></trkpt><trkpt lat="43.290333120093194" lon="10.736798796743447"><ele>303.0</ele><time>2026-04-12T08:56:25.998Z</time></trkpt><trkpt lat="43.29030263648059" lon="10.73687561560299"><ele>303.0</ele><time>2026-04-12T08:56:26.998Z</time></trkpt><trkpt lat="43.2902479045034" lon="10.737012044385954"><ele>305.8</ele><time>2026-04-12T08:56:28.998Z</time></trkpt><trkpt lat="43.290186549849025" lon="10.737116158045216"><ele>308.6</ele><time>2026-04-12T08:56:30.998Z</time></trkpt><trkpt lat="43.29011212908456" lon="10.7372423141697"><ele>311.4</ele><time>2026-04-12T08:56:32.998Z</time></trkpt><trkpt lat="43.290059685422776" lon="10.737310792057114"><ele>314.2</ele><time>2026-04-12T08:56:33.998Z</time></trkpt><trkpt lat="43.289962813175805" lon="10.737404456972687"><ele>317.0</ele><time>2026-04-12T08:56:35.998Z</time></trkpt><trkpt lat="43.28991062015979" lon="10.73746462467751"><ele>317.0</ele><time>2026-04-12T08:56:36.998Z</time></trkpt><trkpt lat="43.28984557421589" lon="10.737518421689959"><ele>317.0</ele><time>2026-04-12T08:56:37.998Z</time></trkpt><trkpt lat="43.28978127037316" lon="10.737602997096298"><ele>317.0</ele><time>2026-04-12T08:56:38.998Z</time></trkpt><trkpt lat="43.289727572946674" lon="10.737658537975376"><ele>317.0</ele><time>2026-04-12T08:56:39.998Z</time></trkpt><trkpt lat="43.28964276037927" lon="10.737755691784201"><ele>317.0</ele><time>2026-04-12T08:56:41.998Z</time></trkpt><trkpt lat="43.2896036831314" lon="10.737832506177616"><ele>317.0</ele><time>2026-04-12T08:56:42.998Z</time></trkpt><trkpt lat="43.28952945213761" lon="10.737956323599894"><ele>319.0</ele><time>2026-04-12T08:56:44.998Z</time></trkpt><trkpt lat="43.28942118660266" lon="10.738013746955174"><ele>321.0</ele><time>2026-04-12T08:56:46.998Z</time></trkpt><trkpt lat="43.289359535432666" lon="10.738035869427216"><ele>323.0</ele><time>2026-04-12T08:56:47.998Z</time></trkpt><trkpt lat="43.289289059365174" lon="10.738076483744178"><ele>325.0</ele><time>2026-04-12T08:56:48.998Z</time></trkpt><trkpt lat="43.28919948688682" lon="10.738149595048876"><ele>327.0</ele><time>2026-04-12T08:56:50.998Z</time></trkpt><trkpt lat="43.289106479972865" lon="10.738224865054395"><ele>327.0</ele><time>2026-04-12T08:56:52.998Z</time></trkpt><trkpt lat="43.28903457768781" lon="10.738287737620508"><ele>327.0</ele><time>2026-04-12T08:56:54.998Z</time></trkpt><trkpt lat="43.28891500771027" lon="10.73835155411686"><ele>327.0</ele><time>2026-04-12T08:56:56.998Z</time></trkpt><trkpt lat="43.28884762167191" lon="10.738392140146582"><ele>327.0</ele><time>2026-04-12T08:56:57.998Z</time></trkpt><trkpt lat="43.288778616312314" lon="10.73843861517003"><ele>327.0</ele><time>2026-04-12T08:56:58.998Z</time></trkpt><trkpt lat="43.28870436697759" lon="10.738477431572763"><ele>327.0</ele><time>2026-04-12T08:57:00Z</time></trkpt><trkpt lat="43.288632045604885" lon="10.738515108950562"><ele>327.42857142857144</ele><time>2026-04-12T08:57:01Z</time></trkpt><trkpt lat="43.28856230624126" lon="10.73857472317477"><ele>327.8571428571429</ele><time>2026-04-12T08:57:02Z</time></trkpt><trkpt lat="43.288506123553056" lon="10.738635464431741"><ele>328.28571428571433</ele><time>2026-04-12T08:57:03Z</time></trkpt><trkpt lat="43.28845125155733" lon="10.738703169115759"><ele>328.7142857142857</ele><time>2026-04-12T08:57:04Z</time></trkpt><trkpt lat="43.28841270796363" lon="10.738790905799746"><ele>329.14285714285717</ele><time>2026-04-12T08:57:05Z</time></trkpt><trkpt lat="43.28835492129588" lon="10.738849160196846"><ele>329.5714285714286</ele><time>2026-04-12T08:57:06Z</time></trkpt><trkpt lat="43.28831853837988" lon="10.738936305886961"><ele>330.0</ele><time>2026-04-12T08:57:07Z</time></trkpt><trkpt lat="43.28827116707854" lon="10.73899683666832"><ele>330.0</ele><time>2026-04-12T08:57:08Z</time></trkpt><trkpt lat="43.28823229143562" lon="10.739066434947901"><ele>330.0</ele><time>2026-04-12T08:57:09Z</time></trkpt><trkpt lat="43.2881957307821" lon="10.739165170520325"><ele>330.0</ele><time>2026-04-12T08:57:10Z</time></trkpt><trkpt lat="43.288160471287966" lon="10.739268454266066"><ele>330.0</ele><time>2026-04-12T08:57:11Z</time></trkpt><trkpt lat="43.2881332980094" lon="10.739363886876795"><ele>330.0</ele><time>2026-04-12T08:57:12Z</time></trkpt><trkpt lat="43.288121424640806" lon="10.739458328475143"><ele>330.0</ele><time>2026-04-12T08:57:13Z</time></trkpt><trkpt lat="43.28811633918161" lon="10.739593603992933"><ele>331.3333333333333</ele><time>2026-04-12T08:57:15Z</time></trkpt><trkpt lat="43.28806106470618" lon="10.739680351759091"><ele>332.6666666666667</ele><time>2026-04-12T08:57:17Z</time></trkpt><trkpt lat="43.2879879470895" lon="10.73966968167919"><ele>334.0</ele><time>2026-04-12T08:57:19Z</time></trkpt><trkpt lat="43.28790827185315" lon="10.739576442646893"><ele>335.33333333333337</ele><time>2026-04-12T08:57:21Z</time></trkpt><trkpt lat="43.287876922224385" lon="10.739494486020812"><ele>336.6666666666667</ele><time>2026-04-12T08:57:22Z</time></trkpt><trkpt lat="43.28780321308687" lon="10.739385506281533"><ele>338.0</ele><time>2026-04-12T08:57:24Z</time></trkpt><trkpt lat="43.287740801528685" lon="10.739344827515385"><ele>338.0</ele><time>2026-04-12T08:57:25Z</time></trkpt><trkpt lat="43.28762856638296" lon="10.739298106426943"><ele>338.0</ele><time>2026-04-12T08:57:26.999Z</time></trkpt><trkpt lat="43.287505579089725" lon="10.739329445585348"><ele>338.0</ele><time>2026-04-12T08:57:28.999Z</time></trkpt><trkpt lat="43.28746131748901" lon="10.739409357328002"><ele>338.0</ele><time>2026-04-12T08:57:29.999Z</time></trkpt><trkpt lat="43.287418524545" lon="10.739483033390202"><ele>338.0</ele><time>2026-04-12T08:57:30.999Z</time></trkpt><trkpt lat="43.287379919058566" lon="10.739569513479424"><ele>338.0</ele><time>2026-04-12T08:57:31.999Z</time></trkpt><trkpt lat="43.28735060288402" lon="10.739660237613228"><ele>338.0</ele><time>2026-04-12T08:57:32.999Z</time></trkpt><trkpt lat="43.28731480725505" lon="10.739742108117134"><ele>338.0</ele><time>2026-04-12T08:57:33.999Z</time></trkpt><trkpt lat="43.28729386276934" lon="10.7398322015443"><ele>338.0</ele><time>2026-04-12T08:57:34.999Z</time></trkpt><trkpt lat="43.28723466253239" lon="10.739941751086885"><ele>338.0</ele><time>2026-04-12T08:57:36.999Z</time></trkpt><trkpt lat="43.28714532117881" lon="10.740032227305045"><ele>338.0</ele><time>2026-04-12T08:57:38.999Z</time></trkpt><trkpt lat="43.28705786284559" lon="10.740097791966804"><ele>336.6666666666667</ele><time>2026-04-12T08:57:40.999Z</time></trkpt><trkpt lat="43.287006583080355" lon="10.740179503808006"><ele>335.33333333333337</ele><time>2026-04-12T08:57:41.999Z</time></trkpt><trkpt lat="43.28696497911609" lon="10.740271610600171"><ele>334.0</ele><time>2026-04-12T08:57:42.999Z</time></trkpt><trkpt lat="43.28692943927524" lon="10.740374945179827"><ele>332.6666666666667</ele><time>2026-04-12T08:57:43.999Z</time></trkpt><trkpt lat="43.286905925464" lon="10.740467584301356"><ele>331.3333333333333</ele><time>2026-04-12T08:57:44.999Z</time></trkpt><trkpt lat="43.28687723666638" lon="10.740561453997204"><ele>330.0</ele><time>2026-04-12T08:57:45.999Z</time></trkpt><trkpt lat="43.286848775090164" lon="10.740649337530435"><ele>330.00000000000006</ele><time>2026-04-12T08:57:46.999Z</time></trkpt><trkpt lat="43.286818411544374" lon="10.74074151435849"><ele>330.0</ele><time>2026-04-12T08:57:47.999Z</time></trkpt><trkpt lat="43.28678838126319" lon="10.740824351133838"><ele>330.0</ele><time>2026-04-12T08:57:48.999Z</time></trkpt><trkpt lat="43.28675538398597" lon="10.740903487809884"><ele>330.0</ele><time>2026-04-12T08:57:49.999Z</time></trkpt><trkpt lat="43.28673070833606" lon="10.741006330490894"><ele>330.0</ele><time>2026-04-12T08:57:50.999Z</time></trkpt><trkpt lat="43.28670881773989" lon="10.741108118060511"><ele>330.00000000000006</ele><time>2026-04-12T08:57:51.999Z</time></trkpt><trkpt lat="43.286690030985305" lon="10.741206968566328"><ele>330.0</ele><time>2026-04-12T08:57:52.999Z</time></trkpt><trkpt lat="43.28666819187964" lon="10.741290230897777"><ele>331.8333333333333</ele><time>2026-04-12T08:57:53.999Z</time></trkpt><trkpt lat="43.2865917312329" lon="10.7413703296084"><ele>333.6666666666667</ele><time>2026-04-12T08:57:55.999Z</time></trkpt><trkpt lat="43.286533641275525" lon="10.741529604598956"><ele>335.5</ele><time>2026-04-12T08:57:57.999Z</time></trkpt><trkpt lat="43.286518755158625" lon="10.741615420416363"><ele>337.33333333333337</ele><time>2026-04-12T08:57:58.999Z</time></trkpt><trkpt lat="43.286490890310134" lon="10.741707135887497"><ele>339.1666666666667</ele><time>2026-04-12T08:57:59.999Z</time></trkpt><trkpt lat="43.28646831275625" lon="10.741792339902593"><ele>341.0</ele><time>2026-04-12T08:58:00.999Z</time></trkpt><trkpt lat="43.28642298817802" lon="10.741867484502876"><ele>342.4</ele><time>2026-04-12T08:58:01.999Z</time></trkpt><trkpt lat="43.28638923218145" lon="10.741961799307596"><ele>343.8</ele><time>2026-04-12T08:58:02.999Z</time></trkpt><trkpt lat="43.286372658347446" lon="10.74204763119559"><ele>345.2</ele><time>2026-04-12T08:58:03.999Z</time></trkpt><trkpt lat="43.28632881920515" lon="10.74211794500217"><ele>346.59999999999997</ele><time>2026-04-12T08:58:04.999Z</time></trkpt><trkpt lat="43.28630726848064" lon="10.74226972088666"><ele>348.0</ele><time>2026-04-12T08:58:06.999Z</time></trkpt><trkpt lat="43.28626593027335" lon="10.742437994281245"><ele>348.0</ele><time>2026-04-12T08:58:08.999Z</time></trkpt><trkpt lat="43.28624761396962" lon="10.74252519285088"><ele>348.0</ele><time>2026-04-12T08:58:09.999Z</time></trkpt><trkpt lat="43.286234175178926" lon="10.742630903102157"><ele>348.0</ele><time>2026-04-12T08:58:10.999Z</time></trkpt><trkpt lat="43.28619854160007" lon="10.742730059772061"><ele>348.0</ele><time>2026-04-12T08:58:11.999Z</time></trkpt><trkpt lat="43.28615334416352" lon="10.742836386514506"><ele>348.0</ele><time>2026-04-12T08:58:12.999Z</time></trkpt><trkpt lat="43.28610138260623" lon="10.742976230310012"><ele>348.0</ele><time>2026-04-12T08:58:14.999Z</time></trkpt><trkpt lat="43.286050183511485" lon="10.7430338260897"><ele>350.2</ele><time>2026-04-12T08:58:15.999Z</time></trkpt><trkpt lat="43.28593886746416" lon="10.743125711428513"><ele>352.4</ele><time>2026-04-12T08:58:17.999Z</time></trkpt><trkpt lat="43.28589837351466" lon="10.743208643293155"><ele>354.59999999999997</ele><time>2026-04-12T08:58:18.999Z</time></trkpt><trkpt lat="43.285872919439655" lon="10.743288633148342"><ele>356.79999999999995</ele><time>2026-04-12T08:58:19.999Z</time></trkpt><trkpt lat="43.28588003142888" lon="10.743443433654349"><ele>359.0</ele><time>2026-04-12T08:58:21.999Z</time></trkpt><trkpt lat="43.28588524021907" lon="10.743577498899791"><ele>360.33333333333337</ele><time>2026-04-12T08:58:23.999Z</time></trkpt><trkpt lat="43.285887214166344" lon="10.743701068006308"><ele>361.6666666666667</ele><time>2026-04-12T08:58:25.998Z</time></trkpt><trkpt lat="43.28588649318337" lon="10.743792865747297"><ele>363.0</ele><time>2026-04-12T08:58:27.998Z</time></trkpt><trkpt lat="43.28587227418551" lon="10.743898669062698"><ele>364.3333333333333</ele><time>2026-04-12T08:58:29.998Z</time></trkpt><trkpt lat="43.285812806702715" lon="10.743959506267108"><ele>365.66666666666663</ele><time>2026-04-12T08:58:32.998Z</time></trkpt><trkpt lat="43.285750891847506" lon="10.743897280679198"><ele>367.0</ele><time>2026-04-12T08:58:34.998Z</time></trkpt><trkpt lat="43.285729455626296" lon="10.743789510403202"><ele>367.0</ele><time>2026-04-12T08:58:36.998Z</time></trkpt><trkpt lat="43.28571022510251" lon="10.743692347891686"><ele>367.0</ele><time>2026-04-12T08:58:38.998Z</time></trkpt><trkpt lat="43.28569133508631" lon="10.743607026950228"><ele>367.0</ele><time>2026-04-12T08:58:39.998Z</time></trkpt><trkpt lat="43.285620005410856" lon="10.743464911296273"><ele>367.0</ele><time>2026-04-12T08:58:41.998Z</time></trkpt><trkpt lat="43.285570087999965" lon="10.743403377468315"><ele>367.0</ele><time>2026-04-12T08:58:42.998Z</time></trkpt><trkpt lat="43.285456710417826" lon="10.743370628805982"><ele>367.0</ele><time>2026-04-12T08:58:44.998Z</time></trkpt><trkpt lat="43.285344789534456" lon="10.74337596165485"><ele>366.8</ele><time>2026-04-12T08:58:46.998Z</time></trkpt><trkpt lat="43.285263783956296" lon="10.743343097422825"><ele>366.6</ele><time>2026-04-12T08:58:48.998Z</time></trkpt><trkpt lat="43.28516877207216" lon="10.743248866709004"><ele>366.40000000000003</ele><time>2026-04-12T08:58:50.998Z</time></trkpt><trkpt lat="43.28511910193804" lon="10.743178667430605"><ele>366.20000000000005</ele><time>2026-04-12T08:58:52.998Z</time></trkpt><trkpt lat="43.285043356399456" lon="10.743099464367733"><ele>366.0</ele><time>2026-04-12T08:58:54.998Z</time></trkpt><trkpt lat="43.28494698400442" lon="10.74300188671508"><ele>366.0</ele><time>2026-04-12T08:58:56.998Z</time></trkpt><trkpt lat="43.284875940820484" lon="10.742958634346802"><ele>366.0</ele><time>2026-04-12T08:58:58.998Z</time></trkpt><trkpt lat="43.28479310361126" lon="10.742961891476543"><ele>366.0</ele><time>2026-04-12T08:59:19Z</time></trkpt><trkpt lat="43.28470504959396" lon="10.742994003278898"><ele>366.0</ele><time>2026-04-12T08:59:21Z</time></trkpt><trkpt lat="43.284595292858334" lon="10.743033688432252"><ele>366.0</ele><time>2026-04-12T08:59:23Z</time></trkpt><trkpt lat="43.284488502652124" lon="10.743039875950597"><ele>367.3333333333333</ele><time>2026-04-12T08:59:25Z</time></trkpt><trkpt lat="43.28441268848071" lon="10.743043737663628"><ele>368.6666666666667</ele><time>2026-04-12T08:59:27Z</time></trkpt><trkpt lat="43.28432240062861" lon="10.74301458242449"><ele>370.0</ele><time>2026-04-12T08:59:29Z</time></trkpt><trkpt lat="43.28420714921622" lon="10.742969486939662"><ele>371.33333333333337</ele><time>2026-04-12T08:59:31Z</time></trkpt><trkpt lat="43.28414359067261" lon="10.742931702170631"><ele>372.6666666666667</ele><time>2026-04-12T08:59:32Z</time></trkpt><trkpt lat="43.284076977490244" lon="10.74291171062072"><ele>374.0</ele><time>2026-04-12T08:59:33Z</time></trkpt><trkpt lat="43.28401179558315" lon="10.742909585403277"><ele>373.2</ele><time>2026-04-12T08:59:34Z</time></trkpt><trkpt lat="43.2839056403278" lon="10.742899025917142"><ele>372.4</ele><time>2026-04-12T08:59:35.999Z</time></trkpt><trkpt lat="43.2838234051135" lon="10.742849004679902"><ele>371.6</ele><time>2026-04-12T08:59:37.999Z</time></trkpt><trkpt lat="43.28375231846051" lon="10.742762358825305"><ele>370.8</ele><time>2026-04-12T08:59:39.999Z</time></trkpt><trkpt lat="43.28366624097123" lon="10.742661881135112"><ele>370.0</ele><time>2026-04-12T08:59:41.999Z</time></trkpt><trkpt lat="43.28358101507666" lon="10.742578816203993"><ele>370.0</ele><time>2026-04-12T08:59:43.999Z</time></trkpt><trkpt lat="43.28347795377206" lon="10.742542329445497"><ele>370.0</ele><time>2026-04-12T08:59:45.999Z</time></trkpt><trkpt lat="43.28337698255076" lon="10.742568034914962"><ele>370.0</ele><time>2026-04-12T08:59:47.999Z</time></trkpt><trkpt lat="43.28328468142076" lon="10.742652118864594"><ele>370.0</ele><time>2026-04-12T08:59:49.999Z</time></trkpt><trkpt lat="43.28322458589797" lon="10.742755274669054"><ele>370.0</ele><time>2026-04-12T08:59:51.999Z</time></trkpt><trkpt lat="43.283141308818344" lon="10.742822876711168"><ele>370.2</ele><time>2026-04-12T08:59:53.999Z</time></trkpt><trkpt lat="43.28305111140214" lon="10.742833553187602"><ele>370.4</ele><time>2026-04-12T08:59:55.999Z</time></trkpt><trkpt lat="43.282953843153294" lon="10.742844129766477"><ele>370.6</ele><time>2026-04-12T08:59:57.999Z</time></trkpt><trkpt lat="43.28289766720083" lon="10.742947920563743"><ele>370.8</ele><time>2026-04-12T08:59:59.999Z</time></trkpt><trkpt lat="43.282914347747926" lon="10.743109563691846"><ele>371.0</ele><time>2026-04-12T09:00:01.999Z</time></trkpt><trkpt lat="43.28294099401237" lon="10.74327294833331"><ele>371.0</ele><time>2026-04-12T09:00:03.999Z</time></trkpt><trkpt lat="43.282952857076026" lon="10.743419470719912"><ele>371.0</ele><time>2026-04-12T09:00:05.999Z</time></trkpt><trkpt lat="43.28299441464644" lon="10.74355435409466"><ele>371.0</ele><time>2026-04-12T09:00:07.999Z</time></trkpt><trkpt lat="43.28305044413668" lon="10.743700347407046"><ele>371.0</ele><time>2026-04-12T09:00:09.999Z</time></trkpt><trkpt lat="43.28313076711749" lon="10.743831924960666"><ele>374.0</ele><time>2026-04-12T09:00:11.999Z</time></trkpt><trkpt lat="43.283204994978874" lon="10.743953699732499"><ele>377.0</ele><time>2026-04-12T09:00:13.999Z</time></trkpt><trkpt lat="43.283283652845036" lon="10.744084679787274"><ele>380.0</ele><time>2026-04-12T09:00:15.999Z</time></trkpt><trkpt lat="43.28336374552666" lon="10.744209529692014"><ele>383.0</ele><time>2026-04-12T09:00:17.999Z</time></trkpt><trkpt lat="43.283401882202604" lon="10.744281025643774"><ele>386.0</ele><time>2026-04-12T09:00:18.999Z</time></trkpt><trkpt lat="43.28346614994997" lon="10.744416243548965"><ele>386.6</ele><time>2026-04-12T09:00:20.999Z</time></trkpt><trkpt lat="43.283518040161695" lon="10.744548921243137"><ele>387.20000000000005</ele><time>2026-04-12T09:00:22.999Z</time></trkpt><trkpt lat="43.28356426640893" lon="10.744688908057372"><ele>387.79999999999995</ele><time>2026-04-12T09:00:24.999Z</time></trkpt><trkpt lat="43.28360905780235" lon="10.744833512940959"><ele>388.4</ele><time>2026-04-12T09:00:26.999Z</time></trkpt><trkpt lat="43.28367230417179" lon="10.74494338597602"><ele>389.0</ele><time>2026-04-12T09:00:28.999Z</time></trkpt><trkpt lat="43.28369382939228" lon="10.74507822106971"><ele>389.0</ele><time>2026-04-12T09:00:30.999Z</time></trkpt><trkpt lat="43.28371529928837" lon="10.74519646097458"><ele>389.0</ele><time>2026-04-12T09:00:32.999Z</time></trkpt><trkpt lat="43.28372214910113" lon="10.745317743745368"><ele>389.0</ele><time>2026-04-12T09:00:34.999Z</time></trkpt><trkpt lat="43.28368883421209" lon="10.745457981575504"><ele>389.0</ele><time>2026-04-12T09:00:36.999Z</time></trkpt><trkpt lat="43.28363081400321" lon="10.745569154034293"><ele>389.0</ele><time>2026-04-12T09:00:38.998Z</time></trkpt><trkpt lat="43.28357811433625" lon="10.745692104897097"><ele>389.79999999999995</ele><time>2026-04-12T09:00:40.998Z</time></trkpt><trkpt lat="43.28350425684367" lon="10.745793558500731"><ele>390.59999999999997</ele><time>2026-04-12T09:00:42.998Z</time></trkpt><trkpt lat="43.28347516618801" lon="10.74587432907496"><ele>391.4</ele><time>2026-04-12T09:00:43.998Z</time></trkpt><trkpt lat="43.28342248597391" lon="10.746001165614404"><ele>392.2</ele><time>2026-04-12T09:00:45.998Z</time></trkpt><trkpt lat="43.28338939780618" lon="10.746148445710514"><ele>393.0</ele><time>2026-04-12T09:00:47.998Z</time></trkpt><trkpt lat="43.28335094982457" lon="10.746294747806463"><ele>394.79999999999995</ele><time>2026-04-12T09:00:49.998Z</time></trkpt><trkpt lat="43.28335602460272" lon="10.746441093474047"><ele>396.6</ele><time>2026-04-12T09:00:51.998Z</time></trkpt><trkpt lat="43.28339645843765" lon="10.746570342643812"><ele>398.4</ele><time>2026-04-12T09:00:53.998Z</time></trkpt><trkpt lat="43.28347710919566" lon="10.746662415953368"><ele>400.20000000000005</ele><time>2026-04-12T09:00:55.998Z</time></trkpt><trkpt lat="43.28358197072194" lon="10.74674129802242"><ele>402.0</ele><time>2026-04-12T09:00:57.998Z</time></trkpt><trkpt lat="43.28366238109212" lon="10.746808761417794"><ele>402.0</ele><time>2026-04-12T09:00:59.998Z</time></trkpt><trkpt lat="43.28371448356809" lon="10.746857670657802"><ele>402.0</ele><time>2026-04-12T09:01:01.998Z</time></trkpt><trkpt lat="43.28375627589552" lon="10.746956014020853"><ele>402.0</ele><time>2026-04-12T09:01:04.998Z</time></trkpt><trkpt lat="43.28370928342439" lon="10.74705904981338"><ele>402.0</ele><time>2026-04-12T09:01:07.998Z</time></trkpt><trkpt lat="43.28364770054825" lon="10.747114226501184"><ele>402.0</ele><time>2026-04-12T09:01:09.998Z</time></trkpt><trkpt lat="43.28358863697588" lon="10.747082520034366"><ele>402.0</ele><time>2026-04-12T09:01:10.998Z</time></trkpt><trkpt lat="43.28352000975488" lon="10.747073781214835"><ele>402.0</ele><time>2026-04-12T09:01:12Z</time></trkpt><trkpt lat="43.28344986979718" lon="10.747072839509736"><ele>402.5</ele><time>2026-04-12T09:01:13Z</time></trkpt><trkpt lat="43.28337748265058" lon="10.747085382940602"><ele>403.0</ele><time>2026-04-12T09:01:14Z</time></trkpt><trkpt lat="43.283262846645265" lon="10.747104050036489"><ele>403.5</ele><time>2026-04-12T09:01:16Z</time></trkpt><trkpt lat="43.28318710060659" lon="10.7471562494033"><ele>404.0</ele><time>2026-04-12T09:01:18Z</time></trkpt><trkpt lat="43.2831301692855" lon="10.747236934473388"><ele>404.5</ele><time>2026-04-12T09:01:20Z</time></trkpt><trkpt lat="43.283098822423895" lon="10.747355614479295"><ele>405.0</ele><time>2026-04-12T09:01:22Z</time></trkpt><trkpt lat="43.2830886630954" lon="10.74744513952636"><ele>405.0</ele><time>2026-04-12T09:01:23Z</time></trkpt><trkpt lat="43.28305502181708" lon="10.747553297941483"><ele>405.0</ele><time>2026-04-12T09:01:25Z</time></trkpt><trkpt lat="43.282988188477006" lon="10.747640017266432"><ele>405.0</ele><time>2026-04-12T09:01:28Z</time></trkpt><trkpt lat="43.2829312331411" lon="10.747599722701509"><ele>405.0</ele><time>2026-04-12T09:01:29Z</time></trkpt><trkpt lat="43.28283463174686" lon="10.747629099787293"><ele>405.0</ele><time>2026-04-12T09:01:32Z</time></trkpt><trkpt lat="43.28276304596485" lon="10.747766447414095"><ele>407.4</ele><time>2026-04-12T09:01:34Z</time></trkpt><trkpt lat="43.28272710186276" lon="10.747844322877324"><ele>409.8</ele><time>2026-04-12T09:01:35Z</time></trkpt><trkpt lat="43.28262193956883" lon="10.747946344855636"><ele>412.20000000000005</ele><time>2026-04-12T09:01:37Z</time></trkpt><trkpt lat="43.28253026966635" lon="10.748006494569601"><ele>414.6</ele><time>2026-04-12T09:01:39Z</time></trkpt><trkpt lat="43.282443432432274" lon="10.748118087324366"><ele>417.0</ele><time>2026-04-12T09:01:41Z</time></trkpt><trkpt lat="43.28241251320991" lon="10.748194730127123"><ele>417.0</ele><time>2026-04-12T09:01:42Z</time></trkpt><trkpt lat="43.282381077320096" lon="10.748276805464995"><ele>417.0</ele><time>2026-04-12T09:01:43Z</time></trkpt><trkpt lat="43.282330345726606" lon="10.748406454339088"><ele>417.0</ele><time>2026-04-12T09:01:45Z</time></trkpt><trkpt lat="43.282297173686985" lon="10.74850656967796"><ele>417.0</ele><time>2026-04-12T09:01:47Z</time></trkpt><trkpt lat="43.28232448573324" lon="10.748632835612892"><ele>417.0</ele><time>2026-04-12T09:01:49Z</time></trkpt><trkpt lat="43.282356518510404" lon="10.748762340176054"><ele>417.5</ele><time>2026-04-12T09:01:50.999Z</time></trkpt><trkpt lat="43.28238378122541" lon="10.74888118597319"><ele>418.0</ele><time>2026-04-12T09:01:52.999Z</time></trkpt><trkpt lat="43.28236938169479" lon="10.748967787853465"><ele>418.5</ele><time>2026-04-12T09:01:54.999Z</time></trkpt><trkpt lat="43.28233074254801" lon="10.749043702717533"><ele>419.0</ele><time>2026-04-12T09:01:56.999Z</time></trkpt><trkpt lat="43.28224049966867" lon="10.749101300977165"><ele>419.5</ele><time>2026-04-12T09:01:58.999Z</time></trkpt><trkpt lat="43.28211740654782" lon="10.749120569115627"><ele>420.0</ele><time>2026-04-12T09:02:00.999Z</time></trkpt><trkpt lat="43.28201552511511" lon="10.749112150710285"><ele>420.0</ele><time>2026-04-12T09:02:02.999Z</time></trkpt><trkpt lat="43.28191994544739" lon="10.749152482796244"><ele>420.0</ele><time>2026-04-12T09:02:04.999Z</time></trkpt><trkpt lat="43.281828635589804" lon="10.749243395696496"><ele>420.0</ele><time>2026-04-12T09:02:06.999Z</time></trkpt><trkpt lat="43.28179586301197" lon="10.749383406117403"><ele>420.0</ele><time>2026-04-12T09:02:08.999Z</time></trkpt><trkpt lat="43.28172856096729" lon="10.749514603403968"><ele>420.0</ele><time>2026-04-12T09:02:10.999Z</time></trkpt><trkpt lat="43.28167384248659" lon="10.74964585659081"><ele>422.0</ele><time>2026-04-12T09:02:12.999Z</time></trkpt><trkpt lat="43.28163131562371" lon="10.749788288876886"><ele>424.0</ele><time>2026-04-12T09:02:14.999Z</time></trkpt><trkpt lat="43.28160419087703" lon="10.74986843840193"><ele>426.0</ele><time>2026-04-12T09:02:15.999Z</time></trkpt><trkpt lat="43.28158799797836" lon="10.749955372310627"><ele>428.0</ele><time>2026-04-12T09:02:16.999Z</time></trkpt><trkpt lat="43.28156575721143" lon="10.750038749143295"><ele>430.0</ele><time>2026-04-12T09:02:17.999Z</time></trkpt><trkpt lat="43.281556864734995" lon="10.75018842744477"><ele>432.0</ele><time>2026-04-12T09:02:19.999Z</time></trkpt><trkpt lat="43.28159898715792" lon="10.750344707746972"><ele>433.0</ele><time>2026-04-12T09:02:21.999Z</time></trkpt><trkpt lat="43.281656767559326" lon="10.750471935627578"><ele>434.00000000000006</ele><time>2026-04-12T09:02:23.999Z</time></trkpt><trkpt lat="43.28170712604326" lon="10.750601476909603"><ele>435.00000000000006</ele><time>2026-04-12T09:02:25.999Z</time></trkpt><trkpt lat="43.28175415877193" lon="10.75069111512102"><ele>436.0</ele><time>2026-04-12T09:02:27.999Z</time></trkpt><trkpt lat="43.28180040523916" lon="10.750763460853445"><ele>437.0</ele><time>2026-04-12T09:02:29.999Z</time></trkpt><trkpt lat="43.281791163465286" lon="10.750894520217543"><ele>438.0</ele><time>2026-04-12T09:02:31.999Z</time></trkpt><trkpt lat="43.28176551045243" lon="10.751045034392503"><ele>439.00000000000006</ele><time>2026-04-12T09:02:33.999Z</time></trkpt><trkpt lat="43.281764181451344" lon="10.751189125200565"><ele>440.00000000000006</ele><time>2026-04-12T09:02:35.999Z</time></trkpt><trkpt lat="43.28174537808854" lon="10.751351077760198"><ele>441.0</ele><time>2026-04-12T09:02:37.999Z</time></trkpt><trkpt lat="43.2817458382703" lon="10.75148262711081"><ele>442.0</ele><time>2026-04-12T09:02:39.999Z</time></trkpt><trkpt lat="43.28172847320686" lon="10.751590486665766"><ele>442.00000000000006</ele><time>2026-04-12T09:02:41.999Z</time></trkpt><trkpt lat="43.28171178038349" lon="10.751698735103114"><ele>442.0</ele><time>2026-04-12T09:02:51.998Z</time></trkpt><trkpt lat="43.28166988678226" lon="10.75179910239563"><ele>442.0</ele><time>2026-04-12T09:02:53.998Z</time></trkpt><trkpt lat="43.28161512718142" lon="10.751911842727974"><ele>442.0</ele><time>2026-04-12T09:02:55.998Z</time></trkpt><trkpt lat="43.281560914431275" lon="10.75197529515028"><ele>442.00000000000006</ele><time>2026-04-12T09:02:57.998Z</time></trkpt><trkpt lat="43.28150307568383" lon="10.7520318980644"><ele>442.0</ele><time>2026-04-12T09:02:59.998Z</time></trkpt><trkpt lat="43.28141725473334" lon="10.752075924348985"><ele>443.8</ele><time>2026-04-12T09:03:01.998Z</time></trkpt><trkpt lat="43.28132345518275" lon="10.752125606466663"><ele>445.6</ele><time>2026-04-12T09:03:03.998Z</time></trkpt><trkpt lat="43.281223811325646" lon="10.752139657685504"><ele>447.40000000000003</ele><time>2026-04-12T09:03:05.998Z</time></trkpt><trkpt lat="43.281113372055586" lon="10.75214438186544"><ele>449.20000000000005</ele><time>2026-04-12T09:03:07.998Z</time></trkpt><trkpt lat="43.28104971451781" lon="10.752158870648458"><ele>451.0</ele><time>2026-04-12T09:03:08.998Z</time></trkpt><trkpt lat="43.280919206503064" lon="10.752167373693743"><ele>451.0</ele><time>2026-04-12T09:03:10.998Z</time></trkpt><trkpt lat="43.280849094276824" lon="10.752166717272484"><ele>451.0</ele><time>2026-04-12T09:03:11.998Z</time></trkpt><trkpt lat="43.28077735404702" lon="10.75217889863122"><ele>451.0</ele><time>2026-04-12T09:03:12.998Z</time></trkpt><trkpt lat="43.280694201810284" lon="10.75216827543293"><ele>451.0</ele><time>2026-04-12T09:03:13.998Z</time></trkpt><trkpt lat="43.28062115620445" lon="10.752188198733267"><ele>451.0</ele><time>2026-04-12T09:03:14.998Z</time></trkpt><trkpt lat="43.28056205239477" lon="10.752219926764539"><ele>451.0</ele><time>2026-04-12T09:03:15.998Z</time></trkpt><trkpt lat="43.280500067196726" lon="10.752255546384108"><ele>451.0</ele><time>2026-04-12T09:03:17Z</time></trkpt><trkpt lat="43.28044337872956" lon="10.752300412237602"><ele>451.20000000000005</ele><time>2026-04-12T09:03:18Z</time></trkpt><trkpt lat="43.28036755505838" lon="10.752330306746153"><ele>451.40000000000003</ele><time>2026-04-12T09:03:19Z</time></trkpt><trkpt lat="43.280254233728" lon="10.75235057104034"><ele>451.6</ele><time>2026-04-12T09:03:21Z</time></trkpt><trkpt lat="43.28014941804798" lon="10.752364923493138"><ele>451.8</ele><time>2026-04-12T09:03:23Z</time></trkpt><trkpt lat="43.280019808242756" lon="10.752424963661651"><ele>452.0</ele><time>2026-04-12T09:03:25Z</time></trkpt><trkpt lat="43.279925955361826" lon="10.752497920475138"><ele>452.0</ele><time>2026-04-12T09:03:27Z</time></trkpt><trkpt lat="43.27986525038055" lon="10.752618117858987"><ele>452.00000000000006</ele><time>2026-04-12T09:03:29Z</time></trkpt><trkpt lat="43.27984678842216" lon="10.752709506918123"><ele>452.00000000000006</ele><time>2026-04-12T09:03:30Z</time></trkpt><trkpt lat="43.27983147797344" lon="10.75287378422917"><ele>452.0</ele><time>2026-04-12T09:03:32Z</time></trkpt><trkpt lat="43.27982275057949" lon="10.752962035341827"><ele>452.0</ele><time>2026-04-12T09:03:33Z</time></trkpt><trkpt lat="43.279806519793425" lon="10.753121950639441"><ele>451.49999999999994</ele><time>2026-04-12T09:03:35Z</time></trkpt><trkpt lat="43.279780874819785" lon="10.753208648860982"><ele>451.0</ele><time>2026-04-12T09:03:36Z</time></trkpt><trkpt lat="43.27974843320296" lon="10.753319580258662"><ele>450.5</ele><time>2026-04-12T09:03:37Z</time></trkpt><trkpt lat="43.279719004636185" lon="10.753415833017623"><ele>450.0</ele><time>2026-04-12T09:03:38Z</time></trkpt><trkpt lat="43.27968889985322" lon="10.753512395891878"><ele>449.49999999999994</ele><time>2026-04-12T09:03:39Z</time></trkpt><trkpt lat="43.279659833509434" lon="10.75360801967218"><ele>449.0</ele><time>2026-04-12T09:03:40Z</time></trkpt><trkpt lat="43.27963400721366" lon="10.753694076297684"><ele>449.99999999999994</ele><time>2026-04-12T09:03:41Z</time></trkpt><trkpt lat="43.27961456130756" lon="10.753788352539528"><ele>451.0</ele><time>2026-04-12T09:03:42Z</time></trkpt><trkpt lat="43.27959787567441" lon="10.753884998841736"><ele>452.0</ele><time>2026-04-12T09:03:43Z</time></trkpt><trkpt lat="43.27958271812721" lon="10.753972400136377"><ele>453.0</ele><time>2026-04-12T09:03:44Z</time></trkpt><trkpt lat="43.27956515366977" lon="10.75406460360352"><ele>453.99999999999994</ele><time>2026-04-12T09:03:45Z</time></trkpt><trkpt lat="43.27955246273994" lon="10.754158889923868"><ele>455.0</ele><time>2026-04-12T09:03:46Z</time></trkpt><trkpt lat="43.27954366529913" lon="10.754315287669185"><ele>455.6</ele><time>2026-04-12T09:03:48Z</time></trkpt><trkpt lat="43.27950996473158" lon="10.75445600422791"><ele>456.2</ele><time>2026-04-12T09:03:50Z</time></trkpt><trkpt lat="43.27943792537651" lon="10.754597103354184"><ele>456.79999999999995</ele><time>2026-04-12T09:03:52Z</time></trkpt><trkpt lat="43.279374806161336" lon="10.754648376114465"><ele>457.4</ele><time>2026-04-12T09:03:53Z</time></trkpt><trkpt lat="43.279319902266714" lon="10.754709474727914"><ele>458.0</ele><time>2026-04-12T09:03:54Z</time></trkpt><trkpt lat="43.279230601361185" lon="10.754825369229758"><ele>458.0</ele><time>2026-04-12T09:03:56Z</time></trkpt><trkpt lat="43.279143257371246" lon="10.754935084785702"><ele>457.99999999999994</ele><time>2026-04-12T09:03:57.999Z</time></trkpt><trkpt lat="43.279100765676716" lon="10.755074203088931"><ele>457.99999999999994</ele><time>2026-04-12T09:03:59.999Z</time></trkpt><trkpt lat="43.27909856327785" lon="10.75524789522317"><ele>458.0</ele><time>2026-04-12T09:04:01.999Z</time></trkpt><trkpt lat="43.27910871755152" lon="10.755336606835295"><ele>458.0</ele><time>2026-04-12T09:04:02.999Z</time></trkpt><trkpt lat="43.2791245407075" lon="10.75542413970602"><ele>458.59999999999997</ele><time>2026-04-12T09:04:03.999Z</time></trkpt><trkpt lat="43.27914472701395" lon="10.755510078270573"><ele>459.19999999999993</ele><time>2026-04-12T09:04:04.999Z</time></trkpt><trkpt lat="43.27914915017076" lon="10.755608921657371"><ele>459.8</ele><time>2026-04-12T09:04:05.999Z</time></trkpt><trkpt lat="43.27917191632623" lon="10.75575950213382"><ele>460.4</ele><time>2026-04-12T09:04:07.999Z</time></trkpt><trkpt lat="43.279148550828005" lon="10.755894786695926"><ele>461.0</ele><time>2026-04-12T09:04:09.999Z</time></trkpt><trkpt lat="43.27908754121921" lon="10.75603209386124"><ele>461.0</ele><time>2026-04-12T09:04:11.999Z</time></trkpt><trkpt lat="43.27906664741062" lon="10.756121366181729"><ele>461.0</ele><time>2026-04-12T09:04:12.999Z</time></trkpt><trkpt lat="43.27902479766451" lon="10.756258544388048"><ele>461.0</ele><time>2026-04-12T09:04:14.999Z</time></trkpt><trkpt lat="43.27897443243481" lon="10.756403688567893"><ele>461.0</ele><time>2026-04-12T09:04:16.999Z</time></trkpt><trkpt lat="43.27890878652917" lon="10.756511189930693"><ele>461.0</ele><time>2026-04-12T09:04:18.999Z</time></trkpt><trkpt lat="43.27882796491638" lon="10.7565244890944"><ele>461.8</ele><time>2026-04-12T09:04:20.999Z</time></trkpt><trkpt lat="43.278750979804485" lon="10.7564638632864"><ele>462.6</ele><time>2026-04-12T09:04:22.999Z</time></trkpt><trkpt lat="43.27868349594022" lon="10.756360628060765"><ele>463.4</ele><time>2026-04-12T09:04:24.999Z</time></trkpt><trkpt lat="43.278627552153566" lon="10.756224064590276"><ele>464.2</ele><time>2026-04-12T09:04:26.999Z</time></trkpt><trkpt lat="43.27857665797208" lon="10.75610257239341"><ele>465.0</ele><time>2026-04-12T09:04:28.999Z</time></trkpt><trkpt lat="43.27852712657171" lon="10.75598365698066"><ele>465.4</ele><time>2026-04-12T09:04:30.999Z</time></trkpt><trkpt lat="43.27845035920993" lon="10.755838269590653"><ele>465.8</ele><time>2026-04-12T09:04:32.999Z</time></trkpt><trkpt lat="43.27842242933524" lon="10.755756005827372"><ele>466.20000000000005</ele><time>2026-04-12T09:04:33.999Z</time></trkpt><trkpt lat="43.278342703039804" lon="10.755666141941578"><ele>466.6</ele><time>2026-04-12T09:04:35.999Z</time></trkpt><trkpt lat="43.27825320024118" lon="10.755612926327549"><ele>467.0</ele><time>2026-04-12T09:04:37.999Z</time></trkpt><trkpt lat="43.278145304693155" lon="10.75560919269619"><ele>468.6</ele><time>2026-04-12T09:04:39.999Z</time></trkpt><trkpt lat="43.27804755498778" lon="10.755695239897838"><ele>470.20000000000005</ele><time>2026-04-12T09:04:41.999Z</time></trkpt><trkpt lat="43.277974885353075" lon="10.755833020859592"><ele>471.8</ele><time>2026-04-12T09:04:43.999Z</time></trkpt><trkpt lat="43.277926010550274" lon="10.755971568532283"><ele>473.4</ele><time>2026-04-12T09:04:45.999Z</time></trkpt><trkpt lat="43.277882911392" lon="10.75608294068573"><ele>475.0</ele><time>2026-04-12T09:04:47.999Z</time></trkpt><trkpt lat="43.2778331882032" lon="10.756199203415267"><ele>475.0</ele><time>2026-04-12T09:04:49.999Z</time></trkpt><trkpt lat="43.27778045711364" lon="10.756320021887023"><ele>475.0</ele><time>2026-04-12T09:04:51.999Z</time></trkpt><trkpt lat="43.277700403938596" lon="10.756430029812014"><ele>475.0</ele><time>2026-04-12T09:04:53.999Z</time></trkpt><trkpt lat="43.27761947292065" lon="10.75654108428848"><ele>475.0</ele><time>2026-04-12T09:04:55.999Z</time></trkpt><trkpt lat="43.27752490233512" lon="10.756639981593334"><ele>475.0</ele><time>2026-04-12T09:04:57.999Z</time></trkpt><trkpt lat="43.27746833141237" lon="10.756680976365917"><ele>475.00000000000006</ele><time>2026-04-12T09:04:58.999Z</time></trkpt><trkpt lat="43.27735570626043" lon="10.756746282897348"><ele>475.0</ele><time>2026-04-12T09:05:00.998Z</time></trkpt><trkpt lat="43.27729359161466" lon="10.756770019535153"><ele>475.0</ele><time>2026-04-12T09:05:01.998Z</time></trkpt><trkpt lat="43.27723048073137" lon="10.756790928714707"><ele>475.0</ele><time>2026-04-12T09:05:02.998Z</time></trkpt><trkpt lat="43.27715388569598" lon="10.756823693635283"><ele>475.00000000000006</ele><time>2026-04-12T09:05:03.998Z</time></trkpt><trkpt lat="43.27706493581695" lon="10.756859514479917"><ele>475.0</ele><time>2026-04-12T09:05:04.998Z</time></trkpt><trkpt lat="43.27696704277214" lon="10.756882020856036"><ele>475.1666666666667</ele><time>2026-04-12T09:05:05.998Z</time></trkpt><trkpt lat="43.27689053082801" lon="10.756911642785072"><ele>475.33333333333337</ele><time>2026-04-12T09:05:06.998Z</time></trkpt><trkpt lat="43.276768177679465" lon="10.756943145650556"><ele>475.5</ele><time>2026-04-12T09:05:08.998Z</time></trkpt><trkpt lat="43.27670123877455" lon="10.756956445415955"><ele>475.66666666666663</ele><time>2026-04-12T09:05:09.998Z</time></trkpt><trkpt lat="43.276636169762966" lon="10.75695597698611"><ele>475.8333333333333</ele><time>2026-04-12T09:05:10.998Z</time></trkpt><trkpt lat="43.27656993501566" lon="10.756948916484951"><ele>476.0</ele><time>2026-04-12T09:05:11.998Z</time></trkpt><trkpt lat="43.27650686084123" lon="10.756948471997068"><ele>479.25</ele><time>2026-04-12T09:05:12.998Z</time></trkpt><trkpt lat="43.27640424948446" lon="10.75698298077959"><ele>482.5</ele><time>2026-04-12T09:05:14.998Z</time></trkpt><trkpt lat="43.276309389588526" lon="10.757110735608068"><ele>485.75</ele><time>2026-04-12T09:05:16.998Z</time></trkpt><trkpt lat="43.27626022156886" lon="10.75722322897235"><ele>489.0</ele><time>2026-04-12T09:05:17.998Z</time></trkpt><trkpt lat="43.27619931636886" lon="10.757368516465847"><ele>489.0</ele><time>2026-04-12T09:05:18.998Z</time></trkpt><trkpt lat="43.276146132069485" lon="10.757480966778623"><ele>489.0</ele><time>2026-04-12T09:05:19.998Z</time></trkpt><trkpt lat="43.276102829391824" lon="10.757551612761866"><ele>489.0</ele><time>2026-04-12T09:05:20.998Z</time></trkpt><trkpt lat="43.27605424920844" lon="10.75770802111587"><ele>489.0</ele><time>2026-04-12T09:05:23Z</time></trkpt><trkpt lat="43.27604644266222" lon="10.757805614909408"><ele>489.0</ele><time>2026-04-12T09:05:24Z</time></trkpt><trkpt lat="43.2760425075381" lon="10.757908403813289"><ele>489.0</ele><time>2026-04-12T09:05:25Z</time></trkpt><trkpt lat="43.27602794919054" lon="10.758017482454767"><ele>489.0</ele><time>2026-04-12T09:05:26Z</time></trkpt><trkpt lat="43.276018640927326" lon="10.75812868311411"><ele>489.0</ele><time>2026-04-12T09:05:27Z</time></trkpt><trkpt lat="43.276008910879426" lon="10.75824231131138"><ele>489.0</ele><time>2026-04-12T09:05:28Z</time></trkpt><trkpt lat="43.27600663446519" lon="10.758358927130695"><ele>489.0</ele><time>2026-04-12T09:05:29Z</time></trkpt><trkpt lat="43.27599957729571" lon="10.758469665630766"><ele>489.0</ele><time>2026-04-12T09:05:30Z</time></trkpt><trkpt lat="43.27599063911565" lon="10.758559300116998"><ele>489.0</ele><time>2026-04-12T09:05:31Z</time></trkpt><trkpt lat="43.27596157606174" lon="10.758696292047908"><ele>488.8333333333333</ele><time>2026-04-12T09:05:33Z</time></trkpt><trkpt lat="43.27590081834748" lon="10.758800662123162"><ele>488.66666666666663</ele><time>2026-04-12T09:05:35Z</time></trkpt><trkpt lat="43.27578924266104" lon="10.758848758695029"><ele>488.5</ele><time>2026-04-12T09:05:37Z</time></trkpt><trkpt lat="43.27572659305047" lon="10.758820626530518"><ele>488.3333333333333</ele><time>2026-04-12T09:05:38Z</time></trkpt><trkpt lat="43.27566267918735" lon="10.758799654341935"><ele>488.16666666666663</ele><time>2026-04-12T09:05:39Z</time></trkpt><trkpt lat="43.275594283612065" lon="10.758794237189948"><ele>488.0</ele><time>2026-04-12T09:05:40Z</time></trkpt><trkpt lat="43.27552438785623" lon="10.758764411735836"><ele>488.8333333333333</ele><time>2026-04-12T09:05:41Z</time></trkpt><trkpt lat="43.27545778242229" lon="10.758723755966017"><ele>489.66666666666663</ele><time>2026-04-12T09:05:42Z</time></trkpt><trkpt lat="43.275397551512086" lon="10.758671309075675"><ele>490.5</ele><time>2026-04-12T09:05:43Z</time></trkpt><trkpt lat="43.275296761519996" lon="10.758590688200496"><ele>491.33333333333337</ele><time>2026-04-12T09:05:45Z</time></trkpt><trkpt lat="43.27519086710639" lon="10.758581921254772"><ele>492.1666666666667</ele><time>2026-04-12T09:05:47Z</time></trkpt><trkpt lat="43.27513167657974" lon="10.758611728881634"><ele>493.0</ele><time>2026-04-12T09:05:48Z</time></trkpt><trkpt lat="43.275075596925134" lon="10.758669400525642"><ele>493.00000000000006</ele><time>2026-04-12T09:05:49Z</time></trkpt><trkpt lat="43.27502707230389" lon="10.75875266629896"><ele>493.0</ele><time>2026-04-12T09:05:50Z</time></trkpt><trkpt lat="43.274986599049406" lon="10.75883413081982"><ele>493.0</ele><time>2026-04-12T09:05:51Z</time></trkpt><trkpt lat="43.2749422392034" lon="10.758902865785796"><ele>493.0</ele><time>2026-04-12T09:05:52Z</time></trkpt><trkpt lat="43.27485834217978" lon="10.758983128363203"><ele>493.00000000000006</ele><time>2026-04-12T09:05:54Z</time></trkpt><trkpt lat="43.274769525155314" lon="10.75895530934168"><ele>493.0</ele><time>2026-04-12T09:05:56Z</time></trkpt><trkpt lat="43.27466990881978" lon="10.758916599104609"><ele>493.4</ele><time>2026-04-12T09:05:58Z</time></trkpt><trkpt lat="43.27460590338574" lon="10.75889137550609"><ele>493.79999999999995</ele><time>2026-04-12T09:05:59Z</time></trkpt><trkpt lat="43.27449339450763" lon="10.758886295671408"><ele>494.2</ele><time>2026-04-12T09:06:01Z</time></trkpt><trkpt lat="43.274395614634166" lon="10.758919579552616"><ele>494.6</ele><time>2026-04-12T09:06:03Z</time></trkpt><trkpt lat="43.274285914804736" lon="10.758967051042253"><ele>495.0</ele><time>2026-04-12T09:06:05Z</time></trkpt><trkpt lat="43.27417441358814" lon="10.759038654181706"><ele>495.0</ele><time>2026-04-12T09:06:07Z</time></trkpt><trkpt lat="43.274111536944226" lon="10.759048498551927"><ele>495.0</ele><time>2026-04-12T09:06:08Z</time></trkpt><trkpt lat="43.27399917085954" lon="10.759088197027648"><ele>495.0</ele><time>2026-04-12T09:06:09.999Z</time></trkpt><trkpt lat="43.27388584996089" lon="10.759122930011827"><ele>495.0</ele><time>2026-04-12T09:06:11.999Z</time></trkpt><trkpt lat="43.27382216445034" lon="10.759159764079829"><ele>495.0</ele><time>2026-04-12T09:06:12.999Z</time></trkpt><trkpt lat="43.27375829596678" lon="10.759162558916389"><ele>495.0</ele><time>2026-04-12T09:06:13.999Z</time></trkpt><trkpt lat="43.273692893213074" lon="10.759181677727614"><ele>494.6</ele><time>2026-04-12T09:06:14.999Z</time></trkpt><trkpt lat="43.27359750821758" lon="10.75925450785949"><ele>494.2</ele><time>2026-04-12T09:06:16.999Z</time></trkpt><trkpt lat="43.27352044052117" lon="10.75931984172896"><ele>493.79999999999995</ele><time>2026-04-12T09:06:18.999Z</time></trkpt><trkpt lat="43.273425618207895" lon="10.759363942507905"><ele>493.4</ele><time>2026-04-12T09:06:20.999Z</time></trkpt><trkpt lat="43.27334345243193" lon="10.759474801006213"><ele>493.0</ele><time>2026-04-12T09:06:22.999Z</time></trkpt><trkpt lat="43.27327870490566" lon="10.759600342974494"><ele>493.0</ele><time>2026-04-12T09:06:24.999Z</time></trkpt><trkpt lat="43.27323695008806" lon="10.75966709774335"><ele>492.99999999999994</ele><time>2026-04-12T09:06:25.999Z</time></trkpt><trkpt lat="43.27318780286727" lon="10.75972757733219"><ele>492.99999999999994</ele><time>2026-04-12T09:06:26.999Z</time></trkpt><trkpt lat="43.273098740550914" lon="10.759825817608911"><ele>493.0</ele><time>2026-04-12T09:06:28.999Z</time></trkpt><trkpt lat="43.273025305054844" lon="10.759932400382562"><ele>493.0</ele><time>2026-04-12T09:06:30.999Z</time></trkpt><trkpt lat="43.27294483902913" lon="10.760029609496991"><ele>491.0</ele><time>2026-04-12T09:06:32.999Z</time></trkpt><trkpt lat="43.27285735241543" lon="10.760116090851236"><ele>488.99999999999994</ele><time>2026-04-12T09:06:34.999Z</time></trkpt><trkpt lat="43.27275408734367" lon="10.7601589107635"><ele>486.99999999999994</ele><time>2026-04-12T09:06:36.999Z</time></trkpt><trkpt lat="43.27264719589249" lon="10.760161660685366"><ele>485.0</ele><time>2026-04-12T09:06:38.999Z</time></trkpt><trkpt lat="43.27253513338046" lon="10.76013444493231"><ele>483.0</ele><time>2026-04-12T09:06:40.999Z</time></trkpt><trkpt lat="43.27240903965475" lon="10.760084096494394"><ele>483.0</ele><time>2026-04-12T09:06:42.999Z</time></trkpt><trkpt lat="43.272340114352424" lon="10.760061008081637"><ele>482.99999999999994</ele><time>2026-04-12T09:06:43.999Z</time></trkpt><trkpt lat="43.272275147909895" lon="10.760044619380464"><ele>482.99999999999994</ele><time>2026-04-12T09:06:44.999Z</time></trkpt><trkpt lat="43.27215560942418" lon="10.760042577680839"><ele>483.0</ele><time>2026-04-12T09:06:46.999Z</time></trkpt><trkpt lat="43.27204177798663" lon="10.760077486394582"><ele>483.0</ele><time>2026-04-12T09:06:48.999Z</time></trkpt><trkpt lat="43.271949296916624" lon="10.76016430768367"><ele>481.4</ele><time>2026-04-12T09:06:50.999Z</time></trkpt><trkpt lat="43.27190329864891" lon="10.76022774808947"><ele>479.79999999999995</ele><time>2026-04-12T09:06:51.999Z</time></trkpt><trkpt lat="43.27186081416415" lon="10.760294367216234"><ele>478.2</ele><time>2026-04-12T09:06:52.999Z</time></trkpt><trkpt lat="43.271804700129074" lon="10.760418048589633"><ele>476.6</ele><time>2026-04-12T09:06:54.999Z</time></trkpt><trkpt lat="43.27174718072161" lon="10.760546880814715"><ele>475.0</ele><time>2026-04-12T09:06:56.999Z</time></trkpt><trkpt lat="43.271741988667685" lon="10.76070218514248"><ele>475.00000000000006</ele><time>2026-04-12T09:06:58.999Z</time></trkpt><trkpt lat="43.27171249937882" lon="10.760847546821955"><ele>475.0</ele><time>2026-04-12T09:07:00.999Z</time></trkpt><trkpt lat="43.27167878220604" lon="10.760959268370174"><ele>475.0</ele><time>2026-04-12T09:07:02.999Z</time></trkpt><trkpt lat="43.27164936523768" lon="10.76106842063697"><ele>475.0</ele><time>2026-04-12T09:07:04.999Z</time></trkpt><trkpt lat="43.27161289875405" lon="10.761157134078411"><ele>475.00000000000006</ele><time>2026-04-12T09:07:06.999Z</time></trkpt><trkpt lat="43.271548409416695" lon="10.761221784861707"><ele>475.0</ele><time>2026-04-12T09:07:08.999Z</time></trkpt><trkpt lat="43.271459541971694" lon="10.761262549960323"><ele>472.2</ele><time>2026-04-12T09:07:10.999Z</time></trkpt><trkpt lat="43.27136313878189" lon="10.761289072966001"><ele>469.4</ele><time>2026-04-12T09:07:12.998Z</time></trkpt><trkpt lat="43.27126028219024" lon="10.761293394476136"><ele>466.6</ele><time>2026-04-12T09:07:14.998Z</time></trkpt><trkpt lat="43.27115805387973" lon="10.761292091227727"><ele>463.8</ele><time>2026-04-12T09:07:16.998Z</time></trkpt><trkpt lat="43.27105642244713" lon="10.76129190216184"><ele>461.0</ele><time>2026-04-12T09:07:18.998Z</time></trkpt><trkpt lat="43.27095582380766" lon="10.761276977921495"><ele>460.99999999999994</ele><time>2026-04-12T09:07:20.998Z</time></trkpt><trkpt lat="43.2708793539127" lon="10.761236757116118"><ele>461.0</ele><time>2026-04-12T09:07:22.998Z</time></trkpt><trkpt lat="43.27083025726009" lon="10.7611780765901"><ele>461.0</ele><time>2026-04-12T09:07:24.998Z</time></trkpt><trkpt lat="43.27079413657474" lon="10.761082508875775"><ele>461.0</ele><time>2026-04-12T09:07:26.998Z</time></trkpt><trkpt lat="43.27078338818298" lon="10.76097766624022"><ele>460.99999999999994</ele><time>2026-04-12T09:07:29Z</time></trkpt><trkpt lat="43.27080377729199" lon="10.760846834420958"><ele>461.0</ele><time>2026-04-12T09:07:31Z</time></trkpt><trkpt lat="43.270790285821526" lon="10.76070088338776"><ele>461.0</ele><time>2026-04-12T09:07:33Z</time></trkpt><trkpt lat="43.27079058350226" lon="10.760544151152702"><ele>461.0</ele><time>2026-04-12T09:07:35Z</time></trkpt><trkpt lat="43.27080194874118" lon="10.760383354585032"><ele>461.0</ele><time>2026-04-12T09:07:37Z</time></trkpt><trkpt lat="43.270813333565854" lon="10.760226053836702"><ele>461.0</ele><time>2026-04-12T09:07:39Z</time></trkpt><trkpt lat="43.27082235773057" lon="10.76013975662604"><ele>461.0</ele><time>2026-04-12T09:07:40Z</time></trkpt><trkpt lat="43.27085279486337" lon="10.759982106115828"><ele>461.0</ele><time>2026-04-12T09:07:42Z</time></trkpt><trkpt lat="43.270856240597574" lon="10.75982159666877"><ele>461.0</ele><time>2026-04-12T09:07:44Z</time></trkpt><trkpt lat="43.27084764944151" lon="10.759673920773846"><ele>461.0</ele><time>2026-04-12T09:07:46Z</time></trkpt><trkpt lat="43.27080349320208" lon="10.759528099137777"><ele>461.0</ele><time>2026-04-12T09:07:48Z</time></trkpt><trkpt lat="43.27075501749246" lon="10.759396158737436"><ele>461.0</ele><time>2026-04-12T09:07:50Z</time></trkpt><trkpt lat="43.27076568260404" lon="10.75926707620632"><ele>460.8</ele><time>2026-04-12T09:07:52Z</time></trkpt><trkpt lat="43.27081937434118" lon="10.759129420029408"><ele>460.6</ele><time>2026-04-12T09:07:54Z</time></trkpt><trkpt lat="43.270869544545704" lon="10.758996741344767"><ele>460.4</ele><time>2026-04-12T09:07:56Z</time></trkpt><trkpt lat="43.27089684875312" lon="10.758834201857784"><ele>460.2</ele><time>2026-04-12T09:07:58Z</time></trkpt><trkpt lat="43.270905937334476" lon="10.75874683741133"><ele>460.0</ele><time>2026-04-12T09:07:59Z</time></trkpt><trkpt lat="43.27092707079992" lon="10.758655637959276"><ele>459.0</ele><time>2026-04-12T09:08:00Z</time></trkpt><trkpt lat="43.27095133958737" lon="10.75848875128548"><ele>458.0</ele><time>2026-04-12T09:08:02Z</time></trkpt><trkpt lat="43.27096360274896" lon="10.758331730064588"><ele>457.0</ele><time>2026-04-12T09:08:04Z</time></trkpt><trkpt lat="43.2709283709017" lon="10.758180551338056"><ele>456.0</ele><time>2026-04-12T09:08:06Z</time></trkpt><trkpt lat="43.27085612968026" lon="10.758044502348204"><ele>456.0</ele><time>2026-04-12T09:08:08Z</time></trkpt><trkpt lat="43.270803925691695" lon="10.75791132696723"><ele>456.0</ele><time>2026-04-12T09:08:10Z</time></trkpt><trkpt lat="43.270777859391764" lon="10.757782859302077"><ele>456.0</ele><time>2026-04-12T09:08:12Z</time></trkpt><trkpt lat="43.270790861606855" lon="10.757659197208893"><ele>456.0</ele><time>2026-04-12T09:08:14Z</time></trkpt><trkpt lat="43.27078955536518" lon="10.757515898835576"><ele>456.0</ele><time>2026-04-12T09:08:15.999Z</time></trkpt><trkpt lat="43.27080863373046" lon="10.757375077749153"><ele>455.4</ele><time>2026-04-12T09:08:17.999Z</time></trkpt><trkpt lat="43.270781367225176" lon="10.757232066086813"><ele>454.8</ele><time>2026-04-12T09:08:19.999Z</time></trkpt><trkpt lat="43.27071140351617" lon="10.75711563509793"><ele>454.19999999999993</ele><time>2026-04-12T09:08:21.999Z</time></trkpt><trkpt lat="43.27061640767223" lon="10.757033348493135"><ele>453.59999999999997</ele><time>2026-04-12T09:08:23.999Z</time></trkpt><trkpt lat="43.27051514402103" lon="10.756972791810426"><ele>453.0</ele><time>2026-04-12T09:08:25.999Z</time></trkpt><trkpt lat="43.27041695816449" lon="10.756914006545852"><ele>451.0</ele><time>2026-04-12T09:08:27.999Z</time></trkpt><trkpt lat="43.270299564282894" lon="10.756868079614295"><ele>448.99999999999994</ele><time>2026-04-12T09:08:29.999Z</time></trkpt><trkpt lat="43.27018255356181" lon="10.756845137151256"><ele>446.99999999999994</ele><time>2026-04-12T09:08:31.999Z</time></trkpt><trkpt lat="43.27007795390002" lon="10.756831297023837"><ele>445.0</ele><time>2026-04-12T09:08:33.999Z</time></trkpt><trkpt lat="43.27001264341595" lon="10.756824938141818"><ele>443.0</ele><time>2026-04-12T09:08:34.999Z</time></trkpt><trkpt lat="43.269941956514614" lon="10.7568211106624"><ele>442.99999999999994</ele><time>2026-04-12T09:08:35.999Z</time></trkpt><trkpt lat="43.26987234876385" lon="10.756816692216958"><ele>443.0</ele><time>2026-04-12T09:08:36.999Z</time></trkpt><trkpt lat="43.2698049068571" lon="10.756814689940633"><ele>443.0</ele><time>2026-04-12T09:08:37.999Z</time></trkpt><trkpt lat="43.26974108718198" lon="10.756803712745375"><ele>443.0</ele><time>2026-04-12T09:08:38.999Z</time></trkpt><trkpt lat="43.26962792839066" lon="10.756755423846402"><ele>442.99999999999994</ele><time>2026-04-12T09:08:40.999Z</time></trkpt><trkpt lat="43.26956795943659" lon="10.756718537492828"><ele>443.0</ele><time>2026-04-12T09:08:41.999Z</time></trkpt><trkpt lat="43.269501864406166" lon="10.756674035094443"><ele>442.49999999999994</ele><time>2026-04-12T09:08:42.999Z</time></trkpt><trkpt lat="43.26943733565341" lon="10.756622735156153"><ele>442.0</ele><time>2026-04-12T09:08:43.999Z</time></trkpt><trkpt lat="43.26936764836126" lon="10.756569537494238"><ele>441.5</ele><time>2026-04-12T09:08:44.999Z</time></trkpt><trkpt lat="43.269294729387184" lon="10.756509511358939"><ele>441.0</ele><time>2026-04-12T09:08:45.999Z</time></trkpt><trkpt lat="43.26922274243863" lon="10.756454913409549"><ele>440.49999999999994</ele><time>2026-04-12T09:08:46.999Z</time></trkpt><trkpt lat="43.269158642644626" lon="10.756401708542837"><ele>440.0</ele><time>2026-04-12T09:08:47.999Z</time></trkpt><trkpt lat="43.269090975897754" lon="10.75634304780675"><ele>440.0</ele><time>2026-04-12T09:08:48.999Z</time></trkpt><trkpt lat="43.269017944857204" lon="10.756273599402986"><ele>440.0</ele><time>2026-04-12T09:08:49.999Z</time></trkpt><trkpt lat="43.2689488199898" lon="10.756200874424923"><ele>440.0</ele><time>2026-04-12T09:08:50.999Z</time></trkpt><trkpt lat="43.26887924406799" lon="10.756119201095578"><ele>440.0</ele><time>2026-04-12T09:08:51.999Z</time></trkpt><trkpt lat="43.26880826845311" lon="10.756040815069367"><ele>440.0</ele><time>2026-04-12T09:08:52.999Z</time></trkpt><trkpt lat="43.268746448810234" lon="10.755948595123135"><ele>440.49999999999994</ele><time>2026-04-12T09:08:53.999Z</time></trkpt><trkpt lat="43.268680784993336" lon="10.755886398080385"><ele>441.0</ele><time>2026-04-12T09:08:54.999Z</time></trkpt><trkpt lat="43.26862068346365" lon="10.755814888804533"><ele>441.5</ele><time>2026-04-12T09:08:55.999Z</time></trkpt><trkpt lat="43.268561809877106" lon="10.75574838555409"><ele>442.0</ele><time>2026-04-12T09:08:56.999Z</time></trkpt><trkpt lat="43.268504799639324" lon="10.75568368442211"><ele>442.49999999999994</ele><time>2026-04-12T09:08:57.999Z</time></trkpt><trkpt lat="43.26844396235657" lon="10.755612067811358"><ele>443.0</ele><time>2026-04-12T09:08:58.999Z</time></trkpt><trkpt lat="43.26838316193313" lon="10.75553461305533"><ele>442.99999999999994</ele><time>2026-04-12T09:08:59.999Z</time></trkpt><trkpt lat="43.26832401076095" lon="10.755456285519198"><ele>443.0</ele><time>2026-04-12T09:09:00.999Z</time></trkpt><trkpt lat="43.268281353752215" lon="10.755367336250748"><ele>443.0</ele><time>2026-04-12T09:09:01.999Z</time></trkpt><trkpt lat="43.26824298119599" lon="10.755278577398961"><ele>443.0</ele><time>2026-04-12T09:09:02.999Z</time></trkpt><trkpt lat="43.26820889225169" lon="10.755197297390431"><ele>442.99999999999994</ele><time>2026-04-12T09:09:03.999Z</time></trkpt><trkpt lat="43.26814790126153" lon="10.755063831463069"><ele>443.0</ele><time>2026-04-12T09:09:05.999Z</time></trkpt><trkpt lat="43.26804907737305" lon="10.754987215555579"><ele>442.8333333333333</ele><time>2026-04-12T09:09:07.999Z</time></trkpt><trkpt lat="43.26794870810665" lon="10.755005530326338"><ele>442.66666666666663</ele><time>2026-04-12T09:09:09.999Z</time></trkpt><trkpt lat="43.26785490833881" lon="10.755086151671893"><ele>442.5</ele><time>2026-04-12T09:09:11.999Z</time></trkpt><trkpt lat="43.26780305168962" lon="10.7551587747369"><ele>442.33333333333337</ele><time>2026-04-12T09:09:12.999Z</time></trkpt><trkpt lat="43.267750775653695" lon="10.755233697500183"><ele>442.1666666666667</ele><time>2026-04-12T09:09:13.999Z</time></trkpt><trkpt lat="43.267685691502074" lon="10.755277212162513"><ele>442.0</ele><time>2026-04-12T09:09:14.999Z</time></trkpt><trkpt lat="43.26762402676987" lon="10.755329054705618"><ele>442.00000000000006</ele><time>2026-04-12T09:09:15.999Z</time></trkpt><trkpt lat="43.26755603244618" lon="10.75537724485313"><ele>442.0</ele><time>2026-04-12T09:09:16.999Z</time></trkpt><trkpt lat="43.267485453623145" lon="10.755414742957695"><ele>442.0</ele><time>2026-04-12T09:09:17.999Z</time></trkpt><trkpt lat="43.2674121488798" lon="10.75543674264104"><ele>442.0</ele><time>2026-04-12T09:09:18.999Z</time></trkpt><trkpt lat="43.26734227104287" lon="10.755466324660384"><ele>442.0</ele><time>2026-04-12T09:09:19.999Z</time></trkpt><trkpt lat="43.267268918163516" lon="10.755440913584973"><ele>442.00000000000006</ele><time>2026-04-12T09:09:20.998Z</time></trkpt><trkpt lat="43.26720046637054" lon="10.755424945254724"><ele>442.0</ele><time>2026-04-12T09:09:21.998Z</time></trkpt><trkpt lat="43.26713379855252" lon="10.755398466106067"><ele>442.0</ele><time>2026-04-12T09:09:22.998Z</time></trkpt><trkpt lat="43.26706421930896" lon="10.755360420971803"><ele>442.00000000000006</ele><time>2026-04-12T09:09:23.998Z</time></trkpt><trkpt lat="43.266979560255415" lon="10.755335622851279"><ele>442.00000000000006</ele><time>2026-04-12T09:09:24.998Z</time></trkpt><trkpt lat="43.266890801169964" lon="10.755284272144708"><ele>442.0</ele><time>2026-04-12T09:09:25.998Z</time></trkpt><trkpt lat="43.26680179782458" lon="10.755222752722796"><ele>442.0</ele><time>2026-04-12T09:09:26.998Z</time></trkpt><trkpt lat="43.26670913919713" lon="10.75514596406284"><ele>442.00000000000006</ele><time>2026-04-12T09:09:27.998Z</time></trkpt><trkpt lat="43.266619303838844" lon="10.755071705672623"><ele>442.0</ele><time>2026-04-12T09:09:28.998Z</time></trkpt><trkpt lat="43.26654407845277" lon="10.755005896764906"><ele>442.0</ele><time>2026-04-12T09:09:29.998Z</time></trkpt><trkpt lat="43.2664719851861" lon="10.754951480760804"><ele>442.0</ele><time>2026-04-12T09:09:30.998Z</time></trkpt><trkpt lat="43.26640495399568" lon="10.754917491934455"><ele>442.00000000000006</ele><time>2026-04-12T09:09:31.998Z</time></trkpt><trkpt lat="43.26633928436948" lon="10.754889022604518"><ele>442.0</ele><time>2026-04-12T09:09:32.998Z</time></trkpt><trkpt lat="43.26627142868339" lon="10.754871587509038"><ele>443.8</ele><time>2026-04-12T09:09:33.998Z</time></trkpt><trkpt lat="43.266131164669" lon="10.754873745747954"><ele>445.6</ele><time>2026-04-12T09:09:36Z</time></trkpt><trkpt lat="43.26602382931299" lon="10.754884140535955"><ele>447.40000000000003</ele><time>2026-04-12T09:09:38Z</time></trkpt><trkpt lat="43.26594691718021" lon="10.754910130223054"><ele>449.20000000000005</ele><time>2026-04-12T09:09:40Z</time></trkpt><trkpt lat="43.2658683303895" lon="10.754937942266208"><ele>451.0</ele><time>2026-04-12T09:09:43Z</time></trkpt><trkpt lat="43.26580150350597" lon="10.754950927194379"><ele>451.0</ele><time>2026-04-12T09:09:59Z</time></trkpt><trkpt lat="43.26568279476999" lon="10.75495114316795"><ele>451.0</ele><time>2026-04-12T09:10:01Z</time></trkpt><trkpt lat="43.26555156952367" lon="10.754957580171949"><ele>451.0</ele><time>2026-04-12T09:10:03Z</time></trkpt><trkpt lat="43.26547338657638" lon="10.754983644629577"><ele>451.0</ele><time>2026-04-12T09:10:04Z</time></trkpt><trkpt lat="43.2654042628745" lon="10.755012013667507"><ele>451.0</ele><time>2026-04-12T09:10:05Z</time></trkpt><trkpt lat="43.2653045315784" lon="10.755048675125872"><ele>454.0</ele><time>2026-04-12T09:10:07Z</time></trkpt><trkpt lat="43.265220897171545" lon="10.755071698795774"><ele>457.0</ele><time>2026-04-12T09:10:09Z</time></trkpt><trkpt lat="43.26512330427833" lon="10.755086705650335"><ele>460.0</ele><time>2026-04-12T09:10:11Z</time></trkpt><trkpt lat="43.26497237207745" lon="10.755098488039232"><ele>463.0</ele><time>2026-04-12T09:10:14Z</time></trkpt><trkpt lat="43.26485620726131" lon="10.755054987006519"><ele>461.2</ele><time>2026-04-12T09:10:16Z</time></trkpt><trkpt lat="43.264749007965996" lon="10.754979167404224"><ele>459.4</ele><time>2026-04-12T09:10:17.999Z</time></trkpt><trkpt lat="43.26468680271373" lon="10.754943520706513"><ele>457.59999999999997</ele><time>2026-04-12T09:10:18.999Z</time></trkpt><trkpt lat="43.26458348122549" lon="10.754900499548066"><ele>455.79999999999995</ele><time>2026-04-12T09:10:20.999Z</time></trkpt><trkpt lat="43.26446135290355" lon="10.754892003188534"><ele>454.0</ele><time>2026-04-12T09:10:22.999Z</time></trkpt><trkpt lat="43.264388707773854" lon="10.75488695032791"><ele>454.00000000000006</ele><time>2026-04-12T09:10:23.999Z</time></trkpt><trkpt lat="43.26432151761676" lon="10.754873198259387"><ele>454.0</ele><time>2026-04-12T09:10:24.999Z</time></trkpt><trkpt lat="43.26424794221317" lon="10.754865103514081"><ele>454.0</ele><time>2026-04-12T09:10:25.999Z</time></trkpt><trkpt lat="43.264185397072474" lon="10.75484977644643"><ele>454.0</ele><time>2026-04-12T09:10:26.999Z</time></trkpt><trkpt lat="43.264081814087476" lon="10.754804721880996"><ele>454.00000000000006</ele><time>2026-04-12T09:10:28.999Z</time></trkpt><trkpt lat="43.26399579658354" lon="10.75474374045375"><ele>454.0</ele><time>2026-04-12T09:10:30.999Z</time></trkpt><trkpt lat="43.263915886144396" lon="10.754623847932832"><ele>452.4</ele><time>2026-04-12T09:10:32.999Z</time></trkpt><trkpt lat="43.263852637140126" lon="10.754487738867528"><ele>450.79999999999995</ele><time>2026-04-12T09:10:34.999Z</time></trkpt><trkpt lat="43.263794931032734" lon="10.75434059161466"><ele>449.20000000000005</ele><time>2026-04-12T09:10:36.999Z</time></trkpt><trkpt lat="43.26376969492225" lon="10.754246811609779"><ele>447.6</ele><time>2026-04-12T09:10:37.999Z</time></trkpt><trkpt lat="43.26374599440229" lon="10.754153124177503"><ele>446.0</ele><time>2026-04-12T09:10:38.999Z</time></trkpt><trkpt lat="43.26372360209927" lon="10.754053547207715"><ele>446.0</ele><time>2026-04-12T09:10:39.999Z</time></trkpt><trkpt lat="43.26370142114735" lon="10.753960379057608"><ele>446.0</ele><time>2026-04-12T09:10:40.999Z</time></trkpt><trkpt lat="43.2636770585175" lon="10.753874787556638"><ele>446.0</ele><time>2026-04-12T09:10:41.999Z</time></trkpt><trkpt lat="43.263644574115574" lon="10.753723914216197"><ele>446.0</ele><time>2026-04-12T09:10:43.999Z</time></trkpt><trkpt lat="43.2636167028635" lon="10.753583892447761"><ele>446.0</ele><time>2026-04-12T09:10:45.999Z</time></trkpt><trkpt lat="43.26342173100702" lon="10.75354292949467"><ele>448.20000000000005</ele><time>2026-04-12T09:10:47.999Z</time></trkpt><trkpt lat="43.263300348193376" lon="10.753510801272133"><ele>450.40000000000003</ele><time>2026-04-12T09:10:49.999Z</time></trkpt><trkpt lat="43.26316890921298" lon="10.753511366518852"><ele>452.6</ele><time>2026-04-12T09:10:51.999Z</time></trkpt><trkpt lat="43.26311139792949" lon="10.753474880566227"><ele>454.8</ele><time>2026-04-12T09:10:52.999Z</time></trkpt><trkpt lat="43.26304687320231" lon="10.753471372704317"><ele>457.0</ele><time>2026-04-12T09:10:53.999Z</time></trkpt><trkpt lat="43.2629802933974" lon="10.753451211576454"><ele>457.6</ele><time>2026-04-12T09:10:54.999Z</time></trkpt><trkpt lat="43.26286835430602" lon="10.753375158296434"><ele>458.20000000000005</ele><time>2026-04-12T09:10:56.999Z</time></trkpt><trkpt lat="43.262823871477785" lon="10.753305716084688"><ele>458.8</ele><time>2026-04-12T09:10:57.999Z</time></trkpt><trkpt lat="43.26272643147475" lon="10.753231189440374"><ele>459.4</ele><time>2026-04-12T09:10:59.999Z</time></trkpt><trkpt lat="43.26262931172158" lon="10.753169086056792"><ele>460.0</ele><time>2026-04-12T09:11:01.999Z</time></trkpt><trkpt lat="43.26252408476306" lon="10.753155275813336"><ele>460.0</ele><time>2026-04-12T09:11:03.999Z</time></trkpt><trkpt lat="43.26246433648892" lon="10.753191962294832"><ele>460.0</ele><time>2026-04-12T09:11:04.999Z</time></trkpt><trkpt lat="43.262370320553835" lon="10.753290885969951"><ele>460.0</ele><time>2026-04-12T09:11:06.999Z</time></trkpt><trkpt lat="43.26225799907949" lon="10.753274585284492"><ele>460.0</ele><time>2026-04-12T09:11:08.999Z</time></trkpt><trkpt lat="43.262182595172625" lon="10.753198018678564"><ele>460.0</ele><time>2026-04-12T09:11:10.999Z</time></trkpt><trkpt lat="43.26211282792699" lon="10.75316177566973"><ele>461.00000000000006</ele><time>2026-04-12T09:11:12.999Z</time></trkpt><trkpt lat="43.26204447289038" lon="10.753084759923155"><ele>462.0</ele><time>2026-04-12T09:11:14.999Z</time></trkpt><trkpt lat="43.26196150042214" lon="10.753024375264742"><ele>463.0</ele><time>2026-04-12T09:11:16.999Z</time></trkpt><trkpt lat="43.26189609592935" lon="10.753026061676938"><ele>464.0</ele><time>2026-04-12T09:11:17.999Z</time></trkpt><trkpt lat="43.26179944116562" lon="10.753041341089931"><ele>465.00000000000006</ele><time>2026-04-12T09:11:19.999Z</time></trkpt><trkpt lat="43.26174373126951" lon="10.753082474030338"><ele>466.0</ele><time>2026-04-12T09:11:20.999Z</time></trkpt><trkpt lat="43.261693166954515" lon="10.753134078708785"><ele>466.0</ele><time>2026-04-12T09:11:21.999Z</time></trkpt><trkpt lat="43.261631828917125" lon="10.753156766291516"><ele>466.0</ele><time>2026-04-12T09:11:22.998Z</time></trkpt><trkpt lat="43.26157134557917" lon="10.753230461336605"><ele>466.0</ele><time>2026-04-12T09:11:23.998Z</time></trkpt><trkpt lat="43.261504874100616" lon="10.75332811277263"><ele>466.0</ele><time>2026-04-12T09:11:25.998Z</time></trkpt><trkpt lat="43.26142251194661" lon="10.753420056904263"><ele>466.0</ele><time>2026-04-12T09:11:27.998Z</time></trkpt><trkpt lat="43.26133314053974" lon="10.753513495313046"><ele>464.4</ele><time>2026-04-12T09:11:29.998Z</time></trkpt><trkpt lat="43.261230575989295" lon="10.75355968283913"><ele>462.8</ele><time>2026-04-12T09:11:31.998Z</time></trkpt><trkpt lat="43.26110476929724" lon="10.753599172405634"><ele>461.19999999999993</ele><time>2026-04-12T09:11:33.998Z</time></trkpt><trkpt lat="43.26100451447244" lon="10.753642265990187"><ele>459.59999999999997</ele><time>2026-04-12T09:11:35.998Z</time></trkpt><trkpt lat="43.2609675677923" lon="10.75375743819815"><ele>458.0</ele><time>2026-04-12T09:11:37.998Z</time></trkpt><trkpt lat="43.26093488081185" lon="10.753845957951535"><ele>457.99999999999994</ele><time>2026-04-12T09:11:38.998Z</time></trkpt><trkpt lat="43.260897474072245" lon="10.753922920462896"><ele>458.0</ele><time>2026-04-12T09:11:39.998Z</time></trkpt><trkpt lat="43.260825742417396" lon="10.753989493905816"><ele>458.0</ele><time>2026-04-12T09:11:42Z</time></trkpt><trkpt lat="43.260728668478365" lon="10.754084716877559"><ele>458.0</ele><time>2026-04-12T09:11:44Z</time></trkpt><trkpt lat="43.26066602525374" lon="10.75410812958511"><ele>457.99999999999994</ele><time>2026-04-12T09:11:45Z</time></trkpt><trkpt lat="43.26060201653078" lon="10.754120327806842"><ele>458.0</ele><time>2026-04-12T09:11:46Z</time></trkpt><trkpt lat="43.26053967876034" lon="10.754137248086236"><ele>458.0</ele><time>2026-04-12T09:11:47Z</time></trkpt><trkpt lat="43.26047650258947" lon="10.754161221505566"><ele>458.0</ele><time>2026-04-12T09:11:48Z</time></trkpt><trkpt lat="43.26040804511452" lon="10.754159966617026"><ele>458.0</ele><time>2026-04-12T09:11:49Z</time></trkpt><trkpt lat="43.26033695082526" lon="10.754160262279521"><ele>458.0</ele><time>2026-04-12T09:11:50Z</time></trkpt><trkpt lat="43.26027330347028" lon="10.754134834917187"><ele>458.0</ele><time>2026-04-12T09:11:51Z</time></trkpt><trkpt lat="43.26020184969299" lon="10.754122703365454"><ele>458.0</ele><time>2026-04-12T09:11:52Z</time></trkpt><trkpt lat="43.26013476089038" lon="10.754081932508548"><ele>458.0</ele><time>2026-04-12T09:11:53Z</time></trkpt><trkpt lat="43.26006945689423" lon="10.754031531640436"><ele>457.99999999999994</ele><time>2026-04-12T09:11:54Z</time></trkpt><trkpt lat="43.26000819108853" lon="10.753993635095027"><ele>458.0</ele><time>2026-04-12T09:11:55Z</time></trkpt><trkpt lat="43.259946869765145" lon="10.753950044210809"><ele>458.0</ele><time>2026-04-12T09:11:56Z</time></trkpt><trkpt lat="43.25984136257" lon="10.753856795953189"><ele>458.0</ele><time>2026-04-12T09:11:58Z</time></trkpt><trkpt lat="43.25979424361704" lon="10.753797370103639"><ele>457.99999999999994</ele><time>2026-04-12T09:11:59Z</time></trkpt><trkpt lat="43.259734259639615" lon="10.753747123475417"><ele>458.0</ele><time>2026-04-12T09:12:00Z</time></trkpt><trkpt lat="43.25968323200331" lon="10.753672198372879"><ele>457.49999999999994</ele><time>2026-04-12T09:12:01Z</time></trkpt><trkpt lat="43.259635022234264" lon="10.753604512508565"><ele>457.0</ele><time>2026-04-12T09:12:02Z</time></trkpt><trkpt lat="43.25958397673476" lon="10.753534676506646"><ele>456.5</ele><time>2026-04-12T09:12:03Z</time></trkpt><trkpt lat="43.25954268780998" lon="10.753463033425666"><ele>456.0</ele><time>2026-04-12T09:12:04Z</time></trkpt><trkpt lat="43.259491725131255" lon="10.753328345668644"><ele>455.49999999999994</ele><time>2026-04-12T09:12:06Z</time></trkpt><trkpt lat="43.25948095649849" lon="10.753160316762184"><ele>455.0</ele><time>2026-04-12T09:12:08Z</time></trkpt><trkpt lat="43.25948832998422" lon="10.753063890666741"><ele>454.99999999999994</ele><time>2026-04-12T09:12:09Z</time></trkpt><trkpt lat="43.25952156331313" lon="10.752989491237413"><ele>455.0</ele><time>2026-04-12T09:12:10Z</time></trkpt><trkpt lat="43.25953976927402" lon="10.752895610554566"><ele>455.0</ele><time>2026-04-12T09:12:11Z</time></trkpt><trkpt lat="43.259571309308065" lon="10.752819009463575"><ele>455.0</ele><time>2026-04-12T09:12:12Z</time></trkpt><trkpt lat="43.25960473124258" lon="10.752743520954382"><ele>454.99999999999994</ele><time>2026-04-12T09:12:13Z</time></trkpt><trkpt lat="43.25964567938872" lon="10.752664012982356"><ele>455.0</ele><time>2026-04-12T09:12:14Z</time></trkpt><trkpt lat="43.25968399606851" lon="10.752491546346837"><ele>457.0</ele><time>2026-04-12T09:12:16Z</time></trkpt><trkpt lat="43.25972581102631" lon="10.752332239496239"><ele>459.0</ele><time>2026-04-12T09:12:18Z</time></trkpt><trkpt lat="43.25973125078599" lon="10.752200707993397"><ele>461.0</ele><time>2026-04-12T09:12:20Z</time></trkpt><trkpt lat="43.2596499962339" lon="10.752080259755424"><ele>463.0</ele><time>2026-04-12T09:12:22Z</time></trkpt><trkpt lat="43.25958672460184" lon="10.752016447108012"><ele>465.0</ele><time>2026-04-12T09:12:23.999Z</time></trkpt><trkpt lat="43.259501058455285" lon="10.751984296840536"><ele>465.0</ele><time>2026-04-12T09:12:24.999Z</time></trkpt><trkpt lat="43.259421638354205" lon="10.75197615108566"><ele>465.0</ele><time>2026-04-12T09:12:25.999Z</time></trkpt><trkpt lat="43.25934487423769" lon="10.751997308080622"><ele>465.0</ele><time>2026-04-12T09:12:26.999Z</time></trkpt><trkpt lat="43.2592815729733" lon="10.751980632620862"><ele>465.0</ele><time>2026-04-12T09:12:27.999Z</time></trkpt><trkpt lat="43.25922134602843" lon="10.75195417229646"><ele>465.0</ele><time>2026-04-12T09:12:28.999Z</time></trkpt><trkpt lat="43.259107825694315" lon="10.751929656198989"><ele>465.0</ele><time>2026-04-12T09:12:30.999Z</time></trkpt><trkpt lat="43.25897413900789" lon="10.751942673084717"><ele>465.2</ele><time>2026-04-12T09:12:32.999Z</time></trkpt><trkpt lat="43.258894305794165" lon="10.751987185544724"><ele>465.4</ele><time>2026-04-12T09:12:33.999Z</time></trkpt><trkpt lat="43.25883211842511" lon="10.752030673083134"><ele>465.6</ele><time>2026-04-12T09:12:34.999Z</time></trkpt><trkpt lat="43.2587293750041" lon="10.7521028883865"><ele>465.8</ele><time>2026-04-12T09:12:36.999Z</time></trkpt><trkpt lat="43.25862726160493" lon="10.752198332117937"><ele>466.0</ele><time>2026-04-12T09:12:38.999Z</time></trkpt><trkpt lat="43.258558598051735" lon="10.752228640117002"><ele>466.00000000000006</ele><time>2026-04-12T09:12:39.999Z</time></trkpt><trkpt lat="43.25849377945758" lon="10.75226700535096"><ele>466.0</ele><time>2026-04-12T09:12:40.999Z</time></trkpt><trkpt lat="43.258421002446156" lon="10.75229494304752"><ele>466.0</ele><time>2026-04-12T09:12:41.999Z</time></trkpt><trkpt lat="43.258347476544266" lon="10.752309489718483"><ele>466.0</ele><time>2026-04-12T09:12:42.999Z</time></trkpt><trkpt lat="43.258282094906335" lon="10.752323844084524"><ele>466.00000000000006</ele><time>2026-04-12T09:12:43.999Z</time></trkpt><trkpt lat="43.2582010505373" lon="10.75236194532314"><ele>466.0</ele><time>2026-04-12T09:12:44.999Z</time></trkpt><trkpt lat="43.25807155276942" lon="10.752358184443251"><ele>465.0</ele><time>2026-04-12T09:12:46.999Z</time></trkpt><trkpt lat="43.257950942891085" lon="10.752374598737672"><ele>464.0</ele><time>2026-04-12T09:12:48.999Z</time></trkpt><trkpt lat="43.25788334181875" lon="10.752384329222814"><ele>463.0</ele><time>2026-04-12T09:12:49.999Z</time></trkpt><trkpt lat="43.257760754913605" lon="10.752372159050749"><ele>462.0</ele><time>2026-04-12T09:12:51.999Z</time></trkpt><trkpt lat="43.257698190517246" lon="10.752354516099407"><ele>461.0</ele><time>2026-04-12T09:12:52.999Z</time></trkpt><trkpt lat="43.25757844368982" lon="10.752278650064962"><ele>461.0</ele><time>2026-04-12T09:12:54.999Z</time></trkpt><trkpt lat="43.25752371978934" lon="10.752229476434598"><ele>461.00000000000006</ele><time>2026-04-12T09:12:55.999Z</time></trkpt><trkpt lat="43.2574700786381" lon="10.752175068637268"><ele>461.0</ele><time>2026-04-12T09:12:56.999Z</time></trkpt><trkpt lat="43.25741071216803" lon="10.75213586354634"><ele>461.0</ele><time>2026-04-12T09:12:57.999Z</time></trkpt><trkpt lat="43.25734965389768" lon="10.75208762366869"><ele>461.00000000000006</ele><time>2026-04-12T09:12:58.999Z</time></trkpt><trkpt lat="43.25728303295296" lon="10.752048095237077"><ele>461.0</ele><time>2026-04-12T09:12:59.999Z</time></trkpt><trkpt lat="43.25721833055221" lon="10.752006197773875"><ele>461.0</ele><time>2026-04-12T09:13:00.999Z</time></trkpt><trkpt lat="43.2571512092827" lon="10.751967606185467"><ele>461.4</ele><time>2026-04-12T09:13:01.999Z</time></trkpt><trkpt lat="43.25709907276427" lon="10.75190935238659"><ele>461.8</ele><time>2026-04-12T09:13:02.999Z</time></trkpt><trkpt lat="43.25699266782487" lon="10.751835227648044"><ele>462.19999999999993</ele><time>2026-04-12T09:13:04.999Z</time></trkpt><trkpt lat="43.25694264646087" lon="10.751771147638456"><ele>462.59999999999997</ele><time>2026-04-12T09:13:05.999Z</time></trkpt><trkpt lat="43.25685019285215" lon="10.751646308115891"><ele>463.0</ele><time>2026-04-12T09:13:07.999Z</time></trkpt><trkpt lat="43.25680610724114" lon="10.75156746395037"><ele>463.0</ele><time>2026-04-12T09:13:08.999Z</time></trkpt><trkpt lat="43.256769764146085" lon="10.751481644514456"><ele>462.99999999999994</ele><time>2026-04-12T09:13:09.999Z</time></trkpt><trkpt lat="43.25673744202279" lon="10.75139985393666"><ele>463.0</ele><time>2026-04-12T09:13:10.999Z</time></trkpt><trkpt lat="43.256701660863094" lon="10.751321622882408"><ele>463.0</ele><time>2026-04-12T09:13:11.999Z</time></trkpt><trkpt lat="43.25665327524531" lon="10.751247652628697"><ele>462.99999999999994</ele><time>2026-04-12T09:13:12.999Z</time></trkpt><trkpt lat="43.25660394861574" lon="10.751181988132167"><ele>463.0</ele><time>2026-04-12T09:13:13.999Z</time></trkpt><trkpt lat="43.256570122009926" lon="10.751104328455453"><ele>463.0</ele><time>2026-04-12T09:13:14.999Z</time></trkpt><trkpt lat="43.25651722824358" lon="10.751037953598512"><ele>464.1428571428571</ele><time>2026-04-12T09:13:15.999Z</time></trkpt><trkpt lat="43.25648224363563" lon="10.75094928394745"><ele>465.2857142857142</ele><time>2026-04-12T09:13:16.999Z</time></trkpt><trkpt lat="43.2564543491709" lon="10.750866795332586"><ele>466.42857142857144</ele><time>2026-04-12T09:13:17.999Z</time></trkpt><trkpt lat="43.25641956762898" lon="10.750781918192816"><ele>467.57142857142856</ele><time>2026-04-12T09:13:18.999Z</time></trkpt><trkpt lat="43.25637803585933" lon="10.750708730772908"><ele>468.7142857142857</ele><time>2026-04-12T09:13:19.999Z</time></trkpt><trkpt lat="43.256337547159326" lon="10.750636417415796"><ele>469.8571428571429</ele><time>2026-04-12T09:13:20.999Z</time></trkpt><trkpt lat="43.256283494453115" lon="10.750518000981419"><ele>471.00000000000006</ele><time>2026-04-12T09:13:22.999Z</time></trkpt><trkpt lat="43.25620179286662" lon="10.750441512929921"><ele>471.0</ele><time>2026-04-12T09:13:24.999Z</time></trkpt><trkpt lat="43.256130128461784" lon="10.750432112292343"><ele>471.0</ele><time>2026-04-12T09:13:25.999Z</time></trkpt><trkpt lat="43.25605710403101" lon="10.75042435988922"><ele>471.0</ele><time>2026-04-12T09:13:26.999Z</time></trkpt><trkpt lat="43.25599312395207" lon="10.750399311855082"><ele>471.0</ele><time>2026-04-12T09:13:27.999Z</time></trkpt><trkpt lat="43.25593444081228" lon="10.750367560896278"><ele>471.0</ele><time>2026-04-12T09:13:28.999Z</time></trkpt><trkpt lat="43.25585695642352" lon="10.750234951784938"><ele>471.0</ele><time>2026-04-12T09:13:30.999Z</time></trkpt><trkpt lat="43.255781868998746" lon="10.750107943434765"><ele>471.0</ele><time>2026-04-12T09:13:32.998Z</time></trkpt><trkpt lat="43.25571108329075" lon="10.749981699760994"><ele>471.0</ele><time>2026-04-12T09:13:34.998Z</time></trkpt><trkpt lat="43.255630760046266" lon="10.749875175679394"><ele>471.0</ele><time>2026-04-12T09:13:36.998Z</time></trkpt><trkpt lat="43.25555008019837" lon="10.749815091248003"><ele>471.0</ele><time>2026-04-12T09:13:38.998Z</time></trkpt><trkpt lat="43.25543525489887" lon="10.749842704402267"><ele>471.0</ele><time>2026-04-12T09:13:40.998Z</time></trkpt><trkpt lat="43.25537426672381" lon="10.749878476854464"><ele>471.6666666666667</ele><time>2026-04-12T09:13:41.998Z</time></trkpt><trkpt lat="43.255268366235306" lon="10.74991294388918"><ele>472.33333333333337</ele><time>2026-04-12T09:13:43.998Z</time></trkpt><trkpt lat="43.25520357685349" lon="10.749916041558567"><ele>473.0</ele><time>2026-04-12T09:13:44.998Z</time></trkpt><trkpt lat="43.25508724430639" lon="10.749979304374959"><ele>473.6666666666667</ele><time>2026-04-12T09:13:47Z</time></trkpt><trkpt lat="43.255016189681726" lon="10.749973993441083"><ele>474.33333333333337</ele><time>2026-04-12T09:13:48Z</time></trkpt><trkpt lat="43.25495143049226" lon="10.749938809868256"><ele>475.0</ele><time>2026-04-12T09:13:49Z</time></trkpt><trkpt lat="43.25488554033745" lon="10.749915841507299"><ele>476.83333333333337</ele><time>2026-04-12T09:13:50Z</time></trkpt><trkpt lat="43.25475240127466" lon="10.749894719034979"><ele>478.6666666666667</ele><time>2026-04-12T09:13:52Z</time></trkpt><trkpt lat="43.254681793779866" lon="10.74992733050906"><ele>480.5</ele><time>2026-04-12T09:13:53Z</time></trkpt><trkpt lat="43.254614537981254" lon="10.749932434214063"><ele>482.33333333333337</ele><time>2026-04-12T09:13:54Z</time></trkpt><trkpt lat="43.25455115493365" lon="10.749926377676445"><ele>484.1666666666667</ele><time>2026-04-12T09:13:55Z</time></trkpt><trkpt lat="43.25446591527871" lon="10.749876469565333"><ele>486.0</ele><time>2026-04-12T09:13:57Z</time></trkpt><trkpt lat="43.25436250833393" lon="10.749849099295576"><ele>486.0</ele><time>2026-04-12T09:13:59Z</time></trkpt><trkpt lat="43.254301444594795" lon="10.749805814312706"><ele>486.0</ele><time>2026-04-12T09:14:00Z</time></trkpt><trkpt lat="43.254245503919044" lon="10.749755034490445"><ele>486.0</ele><time>2026-04-12T09:14:01Z</time></trkpt><trkpt lat="43.25415194997839" lon="10.749650479863549"><ele>486.0</ele><time>2026-04-12T09:14:03Z</time></trkpt><trkpt lat="43.254076207669776" lon="10.749546407804793"><ele>486.0</ele><time>2026-04-12T09:14:05Z</time></trkpt><trkpt lat="43.25397427712778" lon="10.749459029869701"><ele>485.85714285714283</ele><time>2026-04-12T09:14:07Z</time></trkpt><trkpt lat="43.25392188425095" lon="10.749397728479888"><ele>485.7142857142858</ele><time>2026-04-12T09:14:08Z</time></trkpt><trkpt lat="43.253907579381085" lon="10.749311182480806"><ele>485.5714285714286</ele><time>2026-04-12T09:14:09Z</time></trkpt><trkpt lat="43.253866409430785" lon="10.749170113941862"><ele>485.42857142857144</ele><time>2026-04-12T09:14:11Z</time></trkpt><trkpt lat="43.25384527831937" lon="10.749084104479524"><ele>485.28571428571433</ele><time>2026-04-12T09:14:12Z</time></trkpt><trkpt lat="43.253825916432476" lon="10.7490009153604"><ele>485.1428571428572</ele><time>2026-04-12T09:14:13Z</time></trkpt><trkpt lat="43.25380652453419" lon="10.748912976558621"><ele>485.00000000000006</ele><time>2026-04-12T09:14:14Z</time></trkpt><trkpt lat="43.253789496655266" lon="10.748826028230456"><ele>484.8</ele><time>2026-04-12T09:14:15Z</time></trkpt><trkpt lat="43.25378880766619" lon="10.748672640110415"><ele>484.6</ele><time>2026-04-12T09:14:17Z</time></trkpt><trkpt lat="43.25377068906516" lon="10.748515795472663"><ele>484.4</ele><time>2026-04-12T09:14:19Z</time></trkpt><trkpt lat="43.25372360317569" lon="10.74840060386653"><ele>484.2</ele><time>2026-04-12T09:14:21Z</time></trkpt><trkpt lat="43.253628318914515" lon="10.748310998402085"><ele>484.0</ele><time>2026-04-12T09:14:23Z</time></trkpt><trkpt lat="43.253515762958465" lon="10.748227851696003"><ele>484.00000000000006</ele><time>2026-04-12T09:14:25Z</time></trkpt><trkpt lat="43.253441813629955" lon="10.74822407443692"><ele>484.0</ele><time>2026-04-12T09:14:26Z</time></trkpt><trkpt lat="43.253376171856765" lon="10.748184552541186"><ele>484.0</ele><time>2026-04-12T09:14:27Z</time></trkpt><trkpt lat="43.25330960267096" lon="10.748152345822065"><ele>484.0</ele><time>2026-04-12T09:14:28Z</time></trkpt><trkpt lat="43.25325384837872" lon="10.748107304703263"><ele>484.00000000000006</ele><time>2026-04-12T09:14:28.999Z</time></trkpt><trkpt lat="43.2531820137947" lon="10.747972429755887"><ele>484.0</ele><time>2026-04-12T09:14:30.999Z</time></trkpt><trkpt lat="43.25313862210297" lon="10.747803957131218"><ele>486.79999999999995</ele><time>2026-04-12T09:14:32.999Z</time></trkpt><trkpt lat="43.253104135268956" lon="10.747701490041727"><ele>489.59999999999997</ele><time>2026-04-12T09:14:33.999Z</time></trkpt><trkpt lat="43.25306740578097" lon="10.747565126593553"><ele>492.4</ele><time>2026-04-12T09:14:34.999Z</time></trkpt><trkpt lat="43.25303905927672" lon="10.747409390525181"><ele>495.2</ele><time>2026-04-12T09:14:35.999Z</time></trkpt><trkpt lat="43.253013474316695" lon="10.74732019658475"><ele>498.0</ele><time>2026-04-12T09:14:36.999Z</time></trkpt><trkpt lat="43.25297387919713" lon="10.747172637382667"><ele>498.0</ele><time>2026-04-12T09:14:38.999Z</time></trkpt><trkpt lat="43.252884388571026" lon="10.747122257557859"><ele>497.99999999999994</ele><time>2026-04-12T09:14:40.999Z</time></trkpt><trkpt lat="43.25276254520139" lon="10.747154336198973"><ele>497.99999999999994</ele><time>2026-04-12T09:14:42.999Z</time></trkpt><trkpt lat="43.25268143442192" lon="10.747185255962624"><ele>498.0</ele><time>2026-04-12T09:14:43.999Z</time></trkpt><trkpt lat="43.25260175879242" lon="10.747208963788506"><ele>498.0</ele><time>2026-04-12T09:14:44.999Z</time></trkpt><trkpt lat="43.252528567837714" lon="10.747219199494262"><ele>498.0</ele><time>2026-04-12T09:14:45.999Z</time></trkpt><trkpt lat="43.25245202366126" lon="10.747205372851454"><ele>498.0</ele><time>2026-04-12T09:14:46.999Z</time></trkpt><trkpt lat="43.25239258214712" lon="10.747176739918258"><ele>498.0</ele><time>2026-04-12T09:14:47.999Z</time></trkpt><trkpt lat="43.25232428667047" lon="10.747154166556168"><ele>498.0</ele><time>2026-04-12T09:14:48.999Z</time></trkpt><trkpt lat="43.252219453900864" lon="10.7471011079"><ele>498.0</ele><time>2026-04-12T09:14:50.999Z</time></trkpt><trkpt lat="43.25217072748417" lon="10.747033471033724"><ele>498.0</ele><time>2026-04-12T09:14:51.999Z</time></trkpt><trkpt lat="43.25211765407466" lon="10.746970277855846"><ele>497.3333333333333</ele><time>2026-04-12T09:14:52.999Z</time></trkpt><trkpt lat="43.252073298314755" lon="10.746885327123291"><ele>496.66666666666663</ele><time>2026-04-12T09:14:53.999Z</time></trkpt><trkpt lat="43.2520154366556" lon="10.746742219039188"><ele>496.0</ele><time>2026-04-12T09:14:55.999Z</time></trkpt><trkpt lat="43.25197107688123" lon="10.746652201854367"><ele>495.3333333333333</ele><time>2026-04-12T09:14:56.999Z</time></trkpt><trkpt lat="43.25193512118206" lon="10.746581154950558"><ele>494.66666666666663</ele><time>2026-04-12T09:14:57.999Z</time></trkpt><trkpt lat="43.251882727873834" lon="10.746504370257556"><ele>494.0</ele><time>2026-04-12T09:14:58.999Z</time></trkpt><trkpt lat="43.25182120531323" lon="10.746349571382726"><ele>494.0</ele><time>2026-04-12T09:15:00.999Z</time></trkpt><trkpt lat="43.25172733434906" lon="10.74626730688436"><ele>494.0</ele><time>2026-04-12T09:15:02.999Z</time></trkpt><trkpt lat="43.251622310797416" lon="10.746287569265569"><ele>494.0</ele><time>2026-04-12T09:15:04.999Z</time></trkpt><trkpt lat="43.2515438300809" lon="10.746356877218691"><ele>494.0</ele><time>2026-04-12T09:15:06.999Z</time></trkpt><trkpt lat="43.25146018888298" lon="10.746517113480929"><ele>493.6</ele><time>2026-04-12T09:15:08.999Z</time></trkpt><trkpt lat="43.25141833828218" lon="10.746651608996306"><ele>493.2</ele><time>2026-04-12T09:15:09.999Z</time></trkpt><trkpt lat="43.25134490097555" lon="10.746752739996094"><ele>492.80000000000007</ele><time>2026-04-12T09:15:10.999Z</time></trkpt><trkpt lat="43.251288508502476" lon="10.746847096174662"><ele>492.40000000000003</ele><time>2026-04-12T09:15:11.999Z</time></trkpt><trkpt lat="43.25123596170714" lon="10.746932174372475"><ele>492.0</ele><time>2026-04-12T09:15:12.999Z</time></trkpt><trkpt lat="43.25117967490316" lon="10.747022937455132"><ele>492.0</ele><time>2026-04-12T09:15:13.999Z</time></trkpt><trkpt lat="43.251129508847946" lon="10.747115287465721"><ele>492.0</ele><time>2026-04-12T09:15:14.999Z</time></trkpt><trkpt lat="43.251076542535976" lon="10.747194851834344"><ele>492.0</ele><time>2026-04-12T09:15:15.999Z</time></trkpt><trkpt lat="43.251027351944735" lon="10.7472750345914"><ele>492.0</ele><time>2026-04-12T09:15:16.999Z</time></trkpt><trkpt lat="43.250976992732355" lon="10.747351121657143"><ele>492.0</ele><time>2026-04-12T09:15:17.999Z</time></trkpt><trkpt lat="43.25093596315416" lon="10.74744026640955"><ele>492.0</ele><time>2026-04-12T09:15:18.999Z</time></trkpt><trkpt lat="43.25087888558368" lon="10.747512189094333"><ele>492.0</ele><time>2026-04-12T09:15:19.999Z</time></trkpt><trkpt lat="43.250841434271784" lon="10.74759419982606"><ele>492.0</ele><time>2026-04-12T09:15:20.999Z</time></trkpt><trkpt lat="43.25080613358802" lon="10.747688241948731"><ele>492.0</ele><time>2026-04-12T09:15:21.999Z</time></trkpt><trkpt lat="43.250787925318626" lon="10.747793148413853"><ele>492.0</ele><time>2026-04-12T09:15:22.999Z</time></trkpt><trkpt lat="43.250772943961266" lon="10.747915530766868"><ele>492.0</ele><time>2026-04-12T09:15:23.999Z</time></trkpt><trkpt lat="43.250752601288376" lon="10.748030555427782"><ele>492.0</ele><time>2026-04-12T09:15:24.999Z</time></trkpt><trkpt lat="43.25072995019284" lon="10.748111879967269"><ele>492.0</ele><time>2026-04-12T09:15:25.999Z</time></trkpt><trkpt lat="43.25067932994224" lon="10.748169092556022"><ele>492.00000000000006</ele><time>2026-04-12T09:15:26.999Z</time></trkpt><trkpt lat="43.25058071138107" lon="10.748263205554471"><ele>492.00000000000006</ele><time>2026-04-12T09:15:28.999Z</time></trkpt><trkpt lat="43.25046279051252" lon="10.748345861512913"><ele>492.0</ele><time>2026-04-12T09:15:30.999Z</time></trkpt><trkpt lat="43.25040043710743" lon="10.748396953970579"><ele>492.0</ele><time>2026-04-12T09:15:31.999Z</time></trkpt><trkpt lat="43.25033128739937" lon="10.748436652342145"><ele>492.0</ele><time>2026-04-12T09:15:32.999Z</time></trkpt><trkpt lat="43.250233239595275" lon="10.748534849917597"><ele>492.00000000000006</ele><time>2026-04-12T09:15:34.999Z</time></trkpt><trkpt lat="43.25012940194968" lon="10.748641487324845"><ele>492.00000000000006</ele><time>2026-04-12T09:15:36.999Z</time></trkpt><trkpt lat="43.25007098339292" lon="10.748680757611474"><ele>492.0</ele><time>2026-04-12T09:15:37.999Z</time></trkpt><trkpt lat="43.25000350057283" lon="10.7486819718156"><ele>492.0</ele><time>2026-04-12T09:15:38.998Z</time></trkpt><trkpt lat="43.24989301439479" lon="10.74871773541283"><ele>492.75</ele><time>2026-04-12T09:15:40.998Z</time></trkpt><trkpt lat="43.249778350690974" lon="10.7487585071995"><ele>493.5</ele><time>2026-04-12T09:15:42.998Z</time></trkpt><trkpt lat="43.24965516776219" lon="10.748780564985964"><ele>494.25</ele><time>2026-04-12T09:15:44.998Z</time></trkpt><trkpt lat="43.2495433029328" lon="10.748795927949649"><ele>495.0</ele><time>2026-04-12T09:15:46.998Z</time></trkpt><trkpt lat="43.24942746084797" lon="10.748759003077874"><ele>495.0</ele><time>2026-04-12T09:15:48.998Z</time></trkpt><trkpt lat="43.249306118211095" lon="10.748714994834595"><ele>495.0</ele><time>2026-04-12T09:15:50.998Z</time></trkpt><trkpt lat="43.24924713105071" lon="10.748684263716198"><ele>495.0</ele><time>2026-04-12T09:15:51.998Z</time></trkpt><trkpt lat="43.249139153566546" lon="10.74863778283148"><ele>495.0</ele><time>2026-04-12T09:15:54Z</time></trkpt><trkpt lat="43.24908799885448" lon="10.748584575550668"><ele>495.0</ele><time>2026-04-12T09:15:55Z</time></trkpt><trkpt lat="43.24899167771485" lon="10.748487993783188"><ele>494.0</ele><time>2026-04-12T09:15:57Z</time></trkpt><trkpt lat="43.2488873193424" lon="10.748383325740846"><ele>493.0</ele><time>2026-04-12T09:15:59Z</time></trkpt><trkpt lat="43.24882516254135" lon="10.74834419684291"><ele>492.0</ele><time>2026-04-12T09:16:00Z</time></trkpt><trkpt lat="43.24872595192002" lon="10.74824257399923"><ele>491.0</ele><time>2026-04-12T09:16:02Z</time></trkpt><trkpt lat="43.24862107580975" lon="10.748180475368487"><ele>490.0</ele><time>2026-04-12T09:16:04Z</time></trkpt><trkpt lat="43.24855709161106" lon="10.748174561348394"><ele>490.00000000000006</ele><time>2026-04-12T09:16:06Z</time></trkpt><trkpt lat="43.248477594807355" lon="10.7481574143143"><ele>490.0</ele><time>2026-04-12T09:16:20Z</time></trkpt><trkpt lat="43.248391098948055" lon="10.74822437188851"><ele>490.0</ele><time>2026-04-12T09:16:23Z</time></trkpt><trkpt lat="43.24837167437702" lon="10.748333948402102"><ele>490.0</ele><time>2026-04-12T09:16:25Z</time></trkpt><trkpt lat="43.248391453986805" lon="10.74844393880448"><ele>490.00000000000006</ele><time>2026-04-12T09:16:27Z</time></trkpt><trkpt lat="43.248432606017445" lon="10.748555249417265"><ele>490.0</ele><time>2026-04-12T09:16:29Z</time></trkpt><trkpt lat="43.248493825807145" lon="10.748683990102652"><ele>489.2</ele><time>2026-04-12T09:16:31Z</time></trkpt><trkpt lat="43.24853013594991" lon="10.748830880556216"><ele>488.4</ele><time>2026-04-12T09:16:33Z</time></trkpt><trkpt lat="43.2485609507486" lon="10.74898510429975"><ele>487.6</ele><time>2026-04-12T09:16:35Z</time></trkpt><trkpt lat="43.24858520548028" lon="10.749149196116495"><ele>486.8</ele><time>2026-04-12T09:16:37Z</time></trkpt><trkpt lat="43.24860319026284" lon="10.749238917573049"><ele>486.0</ele><time>2026-04-12T09:16:38Z</time></trkpt><trkpt lat="43.248623378459286" lon="10.74933743876087"><ele>485.8333333333333</ele><time>2026-04-12T09:16:39Z</time></trkpt><trkpt lat="43.24863403511148" lon="10.749431885988207"><ele>485.66666666666663</ele><time>2026-04-12T09:16:40Z</time></trkpt><trkpt lat="43.2486427584665" lon="10.749524460711847"><ele>485.5</ele><time>2026-04-12T09:16:40.999Z</time></trkpt><trkpt lat="43.24864683496642" lon="10.749612858188382"><ele>485.3333333333333</ele><time>2026-04-12T09:16:41.999Z</time></trkpt><trkpt lat="43.24864922444207" lon="10.74970161405372"><ele>485.16666666666663</ele><time>2026-04-12T09:16:42.999Z</time></trkpt><trkpt lat="43.24865010062623" lon="10.74987750375012"><ele>485.0</ele><time>2026-04-12T09:16:44.999Z</time></trkpt><trkpt lat="43.2486506450502" lon="10.749973681448777"><ele>485.00000000000006</ele><time>2026-04-12T09:16:45.999Z</time></trkpt><trkpt lat="43.24865480718382" lon="10.750069225460733"><ele>485.0</ele><time>2026-04-12T09:16:46.999Z</time></trkpt><trkpt lat="43.24865732715501" lon="10.750167593257205"><ele>485.00000000000006</ele><time>2026-04-12T09:16:47.999Z</time></trkpt><trkpt lat="43.248660499687276" lon="10.750266928698439"><ele>485.00000000000006</ele><time>2026-04-12T09:16:48.999Z</time></trkpt><trkpt lat="43.24866031232505" lon="10.750361564378805"><ele>485.0</ele><time>2026-04-12T09:16:49.999Z</time></trkpt><trkpt lat="43.248655497864206" lon="10.750463569869993"><ele>485.00000000000006</ele><time>2026-04-12T09:16:50.999Z</time></trkpt><trkpt lat="43.248645187279834" lon="10.750555336878"><ele>485.00000000000006</ele><time>2026-04-12T09:16:51.999Z</time></trkpt><trkpt lat="43.24863100310586" lon="10.750641512007359"><ele>485.00000000000006</ele><time>2026-04-12T09:16:52.999Z</time></trkpt><trkpt lat="43.248615630933294" lon="10.7507310627032"><ele>485.0</ele><time>2026-04-12T09:16:53.999Z</time></trkpt><trkpt lat="43.248602603725956" lon="10.750824089310827"><ele>485.00000000000006</ele><time>2026-04-12T09:16:54.999Z</time></trkpt><trkpt lat="43.24858567853512" lon="10.750923473623402"><ele>485.00000000000006</ele><time>2026-04-12T09:16:55.999Z</time></trkpt><trkpt lat="43.2485674008905" lon="10.751023171954591"><ele>485.0</ele><time>2026-04-12T09:16:56.999Z</time></trkpt><trkpt lat="43.248546253332954" lon="10.751125515876794"><ele>485.00000000000006</ele><time>2026-04-12T09:16:57.999Z</time></trkpt><trkpt lat="43.248521991327664" lon="10.751230706417276"><ele>485.00000000000006</ele><time>2026-04-12T09:16:58.999Z</time></trkpt><trkpt lat="43.24850266547421" lon="10.751330224398492"><ele>484.99999999999994</ele><time>2026-04-12T09:16:59.999Z</time></trkpt><trkpt lat="43.24848729044988" lon="10.751428445748086"><ele>485.0</ele><time>2026-04-12T09:17:00.999Z</time></trkpt><trkpt lat="43.2484819430892" lon="10.75152358144618"><ele>485.0</ele><time>2026-04-12T09:17:01.999Z</time></trkpt><trkpt lat="43.24850807551546" lon="10.75169199635202"><ele>485.0</ele><time>2026-04-12T09:17:03.999Z</time></trkpt><trkpt lat="43.24853228681989" lon="10.751776047479257"><ele>484.99999999999994</ele><time>2026-04-12T09:17:04.999Z</time></trkpt><trkpt lat="43.24854700395115" lon="10.751867378160412"><ele>485.0</ele><time>2026-04-12T09:17:05.999Z</time></trkpt><trkpt lat="43.24855344615083" lon="10.752018848626461"><ele>485.8</ele><time>2026-04-12T09:17:07.999Z</time></trkpt><trkpt lat="43.248542459001044" lon="10.75217256987642"><ele>486.6</ele><time>2026-04-12T09:17:09.999Z</time></trkpt><trkpt lat="43.2485381770282" lon="10.75233378296359"><ele>487.4</ele><time>2026-04-12T09:17:11.999Z</time></trkpt><trkpt lat="43.24853403672529" lon="10.752421168210484"><ele>488.2</ele><time>2026-04-12T09:17:12.999Z</time></trkpt><trkpt lat="43.248530275097636" lon="10.75250974983027"><ele>489.0</ele><time>2026-04-12T09:17:13.999Z</time></trkpt><trkpt lat="43.24851689351844" lon="10.75266295534382"><ele>487.0</ele><time>2026-04-12T09:17:15.999Z</time></trkpt><trkpt lat="43.248509732411144" lon="10.752832059283946"><ele>485.0</ele><time>2026-04-12T09:17:17.999Z</time></trkpt><trkpt lat="43.248501447633274" lon="10.753003269503186"><ele>483.0</ele><time>2026-04-12T09:17:19.999Z</time></trkpt><trkpt lat="43.24845766306881" lon="10.753151396416804"><ele>481.0</ele><time>2026-04-12T09:17:21.999Z</time></trkpt><trkpt lat="43.24841263810838" lon="10.753303051646956"><ele>481.0</ele><time>2026-04-12T09:17:23.999Z</time></trkpt><trkpt lat="43.2483724717463" lon="10.753435412807079"><ele>481.0</ele><time>2026-04-12T09:17:25.999Z</time></trkpt><trkpt lat="43.2483386375568" lon="10.753584226833087"><ele>481.0</ele><time>2026-04-12T09:17:27.999Z</time></trkpt><trkpt lat="43.248290186219805" lon="10.753747630296873"><ele>481.0</ele><time>2026-04-12T09:17:29.999Z</time></trkpt><trkpt lat="43.24826675787787" lon="10.753910122945465"><ele>479.8</ele><time>2026-04-12T09:17:31.999Z</time></trkpt><trkpt lat="43.24824216348964" lon="10.754068940150711"><ele>478.6</ele><time>2026-04-12T09:17:33.999Z</time></trkpt><trkpt lat="43.24821471661773" lon="10.754225468772203"><ele>477.4</ele><time>2026-04-12T09:17:35.999Z</time></trkpt><trkpt lat="43.24818270852502" lon="10.75432054421931"><ele>476.2</ele><time>2026-04-12T09:17:36.999Z</time></trkpt><trkpt lat="43.248151197722905" lon="10.754414704019059"><ele>475.0</ele><time>2026-04-12T09:17:37.999Z</time></trkpt><trkpt lat="43.24812152204431" lon="10.75450857029297"><ele>473.6666666666667</ele><time>2026-04-12T09:17:38.999Z</time></trkpt><trkpt lat="43.24808582243245" lon="10.754598204451618"><ele>472.33333333333337</ele><time>2026-04-12T09:17:39.999Z</time></trkpt><trkpt lat="43.248040042758944" lon="10.754678344339402"><ele>471.0</ele><time>2026-04-12T09:17:40.999Z</time></trkpt><trkpt lat="43.2479933034913" lon="10.754750794750569"><ele>469.66666666666663</ele><time>2026-04-12T09:17:41.999Z</time></trkpt><trkpt lat="43.2479264192999" lon="10.754863273938952"><ele>468.3333333333333</ele><time>2026-04-12T09:17:43.999Z</time></trkpt><trkpt lat="43.24787423303123" lon="10.754947954620143"><ele>467.0</ele><time>2026-04-12T09:17:45.999Z</time></trkpt><trkpt lat="43.247818726905656" lon="10.7550759887749"><ele>466.99999999999994</ele><time>2026-04-12T09:17:47.999Z</time></trkpt><trkpt lat="43.24778120382498" lon="10.755149234905844"><ele>467.0</ele><time>2026-04-12T09:17:48.999Z</time></trkpt><trkpt lat="43.24773025760224" lon="10.755200182610183"><ele>466.99999999999994</ele><time>2026-04-12T09:17:49.999Z</time></trkpt><trkpt lat="43.24767038628584" lon="10.755258018964847"><ele>466.99999999999994</ele><time>2026-04-12T09:17:50.998Z</time></trkpt><trkpt lat="43.24761133837271" lon="10.755307316204261"><ele>467.0</ele><time>2026-04-12T09:17:51.998Z</time></trkpt><trkpt lat="43.24755763667291" lon="10.755352989781636"><ele>466.99999999999994</ele><time>2026-04-12T09:17:52.998Z</time></trkpt><trkpt lat="43.24749835671649" lon="10.755403512339566"><ele>466.99999999999994</ele><time>2026-04-12T09:17:53.998Z</time></trkpt><trkpt lat="43.24744488303253" lon="10.755457874686979"><ele>464.8</ele><time>2026-04-12T09:17:54.998Z</time></trkpt><trkpt lat="43.24739219034065" lon="10.75550958783119"><ele>462.6</ele><time>2026-04-12T09:17:55.998Z</time></trkpt><trkpt lat="43.2473036534284" lon="10.75561823330003"><ele>460.40000000000003</ele><time>2026-04-12T09:17:57.998Z</time></trkpt><trkpt lat="43.24721277111244" lon="10.75571092779014"><ele>458.20000000000005</ele><time>2026-04-12T09:18:00Z</time></trkpt><trkpt lat="43.24713555068184" lon="10.755810940584597"><ele>456.0</ele><time>2026-04-12T09:18:02Z</time></trkpt><trkpt lat="43.247084065055546" lon="10.755874032099815"><ele>456.0</ele><time>2026-04-12T09:18:04Z</time></trkpt><trkpt lat="43.24706955486017" lon="10.755966643497436"><ele>456.0</ele><time>2026-04-12T09:18:06Z</time></trkpt><trkpt lat="43.24707819951035" lon="10.756070824116785"><ele>456.0</ele><time>2026-04-12T09:18:08Z</time></trkpt><trkpt lat="43.24712861869314" lon="10.756186820634161"><ele>456.0</ele><time>2026-04-12T09:18:10Z</time></trkpt><trkpt lat="43.247189518755626" lon="10.756296656283771"><ele>456.0</ele><time>2026-04-12T09:18:12Z</time></trkpt><trkpt lat="43.24725532683041" lon="10.756379521479003"><ele>456.0</ele><time>2026-04-12T09:18:14Z</time></trkpt><trkpt lat="43.24727034155908" lon="10.756473632200988"><ele>457.20000000000005</ele><time>2026-04-12T09:18:16Z</time></trkpt><trkpt lat="43.24723810684465" lon="10.75656236382496"><ele>458.40000000000003</ele><time>2026-04-12T09:18:18Z</time></trkpt><trkpt lat="43.24717865775785" lon="10.756641688664326"><ele>459.6</ele><time>2026-04-12T09:18:20Z</time></trkpt><trkpt lat="43.247069556612466" lon="10.756664398014301"><ele>460.8</ele><time>2026-04-12T09:18:22Z</time></trkpt><trkpt lat="43.24695231884385" lon="10.756699901751038"><ele>462.0</ele><time>2026-04-12T09:18:24Z</time></trkpt><trkpt lat="43.24681639805883" lon="10.756753397208456"><ele>462.0</ele><time>2026-04-12T09:18:26Z</time></trkpt><trkpt lat="43.24671054989101" lon="10.756783352968105"><ele>462.0</ele><time>2026-04-12T09:18:28Z</time></trkpt><trkpt lat="43.246601792334864" lon="10.75683405887481"><ele>462.0</ele><time>2026-04-12T09:18:30Z</time></trkpt><trkpt lat="43.24650175809989" lon="10.756853436014651"><ele>462.0</ele><time>2026-04-12T09:18:32Z</time></trkpt><trkpt lat="43.246375489299005" lon="10.756870095822777"><ele>460.6</ele><time>2026-04-12T09:18:34Z</time></trkpt><trkpt lat="43.24626929799452" lon="10.756908971876951"><ele>459.20000000000005</ele><time>2026-04-12T09:18:36Z</time></trkpt><trkpt lat="43.24617792413948" lon="10.756969660949268"><ele>457.8</ele><time>2026-04-12T09:18:38Z</time></trkpt><trkpt lat="43.24610294643113" lon="10.757036966521222"><ele>456.4</ele><time>2026-04-12T09:18:40Z</time></trkpt><trkpt lat="43.246028322820834" lon="10.757123264501935"><ele>455.0</ele><time>2026-04-12T09:18:42Z</time></trkpt><trkpt lat="43.24595526107468" lon="10.757221989870137"><ele>455.0</ele><time>2026-04-12T09:18:44Z</time></trkpt><trkpt lat="43.245884409281445" lon="10.757337567677894"><ele>455.0</ele><time>2026-04-12T09:18:45.999Z</time></trkpt><trkpt lat="43.245814469021944" lon="10.757454017851572"><ele>455.0</ele><time>2026-04-12T09:18:47.999Z</time></trkpt><trkpt lat="43.24576212229222" lon="10.757587046373446"><ele>455.0</ele><time>2026-04-12T09:18:49.999Z</time></trkpt><trkpt lat="43.24571745586391" lon="10.757687809167289"><ele>455.0</ele><time>2026-04-12T09:18:51.999Z</time></trkpt><trkpt lat="43.24567946529182" lon="10.75780983893471"><ele>454.16666666666663</ele><time>2026-04-12T09:18:53.999Z</time></trkpt><trkpt lat="43.24563335594651" lon="10.757947932789195"><ele>453.3333333333333</ele><time>2026-04-12T09:18:55.999Z</time></trkpt><trkpt lat="43.24561255022215" lon="10.758055333664348"><ele>452.5</ele><time>2026-04-12T09:18:57.999Z</time></trkpt><trkpt lat="43.245607196551816" lon="10.75815426981324"><ele>451.66666666666663</ele><time>2026-04-12T09:18:59.999Z</time></trkpt><trkpt lat="43.245611035450686" lon="10.758271302041976"><ele>450.8333333333333</ele><time>2026-04-12T09:19:01.999Z</time></trkpt><trkpt lat="43.245591848844214" lon="10.758387793068186"><ele>450.0</ele><time>2026-04-12T09:19:03.999Z</time></trkpt><trkpt lat="43.245538412177616" lon="10.758530362774216"><ele>447.2</ele><time>2026-04-12T09:19:05.999Z</time></trkpt><trkpt lat="43.24544085739909" lon="10.758615851298101"><ele>444.4</ele><time>2026-04-12T09:19:07.999Z</time></trkpt><trkpt lat="43.2453520592627" lon="10.758699680767572"><ele>441.6</ele><time>2026-04-12T09:19:09.999Z</time></trkpt><trkpt lat="43.24528603954143" lon="10.758783194279564"><ele>438.8</ele><time>2026-04-12T09:19:11.999Z</time></trkpt><trkpt lat="43.245209127902044" lon="10.758883895015494"><ele>436.0</ele><time>2026-04-12T09:19:13.999Z</time></trkpt><trkpt lat="43.24513885090646" lon="10.758973891983752"><ele>436.0</ele><time>2026-04-12T09:19:15.999Z</time></trkpt><trkpt lat="43.24508062531229" lon="10.75908032088465"><ele>436.0</ele><time>2026-04-12T09:19:17.999Z</time></trkpt><trkpt lat="43.24502314266666" lon="10.759196116733492"><ele>436.0</ele><time>2026-04-12T09:19:19.999Z</time></trkpt><trkpt lat="43.24498241046666" lon="10.75935117181231"><ele>436.0</ele><time>2026-04-12T09:19:21.999Z</time></trkpt><trkpt lat="43.244961142315375" lon="10.75945755489932"><ele>436.0</ele><time>2026-04-12T09:19:22.999Z</time></trkpt><trkpt lat="43.244936768226616" lon="10.759625133611333"><ele>435.4</ele><time>2026-04-12T09:19:24.999Z</time></trkpt><trkpt lat="43.24491727856675" lon="10.75979407828276"><ele>434.8</ele><time>2026-04-12T09:19:26.999Z</time></trkpt><trkpt lat="43.2448930045956" lon="10.759929610449628"><ele>434.19999999999993</ele><time>2026-04-12T09:19:28.999Z</time></trkpt><trkpt lat="43.24487676733659" lon="10.760021706761185"><ele>433.59999999999997</ele><time>2026-04-12T09:19:29.999Z</time></trkpt><trkpt lat="43.24483726546388" lon="10.76017998060946"><ele>433.0</ele><time>2026-04-12T09:19:31.999Z</time></trkpt><trkpt lat="43.24477815693984" lon="10.760294714867761"><ele>430.0</ele><time>2026-04-12T09:19:33.999Z</time></trkpt><trkpt lat="43.244699643373536" lon="10.760382521290609"><ele>426.99999999999994</ele><time>2026-04-12T09:19:35.999Z</time></trkpt><trkpt lat="43.2445942590972" lon="10.76036674000934"><ele>424.0</ele><time>2026-04-12T09:19:37.999Z</time></trkpt><trkpt lat="43.244478997900615" lon="10.760406168086938"><ele>421.0</ele><time>2026-04-12T09:19:39.999Z</time></trkpt><trkpt lat="43.24436256738176" lon="10.760440805764276"><ele>418.0</ele><time>2026-04-12T09:19:41.999Z</time></trkpt><trkpt lat="43.244245828267786" lon="10.760438258698395"><ele>418.0</ele><time>2026-04-12T09:19:43.999Z</time></trkpt><trkpt lat="43.244127686655844" lon="10.760429975768393"><ele>418.0</ele><time>2026-04-12T09:19:45.999Z</time></trkpt><trkpt lat="43.244024949360075" lon="10.7603332885086"><ele>418.0</ele><time>2026-04-12T09:19:47.999Z</time></trkpt><trkpt lat="43.24396276654944" lon="10.76028611145624"><ele>418.0</ele><time>2026-04-12T09:19:48.999Z</time></trkpt><trkpt lat="43.24389967177128" lon="10.76023461571742"><ele>418.0</ele><time>2026-04-12T09:19:49.999Z</time></trkpt><trkpt lat="43.24383366181353" lon="10.76018202060153"><ele>419.57142857142856</ele><time>2026-04-12T09:19:50.999Z</time></trkpt><trkpt lat="43.243768375977446" lon="10.760131358259375"><ele>421.1428571428571</ele><time>2026-04-12T09:19:51.999Z</time></trkpt><trkpt lat="43.2437004282194" lon="10.760079954701945"><ele>422.7142857142857</ele><time>2026-04-12T09:19:52.999Z</time></trkpt><trkpt lat="43.24362729827882" lon="10.760050073374018"><ele>424.2857142857143</ele><time>2026-04-12T09:19:53.999Z</time></trkpt><trkpt lat="43.243559666009816" lon="10.760011197157189"><ele>425.8571428571429</ele><time>2026-04-12T09:19:54.999Z</time></trkpt><trkpt lat="43.24349518227227" lon="10.759982907948666"><ele>427.42857142857144</ele><time>2026-04-12T09:19:55.998Z</time></trkpt><trkpt lat="43.243430549102435" lon="10.759956710867753"><ele>429.0</ele><time>2026-04-12T09:19:56.998Z</time></trkpt><trkpt lat="43.24336543543155" lon="10.759938253821591"><ele>429.0</ele><time>2026-04-12T09:19:57.998Z</time></trkpt><trkpt lat="43.243298396713904" lon="10.759906946258337"><ele>429.0</ele><time>2026-04-12T09:19:58.998Z</time></trkpt><trkpt lat="43.24323706000192" lon="10.759867871331089"><ele>429.0</ele><time>2026-04-12T09:19:59.998Z</time></trkpt><trkpt lat="43.243171875069585" lon="10.759826571478088"><ele>429.0</ele><time>2026-04-12T09:20:00.998Z</time></trkpt><trkpt lat="43.2431094603563" lon="10.7597796979607"><ele>429.0</ele><time>2026-04-12T09:20:01.998Z</time></trkpt><trkpt lat="43.24304570748296" lon="10.759728097027539"><ele>429.0</ele><time>2026-04-12T09:20:02.998Z</time></trkpt><trkpt lat="43.24299708938815" lon="10.759650346358457"><ele>429.0</ele><time>2026-04-12T09:20:03.998Z</time></trkpt><trkpt lat="43.24293516229886" lon="10.759596597230471"><ele>431.2</ele><time>2026-04-12T09:20:05Z</time></trkpt><trkpt lat="43.242863577537804" lon="10.759578966753677"><ele>433.4</ele><time>2026-04-12T09:20:06Z</time></trkpt><trkpt lat="43.242768409645066" lon="10.75954868858668"><ele>435.6</ele><time>2026-04-12T09:20:08Z</time></trkpt><trkpt lat="43.24266508411851" lon="10.759547441072128"><ele>437.8</ele><time>2026-04-12T09:20:10Z</time></trkpt><trkpt lat="43.24257092500135" lon="10.759572434765557"><ele>440.0</ele><time>2026-04-12T09:20:12Z</time></trkpt><trkpt lat="43.24248719161437" lon="10.759616867619059"><ele>440.0</ele><time>2026-04-12T09:20:14Z</time></trkpt><trkpt lat="43.242387308617104" lon="10.759660928968225"><ele>440.0</ele><time>2026-04-12T09:20:16Z</time></trkpt><trkpt lat="43.24230226904257" lon="10.759772654983612"><ele>440.0</ele><time>2026-04-12T09:20:18Z</time></trkpt><trkpt lat="43.242228307090514" lon="10.759878665526562"><ele>440.0</ele><time>2026-04-12T09:20:20Z</time></trkpt><trkpt lat="43.24213967865714" lon="10.76000001913249"><ele>439.4</ele><time>2026-04-12T09:20:22Z</time></trkpt><trkpt lat="43.24208927179193" lon="10.760055593126776"><ele>438.8</ele><time>2026-04-12T09:20:23Z</time></trkpt><trkpt lat="43.241990903279856" lon="10.760148456707398"><ele>438.20000000000005</ele><time>2026-04-12T09:20:25Z</time></trkpt><trkpt lat="43.2418765848235" lon="10.760177241344726"><ele>437.6</ele><time>2026-04-12T09:20:27Z</time></trkpt><trkpt lat="43.241812716599554" lon="10.760180349649357"><ele>437.0</ele><time>2026-04-12T09:20:28Z</time></trkpt><trkpt lat="43.24171990372699" lon="10.760218688203883"><ele>436.99999999999994</ele><time>2026-04-12T09:20:30Z</time></trkpt><trkpt lat="43.24165037078397" lon="10.76023364678496"><ele>437.0</ele><time>2026-04-12T09:20:32Z</time></trkpt><trkpt lat="43.241607663711505" lon="10.760103196401575"><ele>437.0</ele><time>2026-04-12T09:20:34Z</time></trkpt><trkpt lat="43.241572720224525" lon="10.759948846328406"><ele>437.0</ele><time>2026-04-12T09:20:36Z</time></trkpt><trkpt lat="43.2415434616851" lon="10.75986517695296"><ele>436.99999999999994</ele><time>2026-04-12T09:20:37Z</time></trkpt><trkpt lat="43.24151033630479" lon="10.759774111497135"><ele>437.0</ele><time>2026-04-12T09:20:38Z</time></trkpt><trkpt lat="43.24145876916598" lon="10.759677211877374"><ele>438.0</ele><time>2026-04-12T09:20:39Z</time></trkpt><trkpt lat="43.24143384196796" lon="10.759585290885147"><ele>439.00000000000006</ele><time>2026-04-12T09:20:40Z</time></trkpt><trkpt lat="43.24140520687226" lon="10.759420233517192"><ele>440.00000000000006</ele><time>2026-04-12T09:20:42Z</time></trkpt><trkpt lat="43.241368657827394" lon="10.75928887039748"><ele>441.0</ele><time>2026-04-12T09:20:44Z</time></trkpt><trkpt lat="43.241338155736265" lon="10.759171622993913"><ele>442.0</ele><time>2026-04-12T09:20:46Z</time></trkpt><trkpt lat="43.24132448241378" lon="10.759068407313167"><ele>442.00000000000006</ele><time>2026-04-12T09:20:48Z</time></trkpt><trkpt lat="43.241295220688045" lon="10.758986572636552"><ele>442.0</ele><time>2026-04-12T09:20:50Z</time></trkpt><trkpt lat="43.24124854655263" lon="10.758924299524768"><ele>442.0</ele><time>2026-04-12T09:20:51Z</time></trkpt><trkpt lat="43.24117325326648" lon="10.758919015786827"><ele>442.0</ele><time>2026-04-12T09:20:52.999Z</time></trkpt><trkpt lat="43.24111073478068" lon="10.75896712239602"><ele>442.00000000000006</ele><time>2026-04-12T09:20:54.999Z</time></trkpt><trkpt lat="43.24112502077195" lon="10.759101233539232"><ele>442.0</ele><time>2026-04-12T09:20:56.999Z</time></trkpt><trkpt lat="43.24118122418985" lon="10.759230315590003"><ele>442.0</ele><time>2026-04-12T09:20:58.999Z</time></trkpt><trkpt lat="43.24120231174788" lon="10.759358092666439"><ele>442.00000000000006</ele><time>2026-04-12T09:21:00.999Z</time></trkpt><trkpt lat="43.24122140571821" lon="10.759493321941967"><ele>442.00000000000006</ele><time>2026-04-12T09:21:02.999Z</time></trkpt><trkpt lat="43.24119753172121" lon="10.759630667341588"><ele>442.0</ele><time>2026-04-12T09:21:04.999Z</time></trkpt><trkpt lat="43.24116863866614" lon="10.759785550094213"><ele>442.0</ele><time>2026-04-12T09:21:06.999Z</time></trkpt><trkpt lat="43.241183137558494" lon="10.759929340992246"><ele>444.00000000000006</ele><time>2026-04-12T09:21:08.999Z</time></trkpt><trkpt lat="43.241191351941765" lon="10.760075588318003"><ele>446.0</ele><time>2026-04-12T09:21:10.999Z</time></trkpt><trkpt lat="43.24116375442953" lon="10.760228009289214"><ele>448.0</ele><time>2026-04-12T09:21:12.999Z</time></trkpt><trkpt lat="43.24115797122405" lon="10.760317773960907"><ele>450.0</ele><time>2026-04-12T09:21:13.999Z</time></trkpt><trkpt lat="43.241162359858826" lon="10.760416156118325"><ele>452.00000000000006</ele><time>2026-04-12T09:21:14.999Z</time></trkpt><trkpt lat="43.241193141701245" lon="10.760516253913687"><ele>454.0</ele><time>2026-04-12T09:21:15.999Z</time></trkpt><trkpt lat="43.24119615989831" lon="10.760619878117234"><ele>452.79999999999995</ele><time>2026-04-12T09:21:16.999Z</time></trkpt><trkpt lat="43.2412453368599" lon="10.760761672750744"><ele>451.59999999999997</ele><time>2026-04-12T09:21:18.999Z</time></trkpt><trkpt lat="43.24130548539664" lon="10.760872403098414"><ele>450.4</ele><time>2026-04-12T09:21:20.999Z</time></trkpt><trkpt lat="43.24135270870545" lon="10.76097300347729"><ele>449.2</ele><time>2026-04-12T09:21:22.999Z</time></trkpt><trkpt lat="43.2414073277805" lon="10.761093246240875"><ele>448.0</ele><time>2026-04-12T09:21:24.999Z</time></trkpt><trkpt lat="43.24146916288878" lon="10.761194513873937"><ele>448.00000000000006</ele><time>2026-04-12T09:21:26.999Z</time></trkpt><trkpt lat="43.241515523088935" lon="10.761264916105862"><ele>448.0</ele><time>2026-04-12T09:21:28.999Z</time></trkpt><trkpt lat="43.24152580649934" lon="10.761350994826541"><ele>448.0</ele><time>2026-04-12T09:21:30.999Z</time></trkpt><trkpt lat="43.24149353672162" lon="10.761431239554843"><ele>448.0</ele><time>2026-04-12T09:21:32.999Z</time></trkpt><trkpt lat="43.24143188805057" lon="10.761474715853032"><ele>448.00000000000006</ele><time>2026-04-12T09:21:34.999Z</time></trkpt><trkpt lat="43.241343765685436" lon="10.761532343797837"><ele>448.0</ele><time>2026-04-12T09:21:36.999Z</time></trkpt><trkpt lat="43.2412833249217" lon="10.761661428633941"><ele>451.4</ele><time>2026-04-12T09:21:38.999Z</time></trkpt><trkpt lat="43.24122882760911" lon="10.76179410812661"><ele>454.79999999999995</ele><time>2026-04-12T09:21:40.999Z</time></trkpt><trkpt lat="43.241182386432705" lon="10.761854329535407"><ele>458.2</ele><time>2026-04-12T09:21:41.999Z</time></trkpt><trkpt lat="43.24116428195966" lon="10.761939753015055"><ele>461.6</ele><time>2026-04-12T09:21:42.999Z</time></trkpt><trkpt lat="43.24113038965882" lon="10.762091125612216"><ele>465.0</ele><time>2026-04-12T09:21:44.999Z</time></trkpt><trkpt lat="43.241127229482785" lon="10.762255227487403"><ele>465.0</ele><time>2026-04-12T09:21:46.999Z</time></trkpt><trkpt lat="43.24114268866344" lon="10.762415223369151"><ele>465.0</ele><time>2026-04-12T09:21:48.999Z</time></trkpt><trkpt lat="43.24114366975634" lon="10.762546166110333"><ele>465.0</ele><time>2026-04-12T09:21:50.999Z</time></trkpt><trkpt lat="43.24111805513015" lon="10.762639007074151"><ele>465.0</ele><time>2026-04-12T09:21:52.999Z</time></trkpt><trkpt lat="43.24104270966565" lon="10.762700192294046"><ele>465.0</ele><time>2026-04-12T09:21:54.999Z</time></trkpt><trkpt lat="43.240959567753805" lon="10.762788730964306"><ele>465.6666666666667</ele><time>2026-04-12T09:21:56.999Z</time></trkpt><trkpt lat="43.24092744835321" lon="10.76286871193089"><ele>466.33333333333337</ele><time>2026-04-12T09:21:57.999Z</time></trkpt><trkpt lat="43.2408773025273" lon="10.762922029540384"><ele>467.0</ele><time>2026-04-12T09:21:58.999Z</time></trkpt><trkpt lat="43.24084347422665" lon="10.762997212439327"><ele>467.6666666666667</ele><time>2026-04-12T09:21:59.998Z</time></trkpt><trkpt lat="43.240789026392726" lon="10.763113710536624"><ele>468.33333333333337</ele><time>2026-04-12T09:22:01.998Z</time></trkpt><trkpt lat="43.24068819081887" lon="10.763157245075195"><ele>469.0</ele><time>2026-04-12T09:22:03.998Z</time></trkpt><trkpt lat="43.24056612148755" lon="10.76319855802458"><ele>469.00000000000006</ele><time>2026-04-12T09:22:05.998Z</time></trkpt><trkpt lat="43.24051444901674" lon="10.76328090918421"><ele>469.0</ele><time>2026-04-12T09:22:06.998Z</time></trkpt><trkpt lat="43.240466089516275" lon="10.763338877620502"><ele>469.0</ele><time>2026-04-12T09:22:07.998Z</time></trkpt><trkpt lat="43.24037506625776" lon="10.763395192214727"><ele>469.0</ele><time>2026-04-12T09:22:09.998Z</time></trkpt><trkpt lat="43.24028226003036" lon="10.763431330514292"><ele>469.00000000000006</ele><time>2026-04-12T09:22:12Z</time></trkpt><trkpt lat="43.24019990458714" lon="10.763469653949805"><ele>469.0</ele><time>2026-04-12T09:22:14Z</time></trkpt><trkpt lat="43.24010961646372" lon="10.763538817813693"><ele>469.79999999999995</ele><time>2026-04-12T09:22:16Z</time></trkpt><trkpt lat="43.24008524750816" lon="10.7636807727739"><ele>470.59999999999997</ele><time>2026-04-12T09:22:18Z</time></trkpt><trkpt lat="43.24012543748564" lon="10.763789929814463"><ele>471.4</ele><time>2026-04-12T09:22:20Z</time></trkpt><trkpt lat="43.24020417507214" lon="10.763878939210263"><ele>472.2</ele><time>2026-04-12T09:22:22Z</time></trkpt><trkpt lat="43.24028013240218" lon="10.763896773203191"><ele>473.0</ele><time>2026-04-12T09:22:23Z</time></trkpt><trkpt lat="43.24036603668111" lon="10.76397898350021"><ele>473.0</ele><time>2026-04-12T09:22:25Z</time></trkpt><trkpt lat="43.240475321130624" lon="10.7640340345263"><ele>472.99999999999994</ele><time>2026-04-12T09:22:27Z</time></trkpt><trkpt lat="43.24054953256984" lon="10.764141436728208"><ele>472.99999999999994</ele><time>2026-04-12T09:22:29Z</time></trkpt><trkpt lat="43.240607177954644" lon="10.76427802814635"><ele>473.0</ele><time>2026-04-12T09:22:31Z</time></trkpt><trkpt lat="43.24062814463985" lon="10.764360721194343"><ele>473.0</ele><time>2026-04-12T09:22:32Z</time></trkpt><trkpt lat="43.240670561119856" lon="10.764436992105567"><ele>470.49999999999994</ele><time>2026-04-12T09:22:33Z</time></trkpt><trkpt lat="43.24071237726249" lon="10.764505436779876"><ele>468.0</ele><time>2026-04-12T09:22:34Z</time></trkpt><trkpt lat="43.24075907571847" lon="10.764564156085138"><ele>465.5</ele><time>2026-04-12T09:22:35Z</time></trkpt><trkpt lat="43.24081161356063" lon="10.764667336521015"><ele>463.0</ele><time>2026-04-12T09:22:37Z</time></trkpt><trkpt lat="43.240830179431065" lon="10.764801388220794"><ele>460.49999999999994</ele><time>2026-04-12T09:22:39Z</time></trkpt><trkpt lat="43.2408724822918" lon="10.764955228098202"><ele>458.0</ele><time>2026-04-12T09:22:41Z</time></trkpt><trkpt lat="43.24088426202032" lon="10.765111162429148"><ele>459.16666666666663</ele><time>2026-04-12T09:22:43Z</time></trkpt><trkpt lat="43.24088616913903" lon="10.765273814748397"><ele>460.3333333333333</ele><time>2026-04-12T09:22:45Z</time></trkpt><trkpt lat="43.240907998889476" lon="10.76535492478739"><ele>461.5</ele><time>2026-04-12T09:22:46Z</time></trkpt><trkpt lat="43.240910413953756" lon="10.765441979138798"><ele>462.66666666666663</ele><time>2026-04-12T09:22:47Z</time></trkpt><trkpt lat="43.2409523984574" lon="10.765530450094454"><ele>463.8333333333333</ele><time>2026-04-12T09:22:48Z</time></trkpt><trkpt lat="43.240971107403944" lon="10.765620848434985"><ele>465.0</ele><time>2026-04-12T09:22:49Z</time></trkpt><trkpt lat="43.24099824420321" lon="10.765765388365791"><ele>465.0</ele><time>2026-04-12T09:22:51Z</time></trkpt><trkpt lat="43.24099724559912" lon="10.765893556462654"><ele>465.0</ele><time>2026-04-12T09:22:53Z</time></trkpt><trkpt lat="43.240980228736085" lon="10.766023561002688"><ele>465.0</ele><time>2026-04-12T09:22:55Z</time></trkpt><trkpt lat="43.24093228260482" lon="10.766174312092975"><ele>465.0</ele><time>2026-04-12T09:22:57Z</time></trkpt><trkpt lat="43.240892764082766" lon="10.766316067035849"><ele>465.0</ele><time>2026-04-12T09:22:58.999Z</time></trkpt><trkpt lat="43.24086119641367" lon="10.766422078851644"><ele>464.0</ele><time>2026-04-12T09:23:00.999Z</time></trkpt><trkpt lat="43.24082142714817" lon="10.766575334420887"><ele>463.0</ele><time>2026-04-12T09:23:02.999Z</time></trkpt><trkpt lat="43.240789495927906" lon="10.76673451184184"><ele>462.0</ele><time>2026-04-12T09:23:04.999Z</time></trkpt><trkpt lat="43.240770436831895" lon="10.76689386314977"><ele>461.0</ele><time>2026-04-12T09:23:06.999Z</time></trkpt><trkpt lat="43.240769561795105" lon="10.767050828410888"><ele>461.20000000000005</ele><time>2026-04-12T09:23:08.999Z</time></trkpt><trkpt lat="43.24074901642079" lon="10.76721689247022"><ele>461.40000000000003</ele><time>2026-04-12T09:23:10.999Z</time></trkpt><trkpt lat="43.24072481608284" lon="10.767364000927095"><ele>461.6</ele><time>2026-04-12T09:23:12.999Z</time></trkpt><trkpt lat="43.24071003086979" lon="10.767488399136846"><ele>461.8</ele><time>2026-04-12T09:23:14.999Z</time></trkpt><trkpt lat="43.24069950760666" lon="10.7675788138573"><ele>462.0</ele><time>2026-04-12T09:23:16.999Z</time></trkpt><trkpt lat="43.24069259756191" lon="10.767697585480398"><ele>462.0</ele><time>2026-04-12T09:23:30.999Z</time></trkpt><trkpt lat="43.24067381277" lon="10.767838959173286"><ele>462.00000000000006</ele><time>2026-04-12T09:23:32.999Z</time></trkpt><trkpt lat="43.2406621645524" lon="10.767979404959341"><ele>462.00000000000006</ele><time>2026-04-12T09:23:34.999Z</time></trkpt><trkpt lat="43.240664084043686" lon="10.768124409993774"><ele>462.0</ele><time>2026-04-12T09:23:36.999Z</time></trkpt><trkpt lat="43.24066338058916" lon="10.768250253832148"><ele>462.0</ele><time>2026-04-12T09:23:38.999Z</time></trkpt><trkpt lat="43.24063282016771" lon="10.768340887134668"><ele>460.66666666666663</ele><time>2026-04-12T09:23:41.999Z</time></trkpt><trkpt lat="43.24057298410545" lon="10.768413157483945"><ele>459.3333333333333</ele><time>2026-04-12T09:23:44.999Z</time></trkpt><trkpt lat="43.24089893169694" lon="10.768604072868586"><ele>458.0</ele><time>2026-04-12T09:24:05.999Z</time></trkpt><trkpt lat="43.24099601872373" lon="10.768655301692036"><ele>460.79999999999995</ele><time>2026-04-12T09:24:07.999Z</time></trkpt><trkpt lat="43.24108780094989" lon="10.768710866438186"><ele>463.59999999999997</ele><time>2026-04-12T09:24:09.998Z</time></trkpt><trkpt lat="43.24118184494203" lon="10.76876196502505"><ele>466.40000000000003</ele><time>2026-04-12T09:24:11.998Z</time></trkpt><trkpt lat="43.241291909264284" lon="10.768802171610838"><ele>469.20000000000005</ele><time>2026-04-12T09:24:13.998Z</time></trkpt><trkpt lat="43.24140347483715" lon="10.768826257111712"><ele>472.0</ele><time>2026-04-12T09:24:15.998Z</time></trkpt><trkpt lat="43.24152658363477" lon="10.768808913597628"><ele>473.50000000000006</ele><time>2026-04-12T09:24:18Z</time></trkpt><trkpt lat="43.241590957960995" lon="10.76879257559857"><ele>475.0</ele><time>2026-04-12T09:24:19Z</time></trkpt><trkpt lat="43.241711554377616" lon="10.768802645495988"><ele>476.5</ele><time>2026-04-12T09:24:21Z</time></trkpt><trkpt lat="43.241773964200426" lon="10.76882398082774"><ele>478.0</ele><time>2026-04-12T09:24:22Z</time></trkpt><trkpt lat="43.241835222020875" lon="10.768852671062763"><ele>479.50000000000006</ele><time>2026-04-12T09:24:23Z</time></trkpt><trkpt lat="43.24189878088873" lon="10.76888251937536"><ele>481.0</ele><time>2026-04-12T09:24:24Z</time></trkpt><trkpt lat="43.241971379950066" lon="10.768912933516008"><ele>481.00000000000006</ele><time>2026-04-12T09:24:25Z</time></trkpt><trkpt lat="43.24203551080507" lon="10.768942804162352"><ele>481.0</ele><time>2026-04-12T09:24:26Z</time></trkpt><trkpt lat="43.24210092126724" lon="10.76897664140614"><ele>481.0</ele><time>2026-04-12T09:24:27Z</time></trkpt><trkpt lat="43.24216770623398" lon="10.768997638472383"><ele>481.0</ele><time>2026-04-12T09:24:28Z</time></trkpt><trkpt lat="43.24229147451858" lon="10.769041558765442"><ele>481.00000000000006</ele><time>2026-04-12T09:24:30Z</time></trkpt><trkpt lat="43.24235547150423" lon="10.769064699882856"><ele>481.0</ele><time>2026-04-12T09:24:31Z</time></trkpt><trkpt lat="43.24241787521039" lon="10.769087735068837"><ele>480.8</ele><time>2026-04-12T09:24:32Z</time></trkpt><trkpt lat="43.24250779387353" lon="10.769139837379587"><ele>480.6</ele><time>2026-04-12T09:24:34Z</time></trkpt><trkpt lat="43.2425851510871" lon="10.769258955732445"><ele>480.4</ele><time>2026-04-12T09:24:36Z</time></trkpt><trkpt lat="43.24261246041735" lon="10.769431825571672"><ele>480.2</ele><time>2026-04-12T09:24:38Z</time></trkpt><trkpt lat="43.24259934093855" lon="10.76952329288863"><ele>480.0</ele><time>2026-04-12T09:24:39Z</time></trkpt><trkpt lat="43.24260724571807" lon="10.769614838371025"><ele>481.7142857142857</ele><time>2026-04-12T09:24:40Z</time></trkpt><trkpt lat="43.24261587964947" lon="10.769707115657376"><ele>483.42857142857144</ele><time>2026-04-12T09:24:41Z</time></trkpt><trkpt lat="43.242627824151846" lon="10.76980289389538"><ele>485.14285714285717</ele><time>2026-04-12T09:24:42Z</time></trkpt><trkpt lat="43.24265078809032" lon="10.769899755935043"><ele>486.8571428571429</ele><time>2026-04-12T09:24:43Z</time></trkpt><trkpt lat="43.24269533884668" lon="10.769982464632756"><ele>488.57142857142856</ele><time>2026-04-12T09:24:44Z</time></trkpt><trkpt lat="43.242724036096966" lon="10.770078351160906"><ele>490.28571428571433</ele><time>2026-04-12T09:24:45Z</time></trkpt><trkpt lat="43.24275640213768" lon="10.770158143296632"><ele>492.00000000000006</ele><time>2026-04-12T09:24:46Z</time></trkpt><trkpt lat="43.24281395693931" lon="10.77029024113908"><ele>494.8</ele><time>2026-04-12T09:24:48Z</time></trkpt><trkpt lat="43.24285931667862" lon="10.770401197324238"><ele>497.6</ele><time>2026-04-12T09:24:50Z</time></trkpt><trkpt lat="43.24291183222758" lon="10.770525342662516"><ele>500.40000000000003</ele><time>2026-04-12T09:24:52Z</time></trkpt><trkpt lat="43.24292796381191" lon="10.770614066339594"><ele>503.20000000000005</ele><time>2026-04-12T09:24:53Z</time></trkpt><trkpt lat="43.242955784461074" lon="10.770776046543292"><ele>506.0</ele><time>2026-04-12T09:24:55Z</time></trkpt><trkpt lat="43.24296735381553" lon="10.770863745303341"><ele>505.99999999999994</ele><time>2026-04-12T09:24:56Z</time></trkpt><trkpt lat="43.24298427189599" lon="10.770957367983215"><ele>506.0</ele><time>2026-04-12T09:24:57Z</time></trkpt><trkpt lat="43.24301047792562" lon="10.771055294133498"><ele>506.0</ele><time>2026-04-12T09:24:58Z</time></trkpt><trkpt lat="43.24302601099999" lon="10.771160570148727"><ele>506.0</ele><time>2026-04-12T09:24:59Z</time></trkpt><trkpt lat="43.243045626280576" lon="10.771245930347154"><ele>505.99999999999994</ele><time>2026-04-12T09:24:59.999Z</time></trkpt><trkpt lat="43.24308266732367" lon="10.771382955996573"><ele>506.0</ele><time>2026-04-12T09:25:01.999Z</time></trkpt><trkpt lat="43.24314932254618" lon="10.771485185560685"><ele>505.49999999999994</ele><time>2026-04-12T09:25:03.999Z</time></trkpt><trkpt lat="43.24321176123661" lon="10.771512265881174"><ele>505.0</ele><time>2026-04-12T09:25:04.999Z</time></trkpt><trkpt lat="43.24327728003804" lon="10.771517665554766"><ele>504.5</ele><time>2026-04-12T09:25:05.999Z</time></trkpt><trkpt lat="43.24334869350479" lon="10.77150137824035"><ele>504.0</ele><time>2026-04-12T09:25:06.999Z</time></trkpt><trkpt lat="43.24341266582008" lon="10.77149114056543"><ele>503.49999999999994</ele><time>2026-04-12T09:25:07.999Z</time></trkpt><trkpt lat="43.24351263941082" lon="10.771506002628715"><ele>503.0</ele><time>2026-04-12T09:25:09.999Z</time></trkpt><trkpt lat="43.24358708843964" lon="10.771573238582654"><ele>502.99999999999994</ele><time>2026-04-12T09:25:11.999Z</time></trkpt><trkpt lat="43.243656401685385" lon="10.771673716959311"><ele>503.0</ele><time>2026-04-12T09:25:13.999Z</time></trkpt><trkpt lat="43.24362556039727" lon="10.771769595752431"><ele>503.0</ele><time>2026-04-12T09:25:14.999Z</time></trkpt><trkpt lat="43.243636258250326" lon="10.77193792676944"><ele>503.0</ele><time>2026-04-12T09:25:16.999Z</time></trkpt><trkpt lat="43.243627651514416" lon="10.772029906616458"><ele>502.99999999999994</ele><time>2026-04-12T09:25:17.999Z</time></trkpt><trkpt lat="43.24360715723197" lon="10.77212830072048"><ele>503.0</ele><time>2026-04-12T09:25:18.999Z</time></trkpt><trkpt lat="43.243599461078865" lon="10.772232111369545"><ele>502.99999999999994</ele><time>2026-04-12T09:25:19.999Z</time></trkpt><trkpt lat="43.24360769253904" lon="10.772349252757545"><ele>503.0</ele><time>2026-04-12T09:25:20.999Z</time></trkpt><trkpt lat="43.24359716915659" lon="10.772461838292953"><ele>503.0</ele><time>2026-04-12T09:25:21.999Z</time></trkpt><trkpt lat="43.24359855387567" lon="10.772571383163106"><ele>503.0</ele><time>2026-04-12T09:25:22.999Z</time></trkpt><trkpt lat="43.243587611408934" lon="10.772675648664332"><ele>502.99999999999994</ele><time>2026-04-12T09:25:23.999Z</time></trkpt><trkpt lat="43.24358866638038" lon="10.772792447453009"><ele>503.0</ele><time>2026-04-12T09:25:24.999Z</time></trkpt><trkpt lat="43.24360236644338" lon="10.772893618494983"><ele>502.99999999999994</ele><time>2026-04-12T09:25:25.999Z</time></trkpt><trkpt lat="43.24361677572638" lon="10.77298632428212"><ele>503.0</ele><time>2026-04-12T09:25:26.999Z</time></trkpt><trkpt lat="43.24369335504751" lon="10.77312758203006"><ele>503.0</ele><time>2026-04-12T09:25:28.999Z</time></trkpt><trkpt lat="43.24374472423065" lon="10.773180399033778"><ele>503.0</ele><time>2026-04-12T09:25:29.999Z</time></trkpt><trkpt lat="43.24379341673517" lon="10.773235403614184"><ele>502.99999999999994</ele><time>2026-04-12T09:25:30.999Z</time></trkpt><trkpt lat="43.24384686126134" lon="10.773282294905057"><ele>503.0</ele><time>2026-04-12T09:25:31.999Z</time></trkpt><trkpt lat="43.24389734801112" lon="10.773352266201519"><ele>502.99999999999994</ele><time>2026-04-12T09:25:32.999Z</time></trkpt><trkpt lat="43.24395627843699" lon="10.773499598886925"><ele>503.0</ele><time>2026-04-12T09:25:34.999Z</time></trkpt><trkpt lat="43.243969022658554" lon="10.773589954879043"><ele>503.0</ele><time>2026-04-12T09:25:35.999Z</time></trkpt><trkpt lat="43.24398280717522" lon="10.773677035289099"><ele>503.0</ele><time>2026-04-12T09:25:36.999Z</time></trkpt><trkpt lat="43.2439975883646" lon="10.77376790806569"><ele>502.99999999999994</ele><time>2026-04-12T09:25:37.999Z</time></trkpt><trkpt lat="43.244008736573484" lon="10.773867492861998"><ele>503.0</ele><time>2026-04-12T09:25:38.999Z</time></trkpt><trkpt lat="43.244027461069955" lon="10.773968422793779"><ele>502.7142857142857</ele><time>2026-04-12T09:25:39.999Z</time></trkpt><trkpt lat="43.24405807990852" lon="10.774058775561185"><ele>502.42857142857144</ele><time>2026-04-12T09:25:40.999Z</time></trkpt><trkpt lat="43.24410015183432" lon="10.774136332339307"><ele>502.14285714285717</ele><time>2026-04-12T09:25:41.999Z</time></trkpt><trkpt lat="43.24414972004279" lon="10.774205839442713"><ele>501.8571428571429</ele><time>2026-04-12T09:25:42.999Z</time></trkpt><trkpt lat="43.24419954617369" lon="10.77428375932609"><ele>501.57142857142856</ele><time>2026-04-12T09:25:43.999Z</time></trkpt><trkpt lat="43.244279173931616" lon="10.774311555670806"><ele>501.28571428571433</ele><time>2026-04-12T09:25:44.999Z</time></trkpt><trkpt lat="43.244336336548656" lon="10.774370753486803"><ele>501.0</ele><time>2026-04-12T09:25:45.999Z</time></trkpt><trkpt lat="43.244399297168876" lon="10.77441338491849"><ele>501.3333333333333</ele><time>2026-04-12T09:25:46.999Z</time></trkpt><trkpt lat="43.24446227139715" lon="10.774431269428323"><ele>501.66666666666663</ele><time>2026-04-12T09:25:47.999Z</time></trkpt><trkpt lat="43.244520615343646" lon="10.774491235600872"><ele>502.0</ele><time>2026-04-12T09:25:48.999Z</time></trkpt><trkpt lat="43.244633967279526" lon="10.774571352726747"><ele>502.3333333333333</ele><time>2026-04-12T09:25:50.999Z</time></trkpt><trkpt lat="43.24470615998625" lon="10.774613010296155"><ele>502.66666666666663</ele><time>2026-04-12T09:25:51.999Z</time></trkpt><trkpt lat="43.24477178677457" lon="10.77465782458227"><ele>503.0</ele><time>2026-04-12T09:25:52.999Z</time></trkpt><trkpt lat="43.24484115016901" lon="10.774704599571074"><ele>502.99999999999994</ele><time>2026-04-12T09:25:53.999Z</time></trkpt><trkpt lat="43.244911223618196" lon="10.774748634192912"><ele>503.0</ele><time>2026-04-12T09:25:54.999Z</time></trkpt><trkpt lat="43.24497062416909" lon="10.774800231767323"><ele>503.0</ele><time>2026-04-12T09:25:55.999Z</time></trkpt><trkpt lat="43.24503898490324" lon="10.774850783820062"><ele>503.0</ele><time>2026-04-12T09:25:56.999Z</time></trkpt><trkpt lat="43.24510046820608" lon="10.774904943400998"><ele>502.99999999999994</ele><time>2026-04-12T09:25:57.999Z</time></trkpt><trkpt lat="43.24516093844816" lon="10.774950114681726"><ele>503.0</ele><time>2026-04-12T09:25:58.999Z</time></trkpt><trkpt lat="43.2452647003122" lon="10.7750294724115"><ele>503.0</ele><time>2026-04-12T09:26:00.999Z</time></trkpt><trkpt lat="43.24532053086753" lon="10.775069625857295"><ele>502.99999999999994</ele><time>2026-04-12T09:26:01.999Z</time></trkpt><trkpt lat="43.24542926887776" lon="10.775136474547041"><ele>502.99999999999994</ele><time>2026-04-12T09:26:03.999Z</time></trkpt><trkpt lat="43.24553626451642" lon="10.77514670996629"><ele>503.0</ele><time>2026-04-12T09:26:05.999Z</time></trkpt><trkpt lat="43.24564537424121" lon="10.775142157025787"><ele>503.0</ele><time>2026-04-12T09:26:07.999Z</time></trkpt><trkpt lat="43.24571543011303" lon="10.775137840613393"><ele>503.4</ele><time>2026-04-12T09:26:08.999Z</time></trkpt><trkpt lat="43.24577993114042" lon="10.775111218375638"><ele>503.79999999999995</ele><time>2026-04-12T09:26:09.999Z</time></trkpt><trkpt lat="43.24584405458294" lon="10.775079317260554"><ele>504.2</ele><time>2026-04-12T09:26:10.999Z</time></trkpt><trkpt lat="43.24594679415396" lon="10.775037649043087"><ele>504.6</ele><time>2026-04-12T09:26:12.999Z</time></trkpt><trkpt lat="43.246035190183306" lon="10.775089841998874"><ele>505.0</ele><time>2026-04-12T09:26:15.998Z</time></trkpt><trkpt lat="43.24611158131239" lon="10.775200219661615"><ele>505.83333333333337</ele><time>2026-04-12T09:26:17.998Z</time></trkpt><trkpt lat="43.24615062301105" lon="10.775271117655283"><ele>506.6666666666667</ele><time>2026-04-12T09:26:18.998Z</time></trkpt><trkpt lat="43.246184326714165" lon="10.77534836398153"><ele>507.5</ele><time>2026-04-12T09:26:19.998Z</time></trkpt><trkpt lat="43.246244239807744" lon="10.775481503419616"><ele>508.33333333333337</ele><time>2026-04-12T09:26:21.998Z</time></trkpt><trkpt lat="43.24628713211422" lon="10.775556844247653"><ele>509.1666666666667</ele><time>2026-04-12T09:26:23Z</time></trkpt><trkpt lat="43.24638428118445" lon="10.775662569377667"><ele>510.0</ele><time>2026-04-12T09:26:25Z</time></trkpt><trkpt lat="43.24648461472659" lon="10.775774136318512"><ele>510.0</ele><time>2026-04-12T09:26:27Z</time></trkpt><trkpt lat="43.246539116050236" lon="10.77583486315789"><ele>510.0</ele><time>2026-04-12T09:26:28Z</time></trkpt><trkpt lat="43.24659969325232" lon="10.775902639581917"><ele>510.0</ele><time>2026-04-12T09:26:29Z</time></trkpt><trkpt lat="43.24665567988429" lon="10.775973243053354"><ele>510.0</ele><time>2026-04-12T09:26:30Z</time></trkpt><trkpt lat="43.2467031210675" lon="10.7760454799235"><ele>510.0</ele><time>2026-04-12T09:26:31Z</time></trkpt><trkpt lat="43.24679163903149" lon="10.776141932958067"><ele>510.0</ele><time>2026-04-12T09:26:33Z</time></trkpt><trkpt lat="43.24690419664646" lon="10.776206139632636"><ele>512.2857142857143</ele><time>2026-04-12T09:26:35Z</time></trkpt><trkpt lat="43.24697243802975" lon="10.776200877601173"><ele>514.5714285714287</ele><time>2026-04-12T09:26:36Z</time></trkpt><trkpt lat="43.24704158820135" lon="10.776183673091579"><ele>516.8571428571429</ele><time>2026-04-12T09:26:37Z</time></trkpt><trkpt lat="43.24711890108365" lon="10.776175474854812"><ele>519.1428571428571</ele><time>2026-04-12T09:26:38Z</time></trkpt><trkpt lat="43.247193257130895" lon="10.776142737233904"><ele>521.4285714285713</ele><time>2026-04-12T09:26:39Z</time></trkpt><trkpt lat="43.247255567950205" lon="10.776099189807804"><ele>523.7142857142857</ele><time>2026-04-12T09:26:40Z</time></trkpt><trkpt lat="43.24731675052662" lon="10.776069301803963"><ele>526.0</ele><time>2026-04-12T09:26:41Z</time></trkpt><trkpt lat="43.24737821151062" lon="10.776030345506483"><ele>522.5</ele><time>2026-04-12T09:26:42Z</time></trkpt><trkpt lat="43.247445072362936" lon="10.775979847216783"><ele>519.0</ele><time>2026-04-12T09:26:43Z</time></trkpt><trkpt lat="43.24750998162107" lon="10.77594653420477"><ele>515.5</ele><time>2026-04-12T09:26:44Z</time></trkpt><trkpt lat="43.24757767294738" lon="10.775924934472735"><ele>512.0</ele><time>2026-04-12T09:26:45Z</time></trkpt><trkpt lat="43.24764874512835" lon="10.775932358933341"><ele>508.50000000000006</ele><time>2026-04-12T09:26:46Z</time></trkpt><trkpt lat="43.24771150067671" lon="10.77596847549932"><ele>505.0</ele><time>2026-04-12T09:26:47Z</time></trkpt><trkpt lat="43.247831578365656" lon="10.776007219519084"><ele>505.0</ele><time>2026-04-12T09:26:49Z</time></trkpt><trkpt lat="43.24795909281046" lon="10.77602856021413"><ele>505.0</ele><time>2026-04-12T09:26:51Z</time></trkpt><trkpt lat="43.24803079668355" lon="10.776008151701241"><ele>505.0</ele><time>2026-04-12T09:26:52Z</time></trkpt><trkpt lat="43.24812361789479" lon="10.77599667686026"><ele>505.0</ele><time>2026-04-12T09:26:54Z</time></trkpt><trkpt lat="43.24820781005164" lon="10.77591806138822"><ele>505.0</ele><time>2026-04-12T09:26:56Z</time></trkpt><trkpt lat="43.24832457513247" lon="10.775848001875692"><ele>504.6</ele><time>2026-04-12T09:26:58Z</time></trkpt><trkpt lat="43.248421739749794" lon="10.77577501650745"><ele>504.2</ele><time>2026-04-12T09:27:00Z</time></trkpt><trkpt lat="43.248521023910904" lon="10.775824393881681"><ele>503.79999999999995</ele><time>2026-04-12T09:27:02Z</time></trkpt><trkpt lat="43.24858230515076" lon="10.775947298967388"><ele>503.4</ele><time>2026-04-12T09:27:04Z</time></trkpt><trkpt lat="43.24865905072946" lon="10.776061477622196"><ele>503.0</ele><time>2026-04-12T09:27:06Z</time></trkpt><trkpt lat="43.248726261001806" lon="10.776218089263034"><ele>501.3333333333333</ele><time>2026-04-12T09:27:08Z</time></trkpt><trkpt lat="43.24876629870667" lon="10.77629518033786"><ele>499.66666666666663</ele><time>2026-04-12T09:27:08.999Z</time></trkpt><trkpt lat="43.24881105742999" lon="10.776359687364092"><ele>498.0</ele><time>2026-04-12T09:27:09.999Z</time></trkpt><trkpt lat="43.24886548668171" lon="10.776409804166741"><ele>496.33333333333337</ele><time>2026-04-12T09:27:10.999Z</time></trkpt><trkpt lat="43.24892792003649" lon="10.77646880588105"><ele>494.6666666666667</ele><time>2026-04-12T09:27:11.999Z</time></trkpt><trkpt lat="43.24902008492162" lon="10.77655640336643"><ele>493.0</ele><time>2026-04-12T09:27:13.999Z</time></trkpt><trkpt lat="43.24904801032753" lon="10.776635451615716"><ele>493.00000000000006</ele><time>2026-04-12T09:27:14.999Z</time></trkpt><trkpt lat="43.249098295606466" lon="10.776784681177162"><ele>493.0</ele><time>2026-04-12T09:27:16.999Z</time></trkpt><trkpt lat="43.24913577939337" lon="10.77685754131024"><ele>493.0</ele><time>2026-04-12T09:27:17.999Z</time></trkpt><trkpt lat="43.24914298081057" lon="10.77694778674408"><ele>493.0</ele><time>2026-04-12T09:27:18.999Z</time></trkpt><trkpt lat="43.24915313001035" lon="10.777036771070158"><ele>493.00000000000006</ele><time>2026-04-12T09:27:19.999Z</time></trkpt><trkpt lat="43.249183136777624" lon="10.777205564930215"><ele>493.0</ele><time>2026-04-12T09:27:21.999Z</time></trkpt><trkpt lat="43.249219192120904" lon="10.777286768693285"><ele>493.83333333333337</ele><time>2026-04-12T09:27:22.999Z</time></trkpt><trkpt lat="43.24929457876314" lon="10.777429250703669"><ele>494.6666666666667</ele><time>2026-04-12T09:27:24.999Z</time></trkpt><trkpt lat="43.24934263293488" lon="10.777487866414887"><ele>495.5</ele><time>2026-04-12T09:27:25.999Z</time></trkpt><trkpt lat="43.24939211619773" lon="10.77755069821836"><ele>496.33333333333337</ele><time>2026-04-12T09:27:26.999Z</time></trkpt><trkpt lat="43.24944032809094" lon="10.777614594542715"><ele>497.1666666666667</ele><time>2026-04-12T09:27:27.999Z</time></trkpt><trkpt lat="43.24949065528945" lon="10.777668648629378"><ele>498.0</ele><time>2026-04-12T09:27:28.999Z</time></trkpt><trkpt lat="43.24954009903584" lon="10.777726188969249"><ele>498.2</ele><time>2026-04-12T09:27:29.999Z</time></trkpt><trkpt lat="43.249625742754745" lon="10.777852111929684"><ele>498.4</ele><time>2026-04-12T09:27:31.999Z</time></trkpt><trkpt lat="43.24971102223601" lon="10.777933647875827"><ele>498.59999999999997</ele><time>2026-04-12T09:27:33.999Z</time></trkpt><trkpt lat="43.24978636195272" lon="10.778010281443352"><ele>498.79999999999995</ele><time>2026-04-12T09:27:35.999Z</time></trkpt><trkpt lat="43.24988335788852" lon="10.778082603081472"><ele>499.0</ele><time>2026-04-12T09:27:37.999Z</time></trkpt><trkpt lat="43.24999241156092" lon="10.778140918438197"><ele>494.4</ele><time>2026-04-12T09:27:39.999Z</time></trkpt><trkpt lat="43.250072625730326" lon="10.778139421089328"><ele>489.79999999999995</ele><time>2026-04-12T09:27:40.999Z</time></trkpt><trkpt lat="43.25020885716317" lon="10.778152682295467"><ele>485.20000000000005</ele><time>2026-04-12T09:27:42.999Z</time></trkpt><trkpt lat="43.250288532973094" lon="10.778154164789473"><ele>480.6</ele><time>2026-04-12T09:27:43.999Z</time></trkpt><trkpt lat="43.25036901914296" lon="10.778149617279317"><ele>476.0</ele><time>2026-04-12T09:27:44.999Z</time></trkpt><trkpt lat="43.25044966143141" lon="10.778123571563894"><ele>475.99999999999994</ele><time>2026-04-12T09:27:45.999Z</time></trkpt><trkpt lat="43.25053278830646" lon="10.778106692191592"><ele>476.0</ele><time>2026-04-12T09:27:46.999Z</time></trkpt><trkpt lat="43.25060310068952" lon="10.77807223144835"><ele>476.0</ele><time>2026-04-12T09:27:47.999Z</time></trkpt><trkpt lat="43.25067319940332" lon="10.778040788497043"><ele>476.0</ele><time>2026-04-12T09:27:48.999Z</time></trkpt><trkpt lat="43.25074357542257" lon="10.77801165889557"><ele>475.99999999999994</ele><time>2026-04-12T09:27:49.999Z</time></trkpt><trkpt lat="43.250860843372685" lon="10.777983429869908"><ele>476.0</ele><time>2026-04-12T09:27:51.999Z</time></trkpt><trkpt lat="43.250924499801165" lon="10.777994651974462"><ele>475.42857142857144</ele><time>2026-04-12T09:27:52.999Z</time></trkpt><trkpt lat="43.25098955405491" lon="10.778025451982645"><ele>474.8571428571429</ele><time>2026-04-12T09:27:53.999Z</time></trkpt><trkpt lat="43.25104664183032" lon="10.778065808183946"><ele>474.2857142857143</ele><time>2026-04-12T09:27:54.999Z</time></trkpt><trkpt lat="43.251111106790134" lon="10.778106250515608"><ele>473.7142857142857</ele><time>2026-04-12T09:27:55.999Z</time></trkpt><trkpt lat="43.251179672868275" lon="10.77815124571248"><ele>473.14285714285717</ele><time>2026-04-12T09:27:56.999Z</time></trkpt><trkpt lat="43.251245165147225" lon="10.77819247317132"><ele>472.57142857142856</ele><time>2026-04-12T09:27:57.999Z</time></trkpt><trkpt lat="43.25131181882578" lon="10.778234037368415"><ele>472.0</ele><time>2026-04-12T09:27:58.999Z</time></trkpt><trkpt lat="43.25138084317961" lon="10.778276031299422"><ele>472.0</ele><time>2026-04-12T09:27:59.999Z</time></trkpt><trkpt lat="43.25144112128245" lon="10.778328929280914"><ele>472.0</ele><time>2026-04-12T09:28:00.999Z</time></trkpt><trkpt lat="43.251509811825" lon="10.778370679169546"><ele>472.0</ele><time>2026-04-12T09:28:01.999Z</time></trkpt><trkpt lat="43.25157572586806" lon="10.778418603642216"><ele>472.0</ele><time>2026-04-12T09:28:02.999Z</time></trkpt><trkpt lat="43.25163894073731" lon="10.778463946389522"><ele>472.0</ele><time>2026-04-12T09:28:03.999Z</time></trkpt><trkpt lat="43.25170459190379" lon="10.778509578866815"><ele>472.0</ele><time>2026-04-12T09:28:04.999Z</time></trkpt><trkpt lat="43.25176980771834" lon="10.77856120363878"><ele>472.0</ele><time>2026-04-12T09:28:05.999Z</time></trkpt><trkpt lat="43.251831175735646" lon="10.77860693275855"><ele>470.8</ele><time>2026-04-12T09:28:06.999Z</time></trkpt><trkpt lat="43.25189014307924" lon="10.77864895544998"><ele>469.6</ele><time>2026-04-12T09:28:07.999Z</time></trkpt><trkpt lat="43.25198444702541" lon="10.778734289584563"><ele>468.40000000000003</ele><time>2026-04-12T09:28:09.999Z</time></trkpt><trkpt lat="43.252082077485994" lon="10.778808531873294"><ele>467.20000000000005</ele><time>2026-04-12T09:28:11.999Z</time></trkpt><trkpt lat="43.25213438358592" lon="10.778857227862119"><ele>466.0</ele><time>2026-04-12T09:28:12.999Z</time></trkpt><trkpt lat="43.25223444102401" lon="10.778945467315024"><ele>467.50000000000006</ele><time>2026-04-12T09:28:14.999Z</time></trkpt><trkpt lat="43.25229208986506" lon="10.778998454237767"><ele>469.0</ele><time>2026-04-12T09:28:15.999Z</time></trkpt><trkpt lat="43.25235944299278" lon="10.77905521115946"><ele>470.5</ele><time>2026-04-12T09:28:16.999Z</time></trkpt><trkpt lat="43.25242568429216" lon="10.77910968574387"><ele>472.0</ele><time>2026-04-12T09:28:17.999Z</time></trkpt><trkpt lat="43.252495226571796" lon="10.779174552368978"><ele>473.50000000000006</ele><time>2026-04-12T09:28:18.999Z</time></trkpt><trkpt lat="43.252559928720906" lon="10.779233301827054"><ele>475.0</ele><time>2026-04-12T09:28:19.999Z</time></trkpt><trkpt lat="43.252627238110634" lon="10.779288208243143"><ele>475.00000000000006</ele><time>2026-04-12T09:28:20.999Z</time></trkpt><trkpt lat="43.252695218009656" lon="10.779343117198088"><ele>475.0</ele><time>2026-04-12T09:28:21.999Z</time></trkpt><trkpt lat="43.25276923392397" lon="10.779407424614945"><ele>475.0</ele><time>2026-04-12T09:28:22.998Z</time></trkpt><trkpt lat="43.25284698682355" lon="10.779468859603554"><ele>475.0</ele><time>2026-04-12T09:28:23.998Z</time></trkpt><trkpt lat="43.2529155395703" lon="10.779538091524083"><ele>475.00000000000006</ele><time>2026-04-12T09:28:24.998Z</time></trkpt><trkpt lat="43.25298176877956" lon="10.779614657272164"><ele>475.0</ele><time>2026-04-12T09:28:25.998Z</time></trkpt><trkpt lat="43.25304504909818" lon="10.779685782554706"><ele>474.8571428571429</ele><time>2026-04-12T09:28:26.998Z</time></trkpt><trkpt lat="43.25310506182383" lon="10.779759392323795"><ele>474.7142857142858</ele><time>2026-04-12T09:28:27.998Z</time></trkpt><trkpt lat="43.25316257763523" lon="10.779823849995468"><ele>474.57142857142856</ele><time>2026-04-12T09:28:29Z</time></trkpt><trkpt lat="43.25321669318837" lon="10.779879713818007"><ele>474.42857142857144</ele><time>2026-04-12T09:28:30Z</time></trkpt><trkpt lat="43.25326759404735" lon="10.779949373200022"><ele>474.2857142857143</ele><time>2026-04-12T09:28:31Z</time></trkpt><trkpt lat="43.25332507898853" lon="10.780022756648473"><ele>474.1428571428571</ele><time>2026-04-12T09:28:32Z</time></trkpt><trkpt lat="43.253369816546986" lon="10.780105751495908"><ele>473.99999999999994</ele><time>2026-04-12T09:28:33Z</time></trkpt><trkpt lat="43.25341200260075" lon="10.780176050582336"><ele>472.0</ele><time>2026-04-12T09:28:34Z</time></trkpt><trkpt lat="43.25345538259852" lon="10.780255490266725"><ele>470.0</ele><time>2026-04-12T09:28:35Z</time></trkpt><trkpt lat="43.25349864994689" lon="10.780354598471995"><ele>468.0</ele><time>2026-04-12T09:28:36Z</time></trkpt><trkpt lat="43.25353628341337" lon="10.780446625558515"><ele>466.0</ele><time>2026-04-12T09:28:37Z</time></trkpt><trkpt lat="43.253561143262615" lon="10.78053751494014"><ele>464.0</ele><time>2026-04-12T09:28:38Z</time></trkpt><trkpt lat="43.25358360626659" lon="10.780625525396546"><ele>462.0</ele><time>2026-04-12T09:28:39Z</time></trkpt><trkpt lat="43.25363955794656" lon="10.780774058726886"><ele>462.0</ele><time>2026-04-12T09:28:41Z</time></trkpt><trkpt lat="43.25368033032944" lon="10.780847502953801"><ele>462.0</ele><time>2026-04-12T09:28:42Z</time></trkpt><trkpt lat="43.2537398438496" lon="10.7809122458195"><ele>462.0</ele><time>2026-04-12T09:28:43Z</time></trkpt><trkpt lat="43.253804166334575" lon="10.780979014875374"><ele>462.0</ele><time>2026-04-12T09:28:44Z</time></trkpt><trkpt lat="43.253877353945335" lon="10.781043060954346"><ele>462.0</ele><time>2026-04-12T09:28:45Z</time></trkpt><trkpt lat="43.25394784428774" lon="10.781106448315695"><ele>462.0</ele><time>2026-04-12T09:28:46Z</time></trkpt><trkpt lat="43.25401763558157" lon="10.781168483420636"><ele>461.42857142857144</ele><time>2026-04-12T09:28:47Z</time></trkpt><trkpt lat="43.25408018931417" lon="10.781217928582054"><ele>460.8571428571429</ele><time>2026-04-12T09:28:48Z</time></trkpt><trkpt lat="43.25413713514947" lon="10.781261067635603"><ele>460.2857142857143</ele><time>2026-04-12T09:28:49Z</time></trkpt><trkpt lat="43.254199599518344" lon="10.7812827174554"><ele>459.7142857142857</ele><time>2026-04-12T09:28:50Z</time></trkpt><trkpt lat="43.254268649921066" lon="10.781291055033922"><ele>459.14285714285717</ele><time>2026-04-12T09:28:51Z</time></trkpt><trkpt lat="43.25434052133874" lon="10.7812796367841"><ele>458.57142857142856</ele><time>2026-04-12T09:28:52Z</time></trkpt><trkpt lat="43.254410743378116" lon="10.781250583002187"><ele>458.0</ele><time>2026-04-12T09:28:53Z</time></trkpt><trkpt lat="43.2544863884429" lon="10.781208421206"><ele>458.0</ele><time>2026-04-12T09:28:54Z</time></trkpt><trkpt lat="43.25455756967725" lon="10.781159225036232"><ele>458.0</ele><time>2026-04-12T09:28:55Z</time></trkpt><trkpt lat="43.25462193538405" lon="10.781125832156238"><ele>458.0</ele><time>2026-04-12T09:28:56Z</time></trkpt><trkpt lat="43.25469210305265" lon="10.781108185698832"><ele>458.0</ele><time>2026-04-12T09:28:57Z</time></trkpt><trkpt lat="43.25476243624831" lon="10.781123153314402"><ele>458.0</ele><time>2026-04-12T09:28:58Z</time></trkpt><trkpt lat="43.25482131145587" lon="10.781184618413151"><ele>458.0</ele><time>2026-04-12T09:28:59Z</time></trkpt><trkpt lat="43.254875151030326" lon="10.7812421552421"><ele>458.0</ele><time>2026-04-12T09:29:00Z</time></trkpt><trkpt lat="43.25493738023745" lon="10.781296411342515"><ele>458.8333333333333</ele><time>2026-04-12T09:29:01Z</time></trkpt><trkpt lat="43.25500300293092" lon="10.781348091218456"><ele>459.66666666666663</ele><time>2026-04-12T09:29:02Z</time></trkpt><trkpt lat="43.25506523249584" lon="10.78141495248334"><ele>460.5</ele><time>2026-04-12T09:29:03Z</time></trkpt><trkpt lat="43.25511175130024" lon="10.781501989632417"><ele>461.33333333333337</ele><time>2026-04-12T09:29:04Z</time></trkpt><trkpt lat="43.255161043890055" lon="10.781593122225084"><ele>462.1666666666667</ele><time>2026-04-12T09:29:05Z</time></trkpt><trkpt lat="43.25520570381859" lon="10.781698774488303"><ele>463.0</ele><time>2026-04-12T09:29:06Z</time></trkpt><trkpt lat="43.25525367397224" lon="10.781812639633593"><ele>460.59999999999997</ele><time>2026-04-12T09:29:07Z</time></trkpt><trkpt lat="43.255311811909486" lon="10.781974150492772"><ele>458.19999999999993</ele><time>2026-04-12T09:29:09Z</time></trkpt><trkpt lat="43.255318427343695" lon="10.782072953959494"><ele>455.8</ele><time>2026-04-12T09:29:10Z</time></trkpt><trkpt lat="43.25531862471976" lon="10.78216406544327"><ele>453.4</ele><time>2026-04-12T09:29:11Z</time></trkpt><trkpt lat="43.25530780120956" lon="10.782327138359634"><ele>451.0</ele><time>2026-04-12T09:29:13Z</time></trkpt><trkpt lat="43.255359789446146" lon="10.782446104431484"><ele>451.00000000000006</ele><time>2026-04-12T09:29:14.999Z</time></trkpt><trkpt lat="43.255435997638045" lon="10.782562904074632"><ele>451.0</ele><time>2026-04-12T09:29:16.999Z</time></trkpt><trkpt lat="43.255485634416225" lon="10.782639015400667"><ele>451.0</ele><time>2026-04-12T09:29:17.999Z</time></trkpt><trkpt lat="43.255533685784684" lon="10.782705654815128"><ele>451.0</ele><time>2026-04-12T09:29:18.999Z</time></trkpt><trkpt lat="43.25558434856735" lon="10.782772546906896"><ele>451.00000000000006</ele><time>2026-04-12T09:29:19.999Z</time></trkpt><trkpt lat="43.25567702130853" lon="10.78286906041305"><ele>451.0</ele><time>2026-04-12T09:29:21.999Z</time></trkpt><trkpt lat="43.25577305709426" lon="10.782979964679003"><ele>451.0</ele><time>2026-04-12T09:29:23.999Z</time></trkpt><trkpt lat="43.25586969246035" lon="10.783061252442124"><ele>451.0</ele><time>2026-04-12T09:29:25.999Z</time></trkpt><trkpt lat="43.255984305686255" lon="10.783090986418493"><ele>451.0</ele><time>2026-04-12T09:29:27.999Z</time></trkpt><trkpt lat="43.25604873692375" lon="10.783114772104932"><ele>451.0</ele><time>2026-04-12T09:29:28.999Z</time></trkpt><trkpt lat="43.256127897501514" lon="10.78310708085705"><ele>451.0</ele><time>2026-04-12T09:29:29.999Z</time></trkpt><trkpt lat="43.25621221715752" lon="10.78310104572204"><ele>451.0</ele><time>2026-04-12T09:29:30.999Z</time></trkpt><trkpt lat="43.25628319877304" lon="10.783099225715965"><ele>451.0</ele><time>2026-04-12T09:29:31.999Z</time></trkpt><trkpt lat="43.25636329500661" lon="10.78309509775387"><ele>451.0</ele><time>2026-04-12T09:29:32.999Z</time></trkpt><trkpt lat="43.25642974043351" lon="10.783094628633659"><ele>451.0</ele><time>2026-04-12T09:29:33.999Z</time></trkpt><trkpt lat="43.2564950886264" lon="10.783102904736596"><ele>451.0</ele><time>2026-04-12T09:29:34.999Z</time></trkpt><trkpt lat="43.25656037515628" lon="10.783123096747174"><ele>451.0</ele><time>2026-04-12T09:29:35.999Z</time></trkpt><trkpt lat="43.25661873290635" lon="10.783164820563181"><ele>451.0</ele><time>2026-04-12T09:29:36.999Z</time></trkpt><trkpt lat="43.2566832796555" lon="10.78331038069351"><ele>450.71428571428567</ele><time>2026-04-12T09:29:38.999Z</time></trkpt><trkpt lat="43.256702583933" lon="10.783397987566753"><ele>450.42857142857144</ele><time>2026-04-12T09:29:39.999Z</time></trkpt><trkpt lat="43.256712754158194" lon="10.783498616060278"><ele>450.1428571428571</ele><time>2026-04-12T09:29:40.999Z</time></trkpt><trkpt lat="43.2567146818189" lon="10.783595190071761"><ele>449.85714285714283</ele><time>2026-04-12T09:29:41.999Z</time></trkpt><trkpt lat="43.2567168261059" lon="10.78369454235009"><ele>449.57142857142856</ele><time>2026-04-12T09:29:42.999Z</time></trkpt><trkpt lat="43.256721161993326" lon="10.78379557358629"><ele>449.2857142857143</ele><time>2026-04-12T09:29:43.999Z</time></trkpt><trkpt lat="43.25673583526465" lon="10.783896686162231"><ele>449.0</ele><time>2026-04-12T09:29:44.999Z</time></trkpt><trkpt lat="43.256749554467035" lon="10.784005358190665"><ele>448.16666666666663</ele><time>2026-04-12T09:29:45.999Z</time></trkpt><trkpt lat="43.25677413633174" lon="10.784107776686776"><ele>447.3333333333333</ele><time>2026-04-12T09:29:46.999Z</time></trkpt><trkpt lat="43.25680298407769" lon="10.784216726529325"><ele>446.5</ele><time>2026-04-12T09:29:47.999Z</time></trkpt><trkpt lat="43.25682084261768" lon="10.78432942129128"><ele>445.66666666666663</ele><time>2026-04-12T09:29:48.999Z</time></trkpt><trkpt lat="43.25684080649553" lon="10.784438407652399"><ele>444.8333333333333</ele><time>2026-04-12T09:29:49.999Z</time></trkpt><trkpt lat="43.2568511355815" lon="10.784528012487614"><ele>444.0</ele><time>2026-04-12T09:29:50.999Z</time></trkpt><trkpt lat="43.256861134115354" lon="10.784615646841363"><ele>443.3333333333333</ele><time>2026-04-12T09:29:51.999Z</time></trkpt><trkpt lat="43.25691060528204" lon="10.78475752736069"><ele>442.66666666666663</ele><time>2026-04-12T09:29:53.999Z</time></trkpt><trkpt lat="43.25694519888009" lon="10.784837594644761"><ele>442.0</ele><time>2026-04-12T09:29:54.999Z</time></trkpt><trkpt lat="43.25698318583242" lon="10.784915775296664"><ele>441.3333333333333</ele><time>2026-04-12T09:29:55.999Z</time></trkpt><trkpt lat="43.25702608206412" lon="10.784996028534191"><ele>440.66666666666663</ele><time>2026-04-12T09:29:56.999Z</time></trkpt><trkpt lat="43.257061099620415" lon="10.78509170404895"><ele>440.0</ele><time>2026-04-12T09:29:57.999Z</time></trkpt><trkpt lat="43.25711930163797" lon="10.785153995231283"><ele>439.4285714285714</ele><time>2026-04-12T09:29:58.999Z</time></trkpt><trkpt lat="43.25716199988359" lon="10.785238919840452"><ele>438.85714285714283</ele><time>2026-04-12T09:29:59.999Z</time></trkpt><trkpt lat="43.25717736880146" lon="10.785330813924674"><ele>438.2857142857143</ele><time>2026-04-12T09:30:00.999Z</time></trkpt><trkpt lat="43.25717282720364" lon="10.785435613270579"><ele>437.71428571428567</ele><time>2026-04-12T09:30:01.999Z</time></trkpt><trkpt lat="43.25717400590641" lon="10.785533040447433"><ele>437.14285714285717</ele><time>2026-04-12T09:30:02.999Z</time></trkpt><trkpt lat="43.25715920553459" lon="10.785620654932949"><ele>436.57142857142856</ele><time>2026-04-12T09:30:03.999Z</time></trkpt><trkpt lat="43.257148211358924" lon="10.785715358169972"><ele>436.0</ele><time>2026-04-12T09:30:04.999Z</time></trkpt><trkpt lat="43.25713125605016" lon="10.785801827256906"><ele>436.0</ele><time>2026-04-12T09:30:05.999Z</time></trkpt><trkpt lat="43.25714020340485" lon="10.785893780257393"><ele>436.0</ele><time>2026-04-12T09:30:06.999Z</time></trkpt><trkpt lat="43.257131804507445" lon="10.785981675307555"><ele>436.0</ele><time>2026-04-12T09:30:07.999Z</time></trkpt><trkpt lat="43.2571550635173" lon="10.786064317953562"><ele>436.0</ele><time>2026-04-12T09:30:08.999Z</time></trkpt><trkpt lat="43.25719442565492" lon="10.786143934030852"><ele>436.0</ele><time>2026-04-12T09:30:09.999Z</time></trkpt><trkpt lat="43.257245241306634" lon="10.78622091801374"><ele>436.0</ele><time>2026-04-12T09:30:10.999Z</time></trkpt><trkpt lat="43.2573091025977" lon="10.786291726811067"><ele>436.0</ele><time>2026-04-12T09:30:11.999Z</time></trkpt><trkpt lat="43.257371239003504" lon="10.786367817224903"><ele>438.00000000000006</ele><time>2026-04-12T09:30:12.999Z</time></trkpt><trkpt lat="43.25743373327414" lon="10.786441862101954"><ele>440.0</ele><time>2026-04-12T09:30:13.999Z</time></trkpt><trkpt lat="43.257490994255484" lon="10.786509393847949"><ele>442.0</ele><time>2026-04-12T09:30:14.999Z</time></trkpt><trkpt lat="43.25754534695213" lon="10.786592084127044"><ele>444.0</ele><time>2026-04-12T09:30:15.999Z</time></trkpt><trkpt lat="43.25760178568652" lon="10.786657132373266"><ele>446.00000000000006</ele><time>2026-04-12T09:30:16.999Z</time></trkpt><trkpt lat="43.25766147579535" lon="10.786728177332636"><ele>448.0</ele><time>2026-04-12T09:30:17.999Z</time></trkpt><trkpt lat="43.25772206457633" lon="10.786788510952542"><ele>446.83333333333337</ele><time>2026-04-12T09:30:18.999Z</time></trkpt><trkpt lat="43.25778720458512" lon="10.78684546405819"><ele>445.6666666666667</ele><time>2026-04-12T09:30:19.999Z</time></trkpt><trkpt lat="43.25785619631126" lon="10.786908166757344"><ele>444.5</ele><time>2026-04-12T09:30:20.999Z</time></trkpt><trkpt lat="43.257918150376284" lon="10.786974276792993"><ele>443.33333333333337</ele><time>2026-04-12T09:30:21.999Z</time></trkpt><trkpt lat="43.257989878299036" lon="10.787031244319754"><ele>442.1666666666667</ele><time>2026-04-12T09:30:22.999Z</time></trkpt><trkpt lat="43.25805281295488" lon="10.787093271318703"><ele>441.0</ele><time>2026-04-12T09:30:23.999Z</time></trkpt><trkpt lat="43.25811405251518" lon="10.78714388260719"><ele>443.3333333333333</ele><time>2026-04-12T09:30:24.999Z</time></trkpt><trkpt lat="43.258207457167074" lon="10.787213505602073"><ele>445.66666666666663</ele><time>2026-04-12T09:30:26.999Z</time></trkpt><trkpt lat="43.25829621743514" lon="10.787317567044775"><ele>448.0</ele><time>2026-04-12T09:30:28.998Z</time></trkpt><trkpt lat="43.25833944269083" lon="10.787385654432692"><ele>450.3333333333333</ele><time>2026-04-12T09:30:29.998Z</time></trkpt><trkpt lat="43.25837167170876" lon="10.787479767213984"><ele>452.66666666666663</ele><time>2026-04-12T09:30:30.998Z</time></trkpt><trkpt lat="43.25838228996386" lon="10.787587784217026"><ele>455.0</ele><time>2026-04-12T09:30:31.998Z</time></trkpt><trkpt lat="43.25838636116862" lon="10.787685692565326"><ele>454.99999999999994</ele><time>2026-04-12T09:30:32.998Z</time></trkpt><trkpt lat="43.258389254758356" lon="10.787790261523355"><ele>455.0</ele><time>2026-04-12T09:30:33.998Z</time></trkpt><trkpt lat="43.25838916685738" lon="10.787897427751759"><ele>455.0</ele><time>2026-04-12T09:30:35Z</time></trkpt><trkpt lat="43.25839071025165" lon="10.788006226563578"><ele>455.0</ele><time>2026-04-12T09:30:36Z</time></trkpt><trkpt lat="43.258385175112295" lon="10.788119569817804"><ele>454.99999999999994</ele><time>2026-04-12T09:30:37Z</time></trkpt><trkpt lat="43.25838909176031" lon="10.788217544940965"><ele>455.0</ele><time>2026-04-12T09:30:38Z</time></trkpt><trkpt lat="43.258392029892924" lon="10.788324394436758"><ele>454.99999999999994</ele><time>2026-04-12T09:30:39Z</time></trkpt><trkpt lat="43.258398049782556" lon="10.788435063586245"><ele>455.0</ele><time>2026-04-12T09:30:40Z</time></trkpt><trkpt lat="43.25840328773982" lon="10.78855236185881"><ele>455.0</ele><time>2026-04-12T09:30:41Z</time></trkpt><trkpt lat="43.25841147890414" lon="10.78866405310803"><ele>455.0</ele><time>2026-04-12T09:30:42Z</time></trkpt><trkpt lat="43.258422216999165" lon="10.788791513788961"><ele>454.99999999999994</ele><time>2026-04-12T09:30:43Z</time></trkpt><trkpt lat="43.25843537347814" lon="10.788923227997255"><ele>455.0</ele><time>2026-04-12T09:30:44Z</time></trkpt><trkpt lat="43.2584501176762" lon="10.789053318019729"><ele>455.0</ele><time>2026-04-12T09:30:45Z</time></trkpt><trkpt lat="43.25847092009131" lon="10.789181940161209"><ele>455.0</ele><time>2026-04-12T09:30:46Z</time></trkpt><trkpt lat="43.25849982430973" lon="10.789308545257072"><ele>455.0</ele><time>2026-04-12T09:30:47Z</time></trkpt><trkpt lat="43.258532287744586" lon="10.78943165086256"><ele>455.0</ele><time>2026-04-12T09:30:48Z</time></trkpt><trkpt lat="43.258562614930945" lon="10.789553697080402"><ele>455.0</ele><time>2026-04-12T09:30:49Z</time></trkpt><trkpt lat="43.258594557614096" lon="10.789680954584744"><ele>455.4</ele><time>2026-04-12T09:30:50Z</time></trkpt><trkpt lat="43.25862787011007" lon="10.789806222008808"><ele>455.8</ele><time>2026-04-12T09:30:51Z</time></trkpt><trkpt lat="43.25865707850183" lon="10.789928186984337"><ele>456.20000000000005</ele><time>2026-04-12T09:30:52Z</time></trkpt><trkpt lat="43.25869592146947" lon="10.790041691537526"><ele>456.6</ele><time>2026-04-12T09:30:53Z</time></trkpt><trkpt lat="43.258744231064675" lon="10.790149479061585"><ele>457.0</ele><time>2026-04-12T09:30:54Z</time></trkpt><trkpt lat="43.25879282757701" lon="10.790257741379216"><ele>457.1666666666667</ele><time>2026-04-12T09:30:55Z</time></trkpt><trkpt lat="43.25883815392462" lon="10.790363054436968"><ele>457.33333333333337</ele><time>2026-04-12T09:30:56Z</time></trkpt><trkpt lat="43.258876389575484" lon="10.790459324769975"><ele>457.5</ele><time>2026-04-12T09:30:57Z</time></trkpt><trkpt lat="43.25891290466966" lon="10.790545618094754"><ele>457.66666666666663</ele><time>2026-04-12T09:30:58Z</time></trkpt><trkpt lat="43.258948107136156" lon="10.790635914807098"><ele>457.8333333333333</ele><time>2026-04-12T09:30:59Z</time></trkpt><trkpt lat="43.25898946094884" lon="10.790731407130513"><ele>458.0</ele><time>2026-04-12T09:31:00Z</time></trkpt><trkpt lat="43.25903152174385" lon="10.790825879713319"><ele>457.99999999999994</ele><time>2026-04-12T09:31:01Z</time></trkpt><trkpt lat="43.25907901947847" lon="10.790927174880515"><ele>458.0</ele><time>2026-04-12T09:31:02Z</time></trkpt><trkpt lat="43.25912757353389" lon="10.791037897122283"><ele>458.0</ele><time>2026-04-12T09:31:03Z</time></trkpt><trkpt lat="43.259167993749614" lon="10.791133325177759"><ele>458.0</ele><time>2026-04-12T09:31:04Z</time></trkpt><trkpt lat="43.25921955414277" lon="10.791221562335254"><ele>457.99999999999994</ele><time>2026-04-12T09:31:05Z</time></trkpt><trkpt lat="43.25927599161551" lon="10.791314064201712"><ele>458.0</ele><time>2026-04-12T09:31:06Z</time></trkpt><trkpt lat="43.25931800581395" lon="10.791426692355369"><ele>458.0</ele><time>2026-04-12T09:31:07Z</time></trkpt><trkpt lat="43.2593742935537" lon="10.79152282552056"><ele>458.0</ele><time>2026-04-12T09:31:08Z</time></trkpt><trkpt lat="43.25945012188104" lon="10.791613599928345"><ele>458.0</ele><time>2026-04-12T09:31:09Z</time></trkpt><trkpt lat="43.259538163967655" lon="10.791754693800963"><ele>458.0</ele><time>2026-04-12T09:31:10Z</time></trkpt><trkpt lat="43.25963066846483" lon="10.791900928372035"><ele>457.59999999999997</ele><time>2026-04-12T09:31:11Z</time></trkpt><trkpt lat="43.25969791901527" lon="10.792024503966697"><ele>457.19999999999993</ele><time>2026-04-12T09:31:12Z</time></trkpt><trkpt lat="43.25977153574793" lon="10.792111356332784"><ele>456.8</ele><time>2026-04-12T09:31:13Z</time></trkpt><trkpt lat="43.25983416952552" lon="10.79221759556598"><ele>456.4</ele><time>2026-04-12T09:31:14Z</time></trkpt><trkpt lat="43.2598955169189" lon="10.79233685129938"><ele>456.0</ele><time>2026-04-12T09:31:15Z</time></trkpt><trkpt lat="43.25995214243632" lon="10.792438736128528"><ele>456.5</ele><time>2026-04-12T09:31:16Z</time></trkpt><trkpt lat="43.2600031046548" lon="10.792534474469475"><ele>457.0</ele><time>2026-04-12T09:31:17Z</time></trkpt><trkpt lat="43.26005381878688" lon="10.792630718755355"><ele>457.5</ele><time>2026-04-12T09:31:18Z</time></trkpt><trkpt lat="43.260100871844024" lon="10.792722127779031"><ele>458.0</ele><time>2026-04-12T09:31:19Z</time></trkpt><trkpt lat="43.2601485464714" lon="10.792825026723168"><ele>458.5</ele><time>2026-04-12T09:31:20Z</time></trkpt><trkpt lat="43.26019438805634" lon="10.792922532055815"><ele>459.0</ele><time>2026-04-12T09:31:20.999Z</time></trkpt><trkpt lat="43.26022449765387" lon="10.79301147955771"><ele>459.0</ele><time>2026-04-12T09:31:21.999Z</time></trkpt><trkpt lat="43.26025571302435" lon="10.793100082035147"><ele>459.0</ele><time>2026-04-12T09:31:22.999Z</time></trkpt><trkpt lat="43.26029076905236" lon="10.793188605125987"><ele>459.0</ele><time>2026-04-12T09:31:23.999Z</time></trkpt><trkpt lat="43.26032520107072" lon="10.793291425894923"><ele>459.0</ele><time>2026-04-12T09:31:24.999Z</time></trkpt><trkpt lat="43.26036018633919" lon="10.793395405251282"><ele>459.0</ele><time>2026-04-12T09:31:25.999Z</time></trkpt><trkpt lat="43.2603920317001" lon="10.793504013653024"><ele>459.0</ele><time>2026-04-12T09:31:26.999Z</time></trkpt><trkpt lat="43.26041474024948" lon="10.793617977469031"><ele>458.6666666666667</ele><time>2026-04-12T09:31:27.999Z</time></trkpt><trkpt lat="43.26043621984478" lon="10.793728130237211"><ele>458.33333333333337</ele><time>2026-04-12T09:31:28.999Z</time></trkpt><trkpt lat="43.26046135261636" lon="10.793837506051409"><ele>458.0</ele><time>2026-04-12T09:31:29.999Z</time></trkpt><trkpt lat="43.26051327520619" lon="10.79392873585045"><ele>457.6666666666667</ele><time>2026-04-12T09:31:30.999Z</time></trkpt><trkpt lat="43.260553719680026" lon="10.79403195010125"><ele>457.33333333333337</ele><time>2026-04-12T09:31:31.999Z</time></trkpt><trkpt lat="43.26059626300518" lon="10.79413608694402"><ele>457.0</ele><time>2026-04-12T09:31:32.999Z</time></trkpt><trkpt lat="43.26063462041151" lon="10.794254380784995"><ele>460.0</ele><time>2026-04-12T09:31:33.999Z</time></trkpt><trkpt lat="43.26070418495273" lon="10.794374060154599"><ele>463.0</ele><time>2026-04-12T09:31:34.999Z</time></trkpt><trkpt lat="43.26079016836478" lon="10.794526706754619"><ele>466.0</ele><time>2026-04-12T09:31:35.999Z</time></trkpt><trkpt lat="43.260868273647574" lon="10.794686890115267"><ele>469.0</ele><time>2026-04-12T09:31:36.999Z</time></trkpt><trkpt lat="43.260952640254544" lon="10.794848524620567"><ele>469.0</ele><time>2026-04-12T09:31:37.999Z</time></trkpt><trkpt lat="43.26102299649226" lon="10.794983859434437"><ele>469.0</ele><time>2026-04-12T09:31:38.999Z</time></trkpt><trkpt lat="43.26108406367691" lon="10.795094791646688"><ele>469.0</ele><time>2026-04-12T09:31:39.999Z</time></trkpt><trkpt lat="43.26113406395025" lon="10.795207449905027"><ele>469.0</ele><time>2026-04-12T09:31:40.999Z</time></trkpt><trkpt lat="43.26119315061967" lon="10.795311878165087"><ele>469.0</ele><time>2026-04-12T09:31:41.999Z</time></trkpt><trkpt lat="43.2612412547529" lon="10.795410130212332"><ele>470.33333333333337</ele><time>2026-04-12T09:31:42.999Z</time></trkpt><trkpt lat="43.26128391334495" lon="10.795501052439267"><ele>471.6666666666667</ele><time>2026-04-12T09:31:43.999Z</time></trkpt><trkpt lat="43.26132126211157" lon="10.795600306784035"><ele>473.0</ele><time>2026-04-12T09:31:44.999Z</time></trkpt><trkpt lat="43.261356242755895" lon="10.79570177878418"><ele>474.33333333333337</ele><time>2026-04-12T09:31:45.999Z</time></trkpt><trkpt lat="43.261389675000885" lon="10.79580837669498"><ele>475.6666666666667</ele><time>2026-04-12T09:31:46.999Z</time></trkpt><trkpt lat="43.26141296466962" lon="10.795908462126505"><ele>477.0</ele><time>2026-04-12T09:31:47.999Z</time></trkpt><trkpt lat="43.26144504456143" lon="10.796013680388482"><ele>477.5</ele><time>2026-04-12T09:31:48.999Z</time></trkpt><trkpt lat="43.26147703206385" lon="10.796128571725285"><ele>478.0</ele><time>2026-04-12T09:31:49.999Z</time></trkpt><trkpt lat="43.26150731718091" lon="10.796246466431645"><ele>478.5</ele><time>2026-04-12T09:31:50.999Z</time></trkpt><trkpt lat="43.26154002434036" lon="10.79633476762704"><ele>479.0</ele><time>2026-04-12T09:31:51.999Z</time></trkpt><trkpt lat="43.26157077581175" lon="10.796424680015019"><ele>479.5</ele><time>2026-04-12T09:31:52.999Z</time></trkpt><trkpt lat="43.26159890862219" lon="10.796520891706463"><ele>480.0</ele><time>2026-04-12T09:31:53.999Z</time></trkpt><trkpt lat="43.261644330908965" lon="10.796615482738156"><ele>480.0</ele><time>2026-04-12T09:31:54.999Z</time></trkpt><trkpt lat="43.261681660227914" lon="10.796704049453549"><ele>480.0</ele><time>2026-04-12T09:31:55.999Z</time></trkpt><trkpt lat="43.26172148537688" lon="10.796782852272333"><ele>480.0</ele><time>2026-04-12T09:31:56.999Z</time></trkpt><trkpt lat="43.26174663746905" lon="10.796889990038938"><ele>480.0</ele><time>2026-04-12T09:31:57.999Z</time></trkpt><trkpt lat="43.26177056747152" lon="10.797010787710834"><ele>480.0</ele><time>2026-04-12T09:31:58.999Z</time></trkpt><trkpt lat="43.261796757561" lon="10.797159647318818"><ele>480.0</ele><time>2026-04-12T09:31:59.999Z</time></trkpt><trkpt lat="43.26185140219981" lon="10.797302280276405"><ele>481.1666666666667</ele><time>2026-04-12T09:32:00.999Z</time></trkpt><trkpt lat="43.26188324948993" lon="10.797416331748575"><ele>482.33333333333337</ele><time>2026-04-12T09:32:01.999Z</time></trkpt><trkpt lat="43.26191953044345" lon="10.797552488381843"><ele>483.5</ele><time>2026-04-12T09:32:02.999Z</time></trkpt><trkpt lat="43.261945673423654" lon="10.79766466910634"><ele>484.6666666666667</ele><time>2026-04-12T09:32:03.999Z</time></trkpt><trkpt lat="43.26195863784607" lon="10.79775242997961"><ele>485.83333333333337</ele><time>2026-04-12T09:32:04.999Z</time></trkpt><trkpt lat="43.261991932273006" lon="10.797844383092132"><ele>487.0</ele><time>2026-04-12T09:32:05.999Z</time></trkpt><trkpt lat="43.26201280792498" lon="10.797932131163632"><ele>487.33333333333337</ele><time>2026-04-12T09:32:06.999Z</time></trkpt><trkpt lat="43.26203420241026" lon="10.79802206009806"><ele>487.6666666666667</ele><time>2026-04-12T09:32:07.999Z</time></trkpt><trkpt lat="43.26205633047785" lon="10.798115072512303"><ele>488.0</ele><time>2026-04-12T09:32:08.999Z</time></trkpt><trkpt lat="43.26208137331857" lon="10.798222434909697"><ele>488.33333333333337</ele><time>2026-04-12T09:32:09.999Z</time></trkpt><trkpt lat="43.26210477345368" lon="10.798324254097277"><ele>488.6666666666667</ele><time>2026-04-12T09:32:10.999Z</time></trkpt><trkpt lat="43.26212830600029" lon="10.798426649290553"><ele>489.0</ele><time>2026-04-12T09:32:11.999Z</time></trkpt><trkpt lat="43.26215435711764" lon="10.798540003453088"><ele>488.0</ele><time>2026-04-12T09:32:12.999Z</time></trkpt><trkpt lat="43.26218070632675" lon="10.798654654632987"><ele>487.0</ele><time>2026-04-12T09:32:13.999Z</time></trkpt><trkpt lat="43.26219813458087" lon="10.798777514839426"><ele>486.0</ele><time>2026-04-12T09:32:14.999Z</time></trkpt><trkpt lat="43.26223750686548" lon="10.79888152835765"><ele>485.0</ele><time>2026-04-12T09:32:15.999Z</time></trkpt><trkpt lat="43.262262539801675" lon="10.798979702127559"><ele>484.0</ele><time>2026-04-12T09:32:16.999Z</time></trkpt><trkpt lat="43.262287429000295" lon="10.799076407119719"><ele>483.0</ele><time>2026-04-12T09:32:17.999Z</time></trkpt><trkpt lat="43.26231384652574" lon="10.799166957065607"><ele>481.8571428571429</ele><time>2026-04-12T09:32:18.999Z</time></trkpt><trkpt lat="43.262327151752885" lon="10.799256880552985"><ele>480.7142857142857</ele><time>2026-04-12T09:32:19.999Z</time></trkpt><trkpt lat="43.26235945895372" lon="10.799331851333097"><ele>479.57142857142856</ele><time>2026-04-12T09:32:20.999Z</time></trkpt><trkpt lat="43.26241243296339" lon="10.7993864972021"><ele>478.42857142857144</ele><time>2026-04-12T09:32:21.999Z</time></trkpt><trkpt lat="43.26249070470901" lon="10.799495612380904"><ele>477.28571428571433</ele><time>2026-04-12T09:32:23.999Z</time></trkpt><trkpt lat="43.26254868771383" lon="10.799540166384714"><ele>476.14285714285717</ele><time>2026-04-12T09:32:24.999Z</time></trkpt><trkpt lat="43.2626090798148" lon="10.799594715979463"><ele>475.0</ele><time>2026-04-12T09:32:25.999Z</time></trkpt><trkpt lat="43.26267248072077" lon="10.799666210723954"><ele>474.00000000000006</ele><time>2026-04-12T09:32:26.999Z</time></trkpt><trkpt lat="43.26274646988002" lon="10.799721296248348"><ele>473.0</ele><time>2026-04-12T09:32:27.999Z</time></trkpt><trkpt lat="43.26280822614357" lon="10.799795522739572"><ele>472.0</ele><time>2026-04-12T09:32:28.999Z</time></trkpt><trkpt lat="43.26287413974836" lon="10.799856765649572"><ele>471.0</ele><time>2026-04-12T09:32:29.999Z</time></trkpt><trkpt lat="43.26294792276093" lon="10.7999226629264"><ele>470.00000000000006</ele><time>2026-04-12T09:32:30.999Z</time></trkpt><trkpt lat="43.263017529531986" lon="10.799987820812563"><ele>469.0</ele><time>2026-04-12T09:32:31.999Z</time></trkpt><trkpt lat="43.263087859175165" lon="10.800057619590458"><ele>468.83333333333337</ele><time>2026-04-12T09:32:32.999Z</time></trkpt><trkpt lat="43.26316294264141" lon="10.800125957775323"><ele>468.6666666666667</ele><time>2026-04-12T09:32:33.999Z</time></trkpt><trkpt lat="43.26323161583672" lon="10.800193598538673"><ele>468.5</ele><time>2026-04-12T09:32:34.999Z</time></trkpt><trkpt lat="43.26329175421648" lon="10.800260838461986"><ele>468.33333333333337</ele><time>2026-04-12T09:32:35.999Z</time></trkpt><trkpt lat="43.26334554990038" lon="10.800319768538534"><ele>468.1666666666667</ele><time>2026-04-12T09:32:36.998Z</time></trkpt><trkpt lat="43.26340119763285" lon="10.800375578127293"><ele>468.0</ele><time>2026-04-12T09:32:37.998Z</time></trkpt><trkpt lat="43.26345937632114" lon="10.800431610335371"><ele>467.28571428571433</ele><time>2026-04-12T09:32:38.998Z</time></trkpt><trkpt lat="43.26351987348623" lon="10.800484731600404"><ele>466.5714285714286</ele><time>2026-04-12T09:32:39.998Z</time></trkpt><trkpt lat="43.26358508198256" lon="10.800533848656881"><ele>465.8571428571429</ele><time>2026-04-12T09:32:41Z</time></trkpt><trkpt lat="43.26365360039689" lon="10.800589329646748"><ele>465.1428571428571</ele><time>2026-04-12T09:32:42Z</time></trkpt><trkpt lat="43.2637024186452" lon="10.800665337293925"><ele>464.4285714285714</ele><time>2026-04-12T09:32:43Z</time></trkpt><trkpt lat="43.26376216222863" lon="10.80072508106173"><ele>463.71428571428567</ele><time>2026-04-12T09:32:44Z</time></trkpt><trkpt lat="43.263814753501535" lon="10.800774016663436"><ele>463.0</ele><time>2026-04-12T09:32:45Z</time></trkpt><trkpt lat="43.26386380458157" lon="10.800929050621976"><ele>463.50000000000006</ele><time>2026-04-12T09:32:47Z</time></trkpt><trkpt lat="43.2638729760878" lon="10.801101177430672"><ele>464.0</ele><time>2026-04-12T09:32:49Z</time></trkpt><trkpt lat="43.26384973601509" lon="10.801187773758508"><ele>464.5</ele><time>2026-04-12T09:32:50Z</time></trkpt><trkpt lat="43.263819967895394" lon="10.801275688480764"><ele>465.0</ele><time>2026-04-12T09:32:51Z</time></trkpt><trkpt lat="43.2637721980189" lon="10.801346554716256"><ele>465.50000000000006</ele><time>2026-04-12T09:32:52Z</time></trkpt><trkpt lat="43.26373467519892" lon="10.80143690948338"><ele>466.0</ele><time>2026-04-12T09:32:53Z</time></trkpt><trkpt lat="43.26369974913603" lon="10.80153380236587"><ele>466.00000000000006</ele><time>2026-04-12T09:32:54Z</time></trkpt><trkpt lat="43.263675225209504" lon="10.8016309747195"><ele>466.0</ele><time>2026-04-12T09:32:55Z</time></trkpt><trkpt lat="43.26365355270788" lon="10.801741162503262"><ele>466.0</ele><time>2026-04-12T09:32:56Z</time></trkpt><trkpt lat="43.26364093407765" lon="10.801847050145039"><ele>466.0</ele><time>2026-04-12T09:32:57Z</time></trkpt><trkpt lat="43.26362450377388" lon="10.801957974544601"><ele>466.00000000000006</ele><time>2026-04-12T09:32:58Z</time></trkpt><trkpt lat="43.2636097595066" lon="10.80206529018091"><ele>466.0</ele><time>2026-04-12T09:32:59Z</time></trkpt><trkpt lat="43.26358891263707" lon="10.80218027039725"><ele>466.00000000000006</ele><time>2026-04-12T09:33:00Z</time></trkpt><trkpt lat="43.26356684404141" lon="10.802285995659812"><ele>466.0</ele><time>2026-04-12T09:33:01Z</time></trkpt><trkpt lat="43.263549036093686" lon="10.80239151344178"><ele>466.0</ele><time>2026-04-12T09:33:02Z</time></trkpt><trkpt lat="43.26353713865484" lon="10.802497816491762"><ele>466.0</ele><time>2026-04-12T09:33:03Z</time></trkpt><trkpt lat="43.26354066571728" lon="10.802605858361245"><ele>466.00000000000006</ele><time>2026-04-12T09:33:04Z</time></trkpt><trkpt lat="43.26355280292539" lon="10.80270371888865"><ele>466.0</ele><time>2026-04-12T09:33:05Z</time></trkpt><trkpt lat="43.263573004145016" lon="10.80279348595757"><ele>465.83333333333337</ele><time>2026-04-12T09:33:06Z</time></trkpt><trkpt lat="43.26359875670212" lon="10.802877892225604"><ele>465.6666666666667</ele><time>2026-04-12T09:33:07Z</time></trkpt><trkpt lat="43.263636166519184" lon="10.802963803946433"><ele>465.5</ele><time>2026-04-12T09:33:08Z</time></trkpt><trkpt lat="43.26368001437004" lon="10.803041615511406"><ele>465.33333333333337</ele><time>2026-04-12T09:33:09Z</time></trkpt><trkpt lat="43.2637627982808" lon="10.803152137523883"><ele>465.1666666666667</ele><time>2026-04-12T09:33:11Z</time></trkpt><trkpt lat="43.263850863886695" lon="10.803250354729663"><ele>465.0</ele><time>2026-04-12T09:33:13Z</time></trkpt><trkpt lat="43.26394278443325" lon="10.803357304294453"><ele>465.0</ele><time>2026-04-12T09:33:15Z</time></trkpt><trkpt lat="43.263997747047455" lon="10.803408600089188"><ele>465.0</ele><time>2026-04-12T09:33:16Z</time></trkpt><trkpt lat="43.2640765911459" lon="10.803521848621278"><ele>465.0</ele><time>2026-04-12T09:33:18Z</time></trkpt><trkpt lat="43.26420755322981" lon="10.803576273648114"><ele>465.0</ele><time>2026-04-12T09:33:20Z</time></trkpt><trkpt lat="43.26428507158095" lon="10.803570424070587"><ele>465.0</ele><time>2026-04-12T09:33:21Z</time></trkpt><trkpt lat="43.26434913005791" lon="10.803583318253246"><ele>466.3333333333333</ele><time>2026-04-12T09:33:22Z</time></trkpt><trkpt lat="43.26441978846525" lon="10.803563517072924"><ele>467.66666666666663</ele><time>2026-04-12T09:33:23Z</time></trkpt><trkpt lat="43.26450287188727" lon="10.803544592176218"><ele>469.0</ele><time>2026-04-12T09:33:24Z</time></trkpt><trkpt lat="43.26457790928076" lon="10.803529638600416"><ele>470.3333333333333</ele><time>2026-04-12T09:33:25Z</time></trkpt><trkpt lat="43.264662177283576" lon="10.803519318901472"><ele>471.66666666666663</ele><time>2026-04-12T09:33:26Z</time></trkpt><trkpt lat="43.2647467014776" lon="10.803516363519691"><ele>473.0</ele><time>2026-04-12T09:33:27Z</time></trkpt><trkpt lat="43.264830981237616" lon="10.80351969836274"><ele>472.99999999999994</ele><time>2026-04-12T09:33:28Z</time></trkpt><trkpt lat="43.264913820834074" lon="10.80352397534851"><ele>473.0</ele><time>2026-04-12T09:33:29Z</time></trkpt><trkpt lat="43.26499111114861" lon="10.803521505685467"><ele>473.0</ele><time>2026-04-12T09:33:30Z</time></trkpt><trkpt lat="43.26505944840858" lon="10.803523673016464"><ele>473.0</ele><time>2026-04-12T09:33:31Z</time></trkpt><trkpt lat="43.265171607983" lon="10.803535975490407"><ele>472.99999999999994</ele><time>2026-04-12T09:33:33Z</time></trkpt><trkpt lat="43.26527440893864" lon="10.803551923822724"><ele>473.0</ele><time>2026-04-12T09:33:35Z</time></trkpt><trkpt lat="43.26535828909982" lon="10.803629739354442"><ele>473.0</ele><time>2026-04-12T09:33:36.999Z</time></trkpt><trkpt lat="43.26540268397398" lon="10.803780634008517"><ele>472.99999999999994</ele><time>2026-04-12T09:33:38.999Z</time></trkpt><trkpt lat="43.26541780007769" lon="10.803870370909667"><ele>472.99999999999994</ele><time>2026-04-12T09:33:39.999Z</time></trkpt><trkpt lat="43.26543949875745" lon="10.803953296543972"><ele>473.0</ele><time>2026-04-12T09:33:40.999Z</time></trkpt><trkpt lat="43.26552574432051" lon="10.804081848869764"><ele>473.0</ele><time>2026-04-12T09:33:42.999Z</time></trkpt><trkpt lat="43.265586927628064" lon="10.804140016765183"><ele>472.49999999999994</ele><time>2026-04-12T09:33:43.999Z</time></trkpt><trkpt lat="43.265647431182465" lon="10.804193396121983"><ele>472.0</ele><time>2026-04-12T09:33:44.999Z</time></trkpt><trkpt lat="43.26570373309758" lon="10.8042657542689"><ele>471.5</ele><time>2026-04-12T09:33:45.999Z</time></trkpt><trkpt lat="43.26576921067075" lon="10.804321650749257"><ele>471.0</ele><time>2026-04-12T09:33:46.999Z</time></trkpt><trkpt lat="43.265834797413206" lon="10.80437764040016"><ele>470.49999999999994</ele><time>2026-04-12T09:33:47.999Z</time></trkpt><trkpt lat="43.265954463254964" lon="10.804453179129164"><ele>470.0</ele><time>2026-04-12T09:33:49.999Z</time></trkpt><trkpt lat="43.26606393723875" lon="10.80456002907481"><ele>469.99999999999994</ele><time>2026-04-12T09:33:51.999Z</time></trkpt><trkpt lat="43.26612542458471" lon="10.804616876022072"><ele>470.0</ele><time>2026-04-12T09:33:52.999Z</time></trkpt><trkpt lat="43.26617089014181" lon="10.804684202570929"><ele>470.0</ele><time>2026-04-12T09:33:53.999Z</time></trkpt><trkpt lat="43.26622841998943" lon="10.804746033262377"><ele>470.0</ele><time>2026-04-12T09:33:54.999Z</time></trkpt><trkpt lat="43.2662951968793" lon="10.804807461649917"><ele>469.99999999999994</ele><time>2026-04-12T09:33:55.999Z</time></trkpt><trkpt lat="43.266370379589674" lon="10.804878611396585"><ele>470.0</ele><time>2026-04-12T09:33:56.999Z</time></trkpt><trkpt lat="43.266460570314806" lon="10.80495262769136"><ele>468.8</ele><time>2026-04-12T09:33:57.999Z</time></trkpt><trkpt lat="43.26655102770872" lon="10.805020230613396"><ele>467.6</ele><time>2026-04-12T09:33:58.999Z</time></trkpt><trkpt lat="43.266640525786705" lon="10.805085590384847"><ele>466.4</ele><time>2026-04-12T09:33:59.999Z</time></trkpt><trkpt lat="43.26673297275055" lon="10.805146660100165"><ele>465.2</ele><time>2026-04-12T09:34:00.999Z</time></trkpt><trkpt lat="43.266833305745656" lon="10.805198291250328"><ele>464.0</ele><time>2026-04-12T09:34:01.999Z</time></trkpt><trkpt lat="43.26691785024363" lon="10.805226833243747"><ele>463.99999999999994</ele><time>2026-04-12T09:34:02.999Z</time></trkpt><trkpt lat="43.26701325732144" lon="10.805260038355065"><ele>464.0</ele><time>2026-04-12T09:34:03.999Z</time></trkpt><trkpt lat="43.26709850213078" lon="10.805298929239527"><ele>464.0</ele><time>2026-04-12T09:34:04.999Z</time></trkpt><trkpt lat="43.26716763951705" lon="10.80533666227378"><ele>464.0</ele><time>2026-04-12T09:34:05.999Z</time></trkpt><trkpt lat="43.26723017965231" lon="10.805359293018132"><ele>463.99999999999994</ele><time>2026-04-12T09:34:06.999Z</time></trkpt><trkpt lat="43.2673086068602" lon="10.80538767268904"><ele>464.0</ele><time>2026-04-12T09:34:07.999Z</time></trkpt><trkpt lat="43.267397349548936" lon="10.805420361056594"><ele>462.99999999999994</ele><time>2026-04-12T09:34:08.999Z</time></trkpt><trkpt lat="43.26746701388686" lon="10.805439992678101"><ele>462.0</ele><time>2026-04-12T09:34:09.999Z</time></trkpt><trkpt lat="43.26753308703041" lon="10.805471628861861"><ele>461.0</ele><time>2026-04-12T09:34:10.999Z</time></trkpt><trkpt lat="43.26760528580879" lon="10.805520996718636"><ele>460.0</ele><time>2026-04-12T09:34:11.999Z</time></trkpt><trkpt lat="43.26768668143389" lon="10.805558649905908"><ele>458.99999999999994</ele><time>2026-04-12T09:34:12.999Z</time></trkpt><trkpt lat="43.267771971829724" lon="10.805596732684716"><ele>458.0</ele><time>2026-04-12T09:34:13.999Z</time></trkpt><trkpt lat="43.26786149046908" lon="10.805630156612754"><ele>457.99999999999994</ele><time>2026-04-12T09:34:14.999Z</time></trkpt><trkpt lat="43.267948310454976" lon="10.805661079299782"><ele>458.0</ele><time>2026-04-12T09:34:15.999Z</time></trkpt><trkpt lat="43.268030701030554" lon="10.805681391706853"><ele>458.0</ele><time>2026-04-12T09:34:16.999Z</time></trkpt><trkpt lat="43.26811248884792" lon="10.805695828352398"><ele>458.0</ele><time>2026-04-12T09:34:17.999Z</time></trkpt><trkpt lat="43.268192458879625" lon="10.805701156584355"><ele>457.99999999999994</ele><time>2026-04-12T09:34:18.999Z</time></trkpt><trkpt lat="43.26827499428198" lon="10.805700277517133"><ele>458.0</ele><time>2026-04-12T09:34:19.999Z</time></trkpt><trkpt lat="43.268349345237965" lon="10.805691302449924"><ele>457.8333333333333</ele><time>2026-04-12T09:34:20.999Z</time></trkpt><trkpt lat="43.26842730556246" lon="10.805681489384959"><ele>457.66666666666663</ele><time>2026-04-12T09:34:21.999Z</time></trkpt><trkpt lat="43.268502218559895" lon="10.80567247575578"><ele>457.5</ele><time>2026-04-12T09:34:22.999Z</time></trkpt><trkpt lat="43.26858409568231" lon="10.805656144175325"><ele>457.33333333333337</ele><time>2026-04-12T09:34:23.999Z</time></trkpt><trkpt lat="43.26866488688443" lon="10.805637679460318"><ele>457.1666666666667</ele><time>2026-04-12T09:34:24.999Z</time></trkpt><trkpt lat="43.268747494967606" lon="10.805622332298821"><ele>457.0</ele><time>2026-04-12T09:34:25.999Z</time></trkpt><trkpt lat="43.268822231014454" lon="10.805621369835334"><ele>457.00000000000006</ele><time>2026-04-12T09:34:26.999Z</time></trkpt><trkpt lat="43.26889149431995" lon="10.8056136676315"><ele>457.0</ele><time>2026-04-12T09:34:27.999Z</time></trkpt><trkpt lat="43.26896295858625" lon="10.805612676155794"><ele>457.0</ele><time>2026-04-12T09:34:28.999Z</time></trkpt><trkpt lat="43.26903254802835" lon="10.805634079453135"><ele>457.0</ele><time>2026-04-12T09:34:29.999Z</time></trkpt><trkpt lat="43.26910211937323" lon="10.805670635855622"><ele>457.00000000000006</ele><time>2026-04-12T09:34:30.999Z</time></trkpt><trkpt lat="43.26917525401861" lon="10.805716770004992"><ele>457.0</ele><time>2026-04-12T09:34:31.999Z</time></trkpt><trkpt lat="43.26925395419332" lon="10.805787538277423"><ele>457.0</ele><time>2026-04-12T09:34:32.999Z</time></trkpt><trkpt lat="43.26935900286203" lon="10.805866546725932"><ele>457.00000000000006</ele><time>2026-04-12T09:34:33.999Z</time></trkpt><trkpt lat="43.26944177060433" lon="10.805926448293938"><ele>457.00000000000006</ele><time>2026-04-12T09:34:34.999Z</time></trkpt><trkpt lat="43.26951303045826" lon="10.80597026183561"><ele>457.0</ele><time>2026-04-12T09:34:35.999Z</time></trkpt><trkpt lat="43.269590361182864" lon="10.805987638040795"><ele>457.0</ele><time>2026-04-12T09:34:36.999Z</time></trkpt><trkpt lat="43.26968002204641" lon="10.805983816522668"><ele>455.75</ele><time>2026-04-12T09:34:37.999Z</time></trkpt><trkpt lat="43.269784593334194" lon="10.80597686698536"><ele>454.5</ele><time>2026-04-12T09:34:38.999Z</time></trkpt><trkpt lat="43.26992912460345" lon="10.805963087651511"><ele>453.25</ele><time>2026-04-12T09:34:39.999Z</time></trkpt><trkpt lat="43.270078700971766" lon="10.805946077989098"><ele>452.0</ele><time>2026-04-12T09:34:40.999Z</time></trkpt><trkpt lat="43.27023821544167" lon="10.805920110017237"><ele>452.0</ele><time>2026-04-12T09:34:41.999Z</time></trkpt><trkpt lat="43.2703575652809" lon="10.805914168464064"><ele>452.00000000000006</ele><time>2026-04-12T09:34:42.999Z</time></trkpt><trkpt lat="43.27046083152577" lon="10.80588988402007"><ele>452.00000000000006</ele><time>2026-04-12T09:34:43.999Z</time></trkpt><trkpt lat="43.270561594294406" lon="10.805879071204211"><ele>452.0</ele><time>2026-04-12T09:34:44.999Z</time></trkpt><trkpt lat="43.27065790150848" lon="10.805884606332958"><ele>452.0</ele><time>2026-04-12T09:34:45.999Z</time></trkpt><trkpt lat="43.27075544798482" lon="10.805878673945331"><ele>451.8</ele><time>2026-04-12T09:34:47Z</time></trkpt><trkpt lat="43.27085890351441" lon="10.805862761129243"><ele>451.6</ele><time>2026-04-12T09:34:48Z</time></trkpt><trkpt lat="43.27096234567121" lon="10.805841687394832"><ele>451.40000000000003</ele><time>2026-04-12T09:34:49Z</time></trkpt><trkpt lat="43.27106673675939" lon="10.805820714330569"><ele>451.20000000000005</ele><time>2026-04-12T09:34:50Z</time></trkpt><trkpt lat="43.27117100182277" lon="10.805810011706185"><ele>451.0</ele><time>2026-04-12T09:34:51Z</time></trkpt><trkpt lat="43.271308575283655" lon="10.805809249956717"><ele>450.75</ele><time>2026-04-12T09:34:52Z</time></trkpt><trkpt lat="43.2714644470259" lon="10.80581430332765"><ele>450.5</ele><time>2026-04-12T09:34:53Z</time></trkpt><trkpt lat="43.271581074404324" lon="10.805801534067548"><ele>450.25</ele><time>2026-04-12T09:34:54Z</time></trkpt><trkpt lat="43.271672658937895" lon="10.805797566011835"><ele>450.0</ele><time>2026-04-12T09:34:55Z</time></trkpt><trkpt lat="43.27176147192252" lon="10.805788027804093"><ele>450.0</ele><time>2026-04-12T09:34:56Z</time></trkpt><trkpt lat="43.27184492098046" lon="10.805760992816715"><ele>450.0</ele><time>2026-04-12T09:34:57Z</time></trkpt><trkpt lat="43.271951477121746" lon="10.805708607314928"><ele>450.0</ele><time>2026-04-12T09:34:58Z</time></trkpt><trkpt lat="43.27209586512514" lon="10.805630521760996"><ele>450.0</ele><time>2026-04-12T09:34:59Z</time></trkpt><trkpt lat="43.272219705813384" lon="10.805561613086196"><ele>450.0</ele><time>2026-04-12T09:35:00Z</time></trkpt><trkpt lat="43.27232630721965" lon="10.805511169789028"><ele>450.0</ele><time>2026-04-12T09:35:01Z</time></trkpt><trkpt lat="43.2724338117714" lon="10.805470498951646"><ele>450.0</ele><time>2026-04-12T09:35:02Z</time></trkpt><trkpt lat="43.27253263473954" lon="10.80543528750401"><ele>450.0</ele><time>2026-04-12T09:35:03Z</time></trkpt><trkpt lat="43.27262633829474" lon="10.805412279235293"><ele>450.0</ele><time>2026-04-12T09:35:04Z</time></trkpt><trkpt lat="43.272716011722814" lon="10.805390131537678"><ele>450.0</ele><time>2026-04-12T09:35:05Z</time></trkpt><trkpt lat="43.2728151060261" lon="10.805371214964802"><ele>450.0</ele><time>2026-04-12T09:35:06Z</time></trkpt><trkpt lat="43.272921058946096" lon="10.805357867265844"><ele>450.0</ele><time>2026-04-12T09:35:07Z</time></trkpt><trkpt lat="43.27303255347271" lon="10.80534914096514"><ele>450.0</ele><time>2026-04-12T09:35:08Z</time></trkpt><trkpt lat="43.27314154250811" lon="10.805342314956386"><ele>450.0</ele><time>2026-04-12T09:35:09Z</time></trkpt><trkpt lat="43.273248646090494" lon="10.805338736303918"><ele>450.2</ele><time>2026-04-12T09:35:10Z</time></trkpt><trkpt lat="43.273359359245326" lon="10.805327936844446"><ele>450.4</ele><time>2026-04-12T09:35:11Z</time></trkpt><trkpt lat="43.27346903480042" lon="10.805316029416844"><ele>450.6</ele><time>2026-04-12T09:35:12Z</time></trkpt><trkpt lat="43.273578801450185" lon="10.8053015521477"><ele>450.8</ele><time>2026-04-12T09:35:13Z</time></trkpt><trkpt lat="43.273688405934784" lon="10.805286677254765"><ele>451.0</ele><time>2026-04-12T09:35:14Z</time></trkpt><trkpt lat="43.27379909089733" lon="10.805276414026814"><ele>451.0</ele><time>2026-04-12T09:35:15Z</time></trkpt><trkpt lat="43.27390458776816" lon="10.80526395990013"><ele>451.0</ele><time>2026-04-12T09:35:16Z</time></trkpt><trkpt lat="43.27400910663313" lon="10.805249858413239"><ele>451.0</ele><time>2026-04-12T09:35:17Z</time></trkpt><trkpt lat="43.27410623280096" lon="10.805231589581728"><ele>451.0</ele><time>2026-04-12T09:35:18Z</time></trkpt><trkpt lat="43.27420110067548" lon="10.80521256905858"><ele>451.0</ele><time>2026-04-12T09:35:19Z</time></trkpt><trkpt lat="43.27428792552061" lon="10.805199215720547"><ele>450.85714285714283</ele><time>2026-04-12T09:35:20Z</time></trkpt><trkpt lat="43.27436777784096" lon="10.80517687022811"><ele>450.7142857142858</ele><time>2026-04-12T09:35:21Z</time></trkpt><trkpt lat="43.274444380539975" lon="10.805148125170847"><ele>450.5714285714286</ele><time>2026-04-12T09:35:22Z</time></trkpt><trkpt lat="43.27452158738018" lon="10.805119636832682"><ele>450.42857142857144</ele><time>2026-04-12T09:35:23Z</time></trkpt><trkpt lat="43.27458632626784" lon="10.805105286785253"><ele>450.28571428571433</ele><time>2026-04-12T09:35:24Z</time></trkpt><trkpt lat="43.27464862550344" lon="10.805080596792935"><ele>450.1428571428572</ele><time>2026-04-12T09:35:25Z</time></trkpt><trkpt lat="43.27471545987341" lon="10.805046658366484"><ele>450.00000000000006</ele><time>2026-04-12T09:35:26Z</time></trkpt><trkpt lat="43.27478002612843" lon="10.80502716326956"><ele>453.0</ele><time>2026-04-12T09:35:27Z</time></trkpt><trkpt lat="43.274906533514866" lon="10.804996967886632"><ele>456.0</ele><time>2026-04-12T09:35:29Z</time></trkpt><trkpt lat="43.27498096386195" lon="10.804978319498954"><ele>459.0</ele><time>2026-04-12T09:35:30Z</time></trkpt><trkpt lat="43.27504278470274" lon="10.804957114516075"><ele>462.0</ele><time>2026-04-12T09:35:31Z</time></trkpt><trkpt lat="43.27516248882894" lon="10.804927059068344"><ele>465.0</ele><time>2026-04-12T09:35:33Z</time></trkpt><trkpt lat="43.2752267913229" lon="10.804907830683007"><ele>465.0</ele><time>2026-04-12T09:35:34Z</time></trkpt><trkpt lat="43.27530020436958" lon="10.804894284872997"><ele>465.0</ele><time>2026-04-12T09:35:35Z</time></trkpt><trkpt lat="43.27536343869944" lon="10.80491223130115"><ele>465.0</ele><time>2026-04-12T09:35:36Z</time></trkpt><trkpt lat="43.275455271929296" lon="10.804896509964639"><ele>465.0</ele><time>2026-04-12T09:35:38Z</time></trkpt><trkpt lat="43.27552053281554" lon="10.804916450015382"><ele>465.0</ele><time>2026-04-12T09:35:39Z</time></trkpt><trkpt lat="43.27558288871299" lon="10.80493948841061"><ele>465.0</ele><time>2026-04-12T09:35:40Z</time></trkpt><trkpt lat="43.2756433496797" lon="10.804970544740335"><ele>465.0</ele><time>2026-04-12T09:35:41Z</time></trkpt><trkpt lat="43.2757018738867" lon="10.805008921736171"><ele>465.0</ele><time>2026-04-12T09:35:41.999Z</time></trkpt><trkpt lat="43.27576572896884" lon="10.805068650370115"><ele>465.0</ele><time>2026-04-12T09:35:43.999Z</time></trkpt><trkpt lat="43.27581306825161" lon="10.80515217591096"><ele>465.0</ele><time>2026-04-12T09:35:44.999Z</time></trkpt><trkpt lat="43.27586141078402" lon="10.805256730602215"><ele>465.0</ele><time>2026-04-12T09:35:46.999Z</time></trkpt><trkpt lat="43.2759219559672" lon="10.805374155832396"><ele>465.0</ele><time>2026-04-12T09:35:48.999Z</time></trkpt><trkpt lat="43.27597801617648" lon="10.805446391173524"><ele>465.0</ele><time>2026-04-12T09:35:50.999Z</time></trkpt><trkpt lat="43.27604705236174" lon="10.805537471032132"><ele>465.0</ele><time>2026-04-12T09:35:52.999Z</time></trkpt><trkpt lat="43.27613986968037" lon="10.80560236745207"><ele>465.0</ele><time>2026-04-12T09:35:54.999Z</time></trkpt><trkpt lat="43.27622537661062" lon="10.805664899568846"><ele>465.0</ele><time>2026-04-12T09:35:56.999Z</time></trkpt><trkpt lat="43.2763389155042" lon="10.805657008895214"><ele>465.0</ele><time>2026-04-12T09:35:58.999Z</time></trkpt><trkpt lat="43.27646280836442" lon="10.805653652778183"><ele>465.0</ele><time>2026-04-12T09:36:00.999Z</time></trkpt><trkpt lat="43.27652812558971" lon="10.805638882511092"><ele>466.0</ele><time>2026-04-12T09:36:01.999Z</time></trkpt><trkpt lat="43.276599252786525" lon="10.805615899649592"><ele>467.0</ele><time>2026-04-12T09:36:02.999Z</time></trkpt><trkpt lat="43.27671418677458" lon="10.805543165934365"><ele>468.0</ele><time>2026-04-12T09:36:04.999Z</time></trkpt><trkpt lat="43.276813736371764" lon="10.805496006853474"><ele>469.0</ele><time>2026-04-12T09:36:06.999Z</time></trkpt><trkpt lat="43.276919298817575" lon="10.805497100110784"><ele>470.0</ele><time>2026-04-12T09:36:08.999Z</time></trkpt><trkpt lat="43.276980242365525" lon="10.805543832932411"><ele>470.0</ele><time>2026-04-12T09:36:09.999Z</time></trkpt><trkpt lat="43.27701920575405" lon="10.805637037079402"><ele>470.0</ele><time>2026-04-12T09:36:10.999Z</time></trkpt><trkpt lat="43.277081968030906" lon="10.805772119895613"><ele>470.0</ele><time>2026-04-12T09:36:12.999Z</time></trkpt><trkpt lat="43.27714520928485" lon="10.805923589422916"><ele>470.0</ele><time>2026-04-12T09:36:14.999Z</time></trkpt><trkpt lat="43.27719012602792" lon="10.806003961001176"><ele>470.0</ele><time>2026-04-12T09:36:15.999Z</time></trkpt><trkpt lat="43.27722924108331" lon="10.8060775088346"><ele>469.4</ele><time>2026-04-12T09:36:16.999Z</time></trkpt><trkpt lat="43.27729723419752" lon="10.80622633913145"><ele>468.8</ele><time>2026-04-12T09:36:18.999Z</time></trkpt><trkpt lat="43.27731503477701" lon="10.806311027860959"><ele>468.20000000000005</ele><time>2026-04-12T09:36:19.999Z</time></trkpt><trkpt lat="43.27738399522148" lon="10.806429002590086"><ele>467.6</ele><time>2026-04-12T09:36:21.999Z</time></trkpt><trkpt lat="43.27746760835744" lon="10.80650097484993"><ele>467.0</ele><time>2026-04-12T09:36:23.999Z</time></trkpt><trkpt lat="43.277528336780826" lon="10.806618474586102"><ele>466.99999999999994</ele><time>2026-04-12T09:36:25.999Z</time></trkpt><trkpt lat="43.277575012881655" lon="10.806679480176875"><ele>467.0</ele><time>2026-04-12T09:36:27.999Z</time></trkpt><trkpt lat="43.27762211842982" lon="10.806750517237305"><ele>467.0</ele><time>2026-04-12T09:36:29.999Z</time></trkpt><trkpt lat="43.27770198842487" lon="10.806804926606924"><ele>467.0</ele><time>2026-04-12T09:36:31.999Z</time></trkpt><trkpt lat="43.27780253862273" lon="10.806821123608684"><ele>466.99999999999994</ele><time>2026-04-12T09:36:33.999Z</time></trkpt><trkpt lat="43.27792597833201" lon="10.806829448072229"><ele>467.0</ele><time>2026-04-12T09:36:35.999Z</time></trkpt><trkpt lat="43.27803826143877" lon="10.806834043029411"><ele>466.0</ele><time>2026-04-12T09:36:37.999Z</time></trkpt><trkpt lat="43.27813346196596" lon="10.806853483508629"><ele>465.00000000000006</ele><time>2026-04-12T09:36:39.999Z</time></trkpt><trkpt lat="43.27822544699285" lon="10.806946387550369"><ele>464.00000000000006</ele><time>2026-04-12T09:36:41.999Z</time></trkpt><trkpt lat="43.27825663470516" lon="10.807046612662484"><ele>463.0</ele><time>2026-04-12T09:36:42.999Z</time></trkpt><trkpt lat="43.278277588492344" lon="10.807128393415695"><ele>462.0</ele><time>2026-04-12T09:36:43.999Z</time></trkpt><trkpt lat="43.27832497089373" lon="10.807293602629343"><ele>462.0</ele><time>2026-04-12T09:36:45.999Z</time></trkpt><trkpt lat="43.278382968530146" lon="10.807425640560457"><ele>462.00000000000006</ele><time>2026-04-12T09:36:47.999Z</time></trkpt><trkpt lat="43.278428677637024" lon="10.807528087377921"><ele>462.00000000000006</ele><time>2026-04-12T09:36:49.999Z</time></trkpt><trkpt lat="43.27848993283295" lon="10.807640777099248"><ele>462.0</ele><time>2026-04-12T09:36:51.998Z</time></trkpt><trkpt lat="43.27859602246428" lon="10.807691426051859"><ele>462.0</ele><time>2026-04-12T09:36:54Z</time></trkpt><trkpt lat="43.278700911330745" lon="10.807738715067506"><ele>461.8333333333333</ele><time>2026-04-12T09:36:56Z</time></trkpt><trkpt lat="43.27880728547996" lon="10.80780827554432"><ele>461.66666666666663</ele><time>2026-04-12T09:36:58Z</time></trkpt><trkpt lat="43.27887366892967" lon="10.807833203706894"><ele>461.5</ele><time>2026-04-12T09:36:59Z</time></trkpt><trkpt lat="43.278930955926924" lon="10.80789118996481"><ele>461.3333333333333</ele><time>2026-04-12T09:37:00Z</time></trkpt><trkpt lat="43.2789598321669" lon="10.807991984692082"><ele>461.16666666666663</ele><time>2026-04-12T09:37:01Z</time></trkpt><trkpt lat="43.27898380649475" lon="10.808073892170755"><ele>461.0</ele><time>2026-04-12T09:37:02Z</time></trkpt><trkpt lat="43.2790144649759" lon="10.808249331092146"><ele>461.0</ele><time>2026-04-12T09:37:04Z</time></trkpt><trkpt lat="43.279020060990405" lon="10.808402616494824"><ele>461.0</ele><time>2026-04-12T09:37:06Z</time></trkpt><trkpt lat="43.279043236286846" lon="10.808557604327286"><ele>461.0</ele><time>2026-04-12T09:37:08Z</time></trkpt><trkpt lat="43.27904593818942" lon="10.808717575589109"><ele>461.0</ele><time>2026-04-12T09:37:10Z</time></trkpt><trkpt lat="43.27906107568805" lon="10.80883426551299"><ele>461.0</ele><time>2026-04-12T09:37:12Z</time></trkpt><trkpt lat="43.27910176907383" lon="10.808941680375119"><ele>458.4</ele><time>2026-04-12T09:37:14Z</time></trkpt><trkpt lat="43.279150371232355" lon="10.809039669838395"><ele>455.8</ele><time>2026-04-12T09:37:16Z</time></trkpt><trkpt lat="43.27923603437473" lon="10.809093594213039"><ele>453.19999999999993</ele><time>2026-04-12T09:37:18Z</time></trkpt><trkpt lat="43.27932230500123" lon="10.809092091840988"><ele>450.59999999999997</ele><time>2026-04-12T09:37:21Z</time></trkpt><trkpt lat="43.279424832475115" lon="10.809058657463476"><ele>448.0</ele><time>2026-04-12T09:37:31Z</time></trkpt><trkpt lat="43.27953257069775" lon="10.808944084939515"><ele>448.00000000000006</ele><time>2026-04-12T09:37:33Z</time></trkpt><trkpt lat="43.27959146409101" lon="10.808881725688414"><ele>448.0</ele><time>2026-04-12T09:37:34Z</time></trkpt><trkpt lat="43.27965690836434" lon="10.808817134496532"><ele>448.0</ele><time>2026-04-12T09:37:35Z</time></trkpt><trkpt lat="43.279719214289294" lon="10.808756313834063"><ele>448.0</ele><time>2026-04-12T09:37:36Z</time></trkpt><trkpt lat="43.279776818249346" lon="10.808702480836207"><ele>448.00000000000006</ele><time>2026-04-12T09:37:37Z</time></trkpt><trkpt lat="43.279832982904736" lon="10.808652065259315"><ele>448.0</ele><time>2026-04-12T09:37:38Z</time></trkpt><trkpt lat="43.27993333953858" lon="10.80857979321153"><ele>446.33333333333337</ele><time>2026-04-12T09:37:40Z</time></trkpt><trkpt lat="43.280038963884586" lon="10.808529350911774"><ele>444.6666666666667</ele><time>2026-04-12T09:37:41.999Z</time></trkpt><trkpt lat="43.280100856580916" lon="10.808498973316253"><ele>443.0</ele><time>2026-04-12T09:37:42.999Z</time></trkpt><trkpt lat="43.28016381182911" lon="10.808498613093926"><ele>441.33333333333337</ele><time>2026-04-12T09:37:43.999Z</time></trkpt><trkpt lat="43.28025289249362" lon="10.808481972636166"><ele>439.6666666666667</ele><time>2026-04-12T09:37:45.999Z</time></trkpt><trkpt lat="43.28031973151614" lon="10.808478497350668"><ele>438.0</ele><time>2026-04-12T09:37:47.999Z</time></trkpt><trkpt lat="43.280398700631125" lon="10.808414981608852"><ele>438.0</ele><time>2026-04-12T09:37:50.999Z</time></trkpt><trkpt lat="43.28046871451382" lon="10.808350609684165"><ele>438.0</ele><time>2026-04-12T09:37:52.999Z</time></trkpt><trkpt lat="43.28057991683262" lon="10.808297955133867"><ele>438.0</ele><time>2026-04-12T09:37:54.999Z</time></trkpt><trkpt lat="43.280643662568636" lon="10.808274010367132"><ele>438.0</ele><time>2026-04-12T09:37:55.999Z</time></trkpt><trkpt lat="43.2807098743271" lon="10.80828395954688"><ele>438.0</ele><time>2026-04-12T09:37:56.999Z</time></trkpt><trkpt lat="43.280809991081" lon="10.808298916916062"><ele>438.0</ele><time>2026-04-12T09:37:58.999Z</time></trkpt><trkpt lat="43.28088532883878" lon="10.80829454336251"><ele>437.4</ele><time>2026-04-12T09:38:00.999Z</time></trkpt><trkpt lat="43.280984334153146" lon="10.808287570324586"><ele>436.79999999999995</ele><time>2026-04-12T09:38:02.999Z</time></trkpt><trkpt lat="43.281093426043434" lon="10.808273558830075"><ele>436.2</ele><time>2026-04-12T09:38:04.999Z</time></trkpt><trkpt lat="43.28118233623072" lon="10.808291484628214"><ele>435.6</ele><time>2026-04-12T09:38:06.999Z</time></trkpt><trkpt lat="43.28129257254765" lon="10.808345078421793"><ele>435.0</ele><time>2026-04-12T09:38:08.999Z</time></trkpt><trkpt lat="43.28140036880942" lon="10.808407770803544"><ele>433.6</ele><time>2026-04-12T09:38:10.999Z</time></trkpt><trkpt lat="43.28148854009853" lon="10.808502359569468"><ele>432.2</ele><time>2026-04-12T09:38:12.999Z</time></trkpt><trkpt lat="43.281572469462446" lon="10.808590114871397"><ele>430.79999999999995</ele><time>2026-04-12T09:38:14.999Z</time></trkpt><trkpt lat="43.28162837374126" lon="10.80868535399568"><ele>429.4</ele><time>2026-04-12T09:38:16.999Z</time></trkpt><trkpt lat="43.281702694245126" lon="10.808724293971679"><ele>428.0</ele><time>2026-04-12T09:38:19.999Z</time></trkpt><trkpt lat="43.2817639232721" lon="10.80876482759594"><ele>428.0</ele><time>2026-04-12T09:38:38.999Z</time></trkpt><trkpt lat="43.281720249202436" lon="10.808684485795252"><ele>427.99999999999994</ele><time>2026-04-12T09:39:46.999Z</time></trkpt><trkpt lat="43.28164444101116" lon="10.808650199144346"><ele>427.99999999999994</ele><time>2026-04-12T09:39:48.999Z</time></trkpt><trkpt lat="43.28158081884201" lon="10.808589428078102"><ele>428.0</ele><time>2026-04-12T09:39:51.999Z</time></trkpt><trkpt lat="43.28169193136241" lon="10.808408101880397"><ele>428.0</ele><time>2026-04-12T09:39:53.999Z</time></trkpt><trkpt lat="43.28170904107474" lon="10.808314591416583"><ele>446.0</ele><time>2026-04-12T09:39:55.999Z</time></trkpt><trkpt lat="43.28176942340121" lon="10.808266966758051"><ele>446.0</ele><time>2026-04-12T09:40:04.999Z</time></trkpt><trkpt lat="43.281845845976086" lon="10.808262714906135"><ele>446.0</ele><time>2026-04-12T09:40:07.999Z</time></trkpt><trkpt lat="43.28191085743114" lon="10.80821895106885"><ele>446.0</ele><time>2026-04-12T09:40:09.999Z</time></trkpt><trkpt lat="43.28197416166064" lon="10.808154881639581"><ele>446.0</ele><time>2026-04-12T09:40:12.999Z</time></trkpt></trkseg></trk></gpx>